<?xml version='1.0' encoding='UTF-8'?><gpx version="1.1" creator="JPX - https://github.com/jenetics/jpx" xmlns="http://www.topografix.com/GPX/1/1"><trk><trkseg><trkpt lat="44.3848915" lon="7.539824"><ele>555.0</ele><time>2026-04-18T08:33:04.966Z</time></trkpt><trkpt lat="44.384941" lon="7.5397544"><ele>555.0</ele><time>2026-04-18T08:37:12.058Z</time></trkpt><trkpt lat="44.3850708" lon="7.5398887"><ele>555.0</ele><time>2026-04-18T08:37:15.058Z</time></trkpt><trkpt lat="44.3851228" lon="7.5399398"><ele>555.0</ele><time>2026-04-18T08:37:16.057Z</time></trkpt><trkpt lat="44.3851846" lon="7.5400009"><ele>555.0</ele><time>2026-04-18T08:37:17.058Z</time></trkpt><trkpt lat="44.3852423" lon="7.5400682"><ele>555.0</ele><time>2026-04-18T08:37:18.058Z</time></trkpt><trkpt lat="44.3852974" lon="7.5401316"><ele>555.0</ele><time>2026-04-18T08:37:19.058Z</time></trkpt><trkpt lat="44.3853465" lon="7.5401879"><ele>555.0</ele><time>2026-04-18T08:37:20.057Z</time></trkpt><trkpt lat="44.3853986" lon="7.5402378"><ele>555.0</ele><time>2026-04-18T08:37:21.058Z</time></trkpt><trkpt lat="44.3854881" lon="7.5403248"><ele>555.0</ele><time>2026-04-18T08:37:23.058Z</time></trkpt><trkpt lat="44.3855233" lon="7.540421"><ele>555.0</ele><time>2026-04-18T08:37:25.057Z</time></trkpt><trkpt lat="44.3855128" lon="7.5405114"><ele>555.0</ele><time>2026-04-18T08:37:27.058Z</time></trkpt><trkpt lat="44.3854333" lon="7.5406578"><ele>555.0</ele><time>2026-04-18T08:37:29.058Z</time></trkpt><trkpt lat="44.3853889" lon="7.5407492"><ele>555.0</ele><time>2026-04-18T08:37:30.058Z</time></trkpt><trkpt lat="44.3853399" lon="7.5408375"><ele>555.0</ele><time>2026-04-18T08:37:31.057Z</time></trkpt><trkpt lat="44.3852963" lon="7.5409221"><ele>555.0</ele><time>2026-04-18T08:37:32.057Z</time></trkpt><trkpt lat="44.385255" lon="7.5409991"><ele>555.0</ele><time>2026-04-18T08:37:33.057Z</time></trkpt><trkpt lat="44.3851628" lon="7.5411594"><ele>555.0</ele><time>2026-04-18T08:37:35.058Z</time></trkpt><trkpt lat="44.3851194" lon="7.5412484"><ele>555.1428571428572</ele><time>2026-04-18T08:37:36.058Z</time></trkpt><trkpt lat="44.3850789" lon="7.5413309"><ele>555.2857142857143</ele><time>2026-04-18T08:37:37.058Z</time></trkpt><trkpt lat="44.3850294" lon="7.5414091"><ele>555.4285714285714</ele><time>2026-04-18T08:37:38.058Z</time></trkpt><trkpt lat="44.3849822" lon="7.5414886"><ele>555.5714285714287</ele><time>2026-04-18T08:37:39.058Z</time></trkpt><trkpt lat="44.3849351" lon="7.5415697"><ele>555.7142857142858</ele><time>2026-04-18T08:37:40.058Z</time></trkpt><trkpt lat="44.3848872" lon="7.5416427"><ele>555.8571428571429</ele><time>2026-04-18T08:37:41.058Z</time></trkpt><trkpt lat="44.3848415" lon="7.541718"><ele>556.0</ele><time>2026-04-18T08:37:42.058Z</time></trkpt><trkpt lat="44.3847654" lon="7.5418336"><ele>556.0</ele><time>2026-04-18T08:37:44.058Z</time></trkpt><trkpt lat="44.3846724" lon="7.5419201"><ele>556.0</ele><time>2026-04-18T08:37:46.058Z</time></trkpt><trkpt lat="44.3846048" lon="7.5419034"><ele>556.0</ele><time>2026-04-18T08:37:47.058Z</time></trkpt><trkpt lat="44.3845394" lon="7.5418431"><ele>556.0</ele><time>2026-04-18T08:37:48.057Z</time></trkpt><trkpt lat="44.3844736" lon="7.5417662"><ele>556.0</ele><time>2026-04-18T08:37:49.058Z</time></trkpt><trkpt lat="44.3844135" lon="7.5416955"><ele>556.0</ele><time>2026-04-18T08:37:50.058Z</time></trkpt><trkpt lat="44.3843539" lon="7.5416195"><ele>556.0</ele><time>2026-04-18T08:37:51.057Z</time></trkpt><trkpt lat="44.3842848" lon="7.541549"><ele>556.0</ele><time>2026-04-18T08:37:52.057Z</time></trkpt><trkpt lat="44.384221" lon="7.5414777"><ele>556.0</ele><time>2026-04-18T08:37:53.057Z</time></trkpt><trkpt lat="44.3841566" lon="7.5414061"><ele>556.0</ele><time>2026-04-18T08:37:54.058Z</time></trkpt></trkseg><trkseg><trkpt lat="44.3308094" lon="7.508904"><ele>602.0</ele><time>2026-04-18T12:38:11.122Z</time></trkpt><trkpt lat="44.3308466" lon="7.5087816"><ele>602.0</ele><time>2026-04-18T12:38:14.121Z</time></trkpt><trkpt lat="44.3309245" lon="7.5087858"><ele>602.0</ele><time>2026-04-18T12:38:16.13Z</time></trkpt><trkpt lat="44.3310378" lon="7.5088767"><ele>602.0</ele><time>2026-04-18T12:38:18.121Z</time></trkpt><trkpt lat="44.3311326" lon="7.5089847"><ele>602.0</ele><time>2026-04-18T12:38:20.122Z</time></trkpt><trkpt lat="44.331185" lon="7.5090411"><ele>602.0</ele><time>2026-04-18T12:38:21.122Z</time></trkpt><trkpt lat="44.3312587" lon="7.5091518"><ele>602.0</ele><time>2026-04-18T12:38:23.122Z</time></trkpt><trkpt lat="44.3313074" lon="7.5092599"><ele>602.0</ele><time>2026-04-18T12:38:25.121Z</time></trkpt><trkpt lat="44.3312572" lon="7.5094231"><ele>602.0</ele><time>2026-04-18T12:38:27.122Z</time></trkpt><trkpt lat="44.3311984" lon="7.5095362"><ele>602.0</ele><time>2026-04-18T12:38:28.122Z</time></trkpt><trkpt lat="44.3311303" lon="7.5096634"><ele>601.8000000000001</ele><time>2026-04-18T12:38:29.121Z</time></trkpt><trkpt lat="44.3310587" lon="7.5097995"><ele>601.6</ele><time>2026-04-18T12:38:30.121Z</time></trkpt><trkpt lat="44.3309936" lon="7.5099198"><ele>601.4000000000001</ele><time>2026-04-18T12:38:31.122Z</time></trkpt><trkpt lat="44.3309391" lon="7.5100237"><ele>601.2</ele><time>2026-04-18T12:38:32.121Z</time></trkpt><trkpt lat="44.3308858" lon="7.510125"><ele>601.0</ele><time>2026-04-18T12:38:33.122Z</time></trkpt><trkpt lat="44.3308368" lon="7.5102144"><ele>601.0</ele><time>2026-04-18T12:38:34.121Z</time></trkpt><trkpt lat="44.3307784" lon="7.5103081"><ele>601.0</ele><time>2026-04-18T12:38:35.122Z</time></trkpt><trkpt lat="44.3307116" lon="7.510402"><ele>601.0</ele><time>2026-04-18T12:38:36.121Z</time></trkpt><trkpt lat="44.330642" lon="7.5104927"><ele>601.0</ele><time>2026-04-18T12:38:37.122Z</time></trkpt><trkpt lat="44.3305718" lon="7.5105846"><ele>601.0</ele><time>2026-04-18T12:38:38.122Z</time></trkpt><trkpt lat="44.3305056" lon="7.5106693"><ele>600.8</ele><time>2026-04-18T12:38:39.122Z</time></trkpt><trkpt lat="44.3304417" lon="7.5107516"><ele>600.6</ele><time>2026-04-18T12:38:40.122Z</time></trkpt><trkpt lat="44.3303747" lon="7.5108409"><ele>600.4</ele><time>2026-04-18T12:38:41.122Z</time></trkpt><trkpt lat="44.3303053" lon="7.5109361"><ele>600.2</ele><time>2026-04-18T12:38:42.121Z</time></trkpt><trkpt lat="44.3302348" lon="7.511028"><ele>600.0</ele><time>2026-04-18T12:38:43.121Z</time></trkpt><trkpt lat="44.3301646" lon="7.5111113"><ele>600.0</ele><time>2026-04-18T12:38:44.122Z</time></trkpt><trkpt lat="44.3300951" lon="7.5111989"><ele>600.0</ele><time>2026-04-18T12:38:45.122Z</time></trkpt><trkpt lat="44.3300337" lon="7.5112914"><ele>600.0</ele><time>2026-04-18T12:38:46.121Z</time></trkpt><trkpt lat="44.3299772" lon="7.5113818"><ele>600.0</ele><time>2026-04-18T12:38:47.121Z</time></trkpt><trkpt lat="44.3299186" lon="7.5114699"><ele>600.0</ele><time>2026-04-18T12:38:48.122Z</time></trkpt><trkpt lat="44.3298595" lon="7.5115573"><ele>600.0</ele><time>2026-04-18T12:38:49.122Z</time></trkpt><trkpt lat="44.3297947" lon="7.5116437"><ele>600.1666666666666</ele><time>2026-04-18T12:38:50.122Z</time></trkpt><trkpt lat="44.3297313" lon="7.5117385"><ele>600.3333333333334</ele><time>2026-04-18T12:38:51.121Z</time></trkpt><trkpt lat="44.3296729" lon="7.5118399"><ele>600.5</ele><time>2026-04-18T12:38:52.121Z</time></trkpt><trkpt lat="44.3296184" lon="7.5119358"><ele>600.6666666666667</ele><time>2026-04-18T12:38:53.121Z</time></trkpt><trkpt lat="44.3295694" lon="7.5120369"><ele>600.8333333333334</ele><time>2026-04-18T12:38:54.122Z</time></trkpt><trkpt lat="44.3295193" lon="7.5121336"><ele>601.0</ele><time>2026-04-18T12:38:55.121Z</time></trkpt><trkpt lat="44.3294699" lon="7.5122276"><ele>601.3333333333334</ele><time>2026-04-18T12:38:56.122Z</time></trkpt><trkpt lat="44.3294212" lon="7.5123229"><ele>601.6666666666667</ele><time>2026-04-18T12:38:57.122Z</time></trkpt><trkpt lat="44.3293653" lon="7.5124268"><ele>602.0</ele><time>2026-04-18T12:38:58.121Z</time></trkpt><trkpt lat="44.3293036" lon="7.5125255"><ele>602.3333333333334</ele><time>2026-04-18T12:38:59.121Z</time></trkpt><trkpt lat="44.3292426" lon="7.5126093"><ele>602.6666666666666</ele><time>2026-04-18T12:39:00.122Z</time></trkpt><trkpt lat="44.3291826" lon="7.5126843"><ele>603.0</ele><time>2026-04-18T12:39:01.122Z</time></trkpt><trkpt lat="44.3291417" lon="7.5127641"><ele>603.0</ele><time>2026-04-18T12:39:02.122Z</time></trkpt><trkpt lat="44.3291341" lon="7.512865"><ele>603.0</ele><time>2026-04-18T12:39:03.122Z</time></trkpt><trkpt lat="44.3291655" lon="7.5129763"><ele>603.0</ele><time>2026-04-18T12:39:04.121Z</time></trkpt><trkpt lat="44.3292192" lon="7.5130827"><ele>603.0</ele><time>2026-04-18T12:39:05.121Z</time></trkpt><trkpt lat="44.3292748" lon="7.5131899"><ele>603.0</ele><time>2026-04-18T12:39:06.122Z</time></trkpt><trkpt lat="44.3293262" lon="7.5132933"><ele>603.0</ele><time>2026-04-18T12:39:07.121Z</time></trkpt><trkpt lat="44.3293722" lon="7.5133994"><ele>603.1666666666666</ele><time>2026-04-18T12:39:08.121Z</time></trkpt><trkpt lat="44.3294249" lon="7.5134947"><ele>603.3333333333334</ele><time>2026-04-18T12:39:09.122Z</time></trkpt><trkpt lat="44.3294752" lon="7.5135902"><ele>603.5</ele><time>2026-04-18T12:39:10.121Z</time></trkpt><trkpt lat="44.329508" lon="7.5136805"><ele>603.6666666666667</ele><time>2026-04-18T12:39:11.121Z</time></trkpt><trkpt lat="44.3294936" lon="7.5137985"><ele>603.8333333333334</ele><time>2026-04-18T12:39:13.121Z</time></trkpt><trkpt lat="44.3294517" lon="7.5139013"><ele>604.0</ele><time>2026-04-18T12:39:16.121Z</time></trkpt><trkpt lat="44.3295228" lon="7.5140613"><ele>604.3333333333334</ele><time>2026-04-18T12:39:18.122Z</time></trkpt><trkpt lat="44.329579" lon="7.514135"><ele>604.6666666666667</ele><time>2026-04-18T12:39:19.122Z</time></trkpt><trkpt lat="44.3296272" lon="7.5142161"><ele>605.0</ele><time>2026-04-18T12:39:20.121Z</time></trkpt><trkpt lat="44.3296774" lon="7.5143133"><ele>605.3333333333334</ele><time>2026-04-18T12:39:21.122Z</time></trkpt><trkpt lat="44.3297308" lon="7.5144281"><ele>605.6666666666666</ele><time>2026-04-18T12:39:22.121Z</time></trkpt><trkpt lat="44.3297892" lon="7.5145386"><ele>606.0</ele><time>2026-04-18T12:39:23.121Z</time></trkpt><trkpt lat="44.3298525" lon="7.5146503"><ele>605.2</ele><time>2026-04-18T12:39:24.121Z</time></trkpt><trkpt lat="44.3299141" lon="7.5147597"><ele>604.4000000000001</ele><time>2026-04-18T12:39:25.121Z</time></trkpt><trkpt lat="44.3299791" lon="7.5148649"><ele>603.6</ele><time>2026-04-18T12:39:26.122Z</time></trkpt><trkpt lat="44.3300402" lon="7.5149745"><ele>602.8000000000001</ele><time>2026-04-18T12:39:27.121Z</time></trkpt><trkpt lat="44.3300941" lon="7.5150831"><ele>602.0</ele><time>2026-04-18T12:39:28.121Z</time></trkpt><trkpt lat="44.3301453" lon="7.5152061"><ele>602.0</ele><time>2026-04-18T12:39:29.122Z</time></trkpt><trkpt lat="44.3301852" lon="7.5153452"><ele>602.0</ele><time>2026-04-18T12:39:30.121Z</time></trkpt><trkpt lat="44.3302217" lon="7.5154819"><ele>602.0</ele><time>2026-04-18T12:39:31.122Z</time></trkpt><trkpt lat="44.3302574" lon="7.5156233"><ele>602.0</ele><time>2026-04-18T12:39:32.121Z</time></trkpt><trkpt lat="44.3302788" lon="7.5157634"><ele>602.0</ele><time>2026-04-18T12:39:33.122Z</time></trkpt><trkpt lat="44.3302912" lon="7.5159069"><ele>602.0</ele><time>2026-04-18T12:39:34.122Z</time></trkpt><trkpt lat="44.330308" lon="7.5160504"><ele>602.0</ele><time>2026-04-18T12:39:35.121Z</time></trkpt><trkpt lat="44.3303258" lon="7.5161966"><ele>602.0</ele><time>2026-04-18T12:39:36.121Z</time></trkpt><trkpt lat="44.3303437" lon="7.5163324"><ele>602.0</ele><time>2026-04-18T12:39:37.122Z</time></trkpt><trkpt lat="44.3303603" lon="7.5164424"><ele>602.0</ele><time>2026-04-18T12:39:38.121Z</time></trkpt><trkpt lat="44.3303774" lon="7.5165448"><ele>602.0</ele><time>2026-04-18T12:39:39.122Z</time></trkpt><trkpt lat="44.3303862" lon="7.5166365"><ele>602.0</ele><time>2026-04-18T12:39:40.122Z</time></trkpt><trkpt lat="44.3303207" lon="7.5167584"><ele>602.0</ele><time>2026-04-18T12:39:42.121Z</time></trkpt><trkpt lat="44.3302523" lon="7.5168153"><ele>602.0</ele><time>2026-04-18T12:39:43.122Z</time></trkpt><trkpt lat="44.3301792" lon="7.5168652"><ele>602.0</ele><time>2026-04-18T12:39:44.121Z</time></trkpt><trkpt lat="44.3301047" lon="7.5169103"><ele>602.0</ele><time>2026-04-18T12:39:45.122Z</time></trkpt><trkpt lat="44.3300355" lon="7.5169545"><ele>602.0</ele><time>2026-04-18T12:39:46.122Z</time></trkpt><trkpt lat="44.3299661" lon="7.5169908"><ele>602.0</ele><time>2026-04-18T12:39:47.122Z</time></trkpt><trkpt lat="44.3298891" lon="7.5170182"><ele>602.0</ele><time>2026-04-18T12:39:48.121Z</time></trkpt><trkpt lat="44.3297953" lon="7.5170234"><ele>602.0</ele><time>2026-04-18T12:39:49.121Z</time></trkpt><trkpt lat="44.3296986" lon="7.5170227"><ele>602.0</ele><time>2026-04-18T12:39:50.122Z</time></trkpt><trkpt lat="44.3295949" lon="7.517023"><ele>602.0</ele><time>2026-04-18T12:39:51.122Z</time></trkpt><trkpt lat="44.3294925" lon="7.5170303"><ele>603.6</ele><time>2026-04-18T12:39:52.121Z</time></trkpt><trkpt lat="44.3293866" lon="7.5170443"><ele>605.2</ele><time>2026-04-18T12:39:53.121Z</time></trkpt><trkpt lat="44.3292785" lon="7.5170544"><ele>606.8</ele><time>2026-04-18T12:39:54.122Z</time></trkpt><trkpt lat="44.3291688" lon="7.517064"><ele>608.4</ele><time>2026-04-18T12:39:55.121Z</time></trkpt><trkpt lat="44.3290616" lon="7.517076"><ele>610.0</ele><time>2026-04-18T12:39:56.122Z</time></trkpt><trkpt lat="44.328958" lon="7.5170887"><ele>610.8</ele><time>2026-04-18T12:39:57.122Z</time></trkpt><trkpt lat="44.3288628" lon="7.517093"><ele>611.6</ele><time>2026-04-18T12:39:58.122Z</time></trkpt><trkpt lat="44.3287667" lon="7.5171056"><ele>612.4</ele><time>2026-04-18T12:39:59.121Z</time></trkpt><trkpt lat="44.3286734" lon="7.517125"><ele>613.2</ele><time>2026-04-18T12:40:00.122Z</time></trkpt><trkpt lat="44.3285824" lon="7.5171478"><ele>614.0</ele><time>2026-04-18T12:40:01.122Z</time></trkpt><trkpt lat="44.3284943" lon="7.5171684"><ele>614.0</ele><time>2026-04-18T12:40:02.121Z</time></trkpt><trkpt lat="44.3284093" lon="7.5171965"><ele>614.0</ele><time>2026-04-18T12:40:03.122Z</time></trkpt><trkpt lat="44.3283258" lon="7.517223"><ele>614.0</ele><time>2026-04-18T12:40:04.121Z</time></trkpt><trkpt lat="44.3282422" lon="7.5172548"><ele>614.0</ele><time>2026-04-18T12:40:05.121Z</time></trkpt><trkpt lat="44.3281511" lon="7.5172763"><ele>614.0</ele><time>2026-04-18T12:40:06.122Z</time></trkpt><trkpt lat="44.3280589" lon="7.5172994"><ele>614.0</ele><time>2026-04-18T12:40:07.121Z</time></trkpt><trkpt lat="44.3279687" lon="7.5173225"><ele>615.2</ele><time>2026-04-18T12:40:08.122Z</time></trkpt><trkpt lat="44.3278792" lon="7.5173642"><ele>616.4</ele><time>2026-04-18T12:40:09.122Z</time></trkpt><trkpt lat="44.3277997" lon="7.5174144"><ele>617.6</ele><time>2026-04-18T12:40:10.122Z</time></trkpt><trkpt lat="44.327721" lon="7.5174692"><ele>618.8</ele><time>2026-04-18T12:40:11.121Z</time></trkpt><trkpt lat="44.3276343" lon="7.5175106"><ele>620.0</ele><time>2026-04-18T12:40:12.122Z</time></trkpt><trkpt lat="44.3275359" lon="7.5175339"><ele>620.0</ele><time>2026-04-18T12:40:13.122Z</time></trkpt><trkpt lat="44.3274383" lon="7.5175541"><ele>620.0</ele><time>2026-04-18T12:40:14.122Z</time></trkpt><trkpt lat="44.3273391" lon="7.5175643"><ele>620.0</ele><time>2026-04-18T12:40:15.122Z</time></trkpt><trkpt lat="44.3272439" lon="7.5175701"><ele>620.0</ele><time>2026-04-18T12:40:16.121Z</time></trkpt><trkpt lat="44.3271519" lon="7.5175738"><ele>620.0</ele><time>2026-04-18T12:40:17.122Z</time></trkpt><trkpt lat="44.3270704" lon="7.5175699"><ele>620.8</ele><time>2026-04-18T12:40:18.121Z</time></trkpt><trkpt lat="44.3269918" lon="7.5175312"><ele>621.6</ele><time>2026-04-18T12:40:19.122Z</time></trkpt><trkpt lat="44.3269064" lon="7.5174755"><ele>622.4</ele><time>2026-04-18T12:40:20.121Z</time></trkpt><trkpt lat="44.3268128" lon="7.517452"><ele>623.2</ele><time>2026-04-18T12:40:21.121Z</time></trkpt><trkpt lat="44.3267187" lon="7.5174466"><ele>624.0</ele><time>2026-04-18T12:40:22.121Z</time></trkpt><trkpt lat="44.3266156" lon="7.5174668"><ele>624.0</ele><time>2026-04-18T12:40:23.121Z</time></trkpt><trkpt lat="44.3265178" lon="7.5174924"><ele>624.0</ele><time>2026-04-18T12:40:24.122Z</time></trkpt><trkpt lat="44.3264229" lon="7.5175048"><ele>624.0</ele><time>2026-04-18T12:40:25.121Z</time></trkpt><trkpt lat="44.3263254" lon="7.5175"><ele>624.0</ele><time>2026-04-18T12:40:26.122Z</time></trkpt><trkpt lat="44.3262244" lon="7.517496"><ele>624.0</ele><time>2026-04-18T12:40:27.122Z</time></trkpt><trkpt lat="44.3261276" lon="7.5175086"><ele>625.6</ele><time>2026-04-18T12:40:28.122Z</time></trkpt><trkpt lat="44.3260386" lon="7.5175481"><ele>627.2</ele><time>2026-04-18T12:40:29.121Z</time></trkpt><trkpt lat="44.3259554" lon="7.5176138"><ele>628.8000000000001</ele><time>2026-04-18T12:40:30.122Z</time></trkpt><trkpt lat="44.325867" lon="7.5177087"><ele>630.4</ele><time>2026-04-18T12:40:31.122Z</time></trkpt><trkpt lat="44.325775" lon="7.5178093"><ele>632.0</ele><time>2026-04-18T12:40:32.122Z</time></trkpt><trkpt lat="44.3256799" lon="7.5178784"><ele>631.0</ele><time>2026-04-18T12:40:33.121Z</time></trkpt><trkpt lat="44.3255792" lon="7.5179239"><ele>630.0</ele><time>2026-04-18T12:40:34.122Z</time></trkpt><trkpt lat="44.325474" lon="7.5179534"><ele>629.0</ele><time>2026-04-18T12:40:35.122Z</time></trkpt><trkpt lat="44.3253637" lon="7.5179817"><ele>628.0</ele><time>2026-04-18T12:40:36.122Z</time></trkpt><trkpt lat="44.3252647" lon="7.518014"><ele>627.0</ele><time>2026-04-18T12:40:37.122Z</time></trkpt><trkpt lat="44.3251623" lon="7.5180532"><ele>627.0</ele><time>2026-04-18T12:40:38.122Z</time></trkpt><trkpt lat="44.3250583" lon="7.51808"><ele>627.0</ele><time>2026-04-18T12:40:39.122Z</time></trkpt><trkpt lat="44.3249594" lon="7.5180922"><ele>627.0</ele><time>2026-04-18T12:40:40.122Z</time></trkpt><trkpt lat="44.3248632" lon="7.5181029"><ele>627.0</ele><time>2026-04-18T12:40:41.122Z</time></trkpt><trkpt lat="44.3247734" lon="7.5181117"><ele>627.0</ele><time>2026-04-18T12:40:42.121Z</time></trkpt><trkpt lat="44.3246878" lon="7.5181515"><ele>628.2</ele><time>2026-04-18T12:40:43.122Z</time></trkpt><trkpt lat="44.3246056" lon="7.5182053"><ele>629.4000000000001</ele><time>2026-04-18T12:40:44.121Z</time></trkpt><trkpt lat="44.3245199" lon="7.5182752"><ele>630.5999999999999</ele><time>2026-04-18T12:40:45.121Z</time></trkpt><trkpt lat="44.3244274" lon="7.5183312"><ele>631.8</ele><time>2026-04-18T12:40:46.122Z</time></trkpt><trkpt lat="44.3243301" lon="7.5183792"><ele>633.0</ele><time>2026-04-18T12:40:47.122Z</time></trkpt><trkpt lat="44.3242324" lon="7.5184259"><ele>633.0</ele><time>2026-04-18T12:40:48.121Z</time></trkpt><trkpt lat="44.3241382" lon="7.5184657"><ele>633.0</ele><time>2026-04-18T12:40:49.122Z</time></trkpt><trkpt lat="44.3240524" lon="7.5184936"><ele>633.0</ele><time>2026-04-18T12:40:50.122Z</time></trkpt><trkpt lat="44.3239843" lon="7.5185215"><ele>633.0</ele><time>2026-04-18T12:40:51.122Z</time></trkpt><trkpt lat="44.3239175" lon="7.5185165"><ele>633.0</ele><time>2026-04-18T12:40:55.122Z</time></trkpt><trkpt lat="44.3238586" lon="7.5184792"><ele>633.0</ele><time>2026-04-18T12:41:00.122Z</time></trkpt><trkpt lat="44.3237798" lon="7.5184075"><ele>635.0</ele><time>2026-04-18T12:41:02.122Z</time></trkpt><trkpt lat="44.3236669" lon="7.5183302"><ele>637.0</ele><time>2026-04-18T12:41:04.122Z</time></trkpt><trkpt lat="44.3235974" lon="7.518271"><ele>639.0</ele><time>2026-04-18T12:41:05.121Z</time></trkpt><trkpt lat="44.323512" lon="7.5182089"><ele>641.0</ele><time>2026-04-18T12:41:06.122Z</time></trkpt><trkpt lat="44.3234345" lon="7.51813"><ele>643.0</ele><time>2026-04-18T12:41:07.121Z</time></trkpt><trkpt lat="44.3233613" lon="7.5180441"><ele>643.0</ele><time>2026-04-18T12:41:08.121Z</time></trkpt><trkpt lat="44.3232968" lon="7.5179641"><ele>643.0</ele><time>2026-04-18T12:41:09.122Z</time></trkpt><trkpt lat="44.3232186" lon="7.5178708"><ele>643.0</ele><time>2026-04-18T12:41:10.121Z</time></trkpt><trkpt lat="44.323128" lon="7.517797"><ele>643.0</ele><time>2026-04-18T12:41:11.122Z</time></trkpt><trkpt lat="44.3230368" lon="7.5177168"><ele>643.0</ele><time>2026-04-18T12:41:12.121Z</time></trkpt><trkpt lat="44.3229422" lon="7.5176392"><ele>646.0</ele><time>2026-04-18T12:41:13.122Z</time></trkpt><trkpt lat="44.3228379" lon="7.5175415"><ele>649.0</ele><time>2026-04-18T12:41:14.122Z</time></trkpt><trkpt lat="44.3227275" lon="7.5174507"><ele>652.0</ele><time>2026-04-18T12:41:15.122Z</time></trkpt><trkpt lat="44.3226208" lon="7.5173713"><ele>655.0</ele><time>2026-04-18T12:41:16.121Z</time></trkpt><trkpt lat="44.3225329" lon="7.5172921"><ele>655.0</ele><time>2026-04-18T12:41:17.121Z</time></trkpt><trkpt lat="44.3224679" lon="7.5171863"><ele>655.0</ele><time>2026-04-18T12:41:18.121Z</time></trkpt><trkpt lat="44.3224039" lon="7.5170756"><ele>655.0</ele><time>2026-04-18T12:41:19.122Z</time></trkpt><trkpt lat="44.3223608" lon="7.5169041"><ele>655.0</ele><time>2026-04-18T12:41:20.121Z</time></trkpt><trkpt lat="44.3223154" lon="7.5167624"><ele>655.0</ele><time>2026-04-18T12:41:21.122Z</time></trkpt><trkpt lat="44.3222893" lon="7.5166033"><ele>657.8333333333334</ele><time>2026-04-18T12:41:22.121Z</time></trkpt><trkpt lat="44.3222654" lon="7.5164687"><ele>660.6666666666667</ele><time>2026-04-18T12:41:23.122Z</time></trkpt><trkpt lat="44.3222423" lon="7.5163539"><ele>663.5</ele><time>2026-04-18T12:41:24.121Z</time></trkpt><trkpt lat="44.3222072" lon="7.5162607"><ele>666.3333333333334</ele><time>2026-04-18T12:41:25.121Z</time></trkpt><trkpt lat="44.3221399" lon="7.5162508"><ele>669.1666666666666</ele><time>2026-04-18T12:41:27.122Z</time></trkpt><trkpt lat="44.3220736" lon="7.516267"><ele>672.0</ele><time>2026-04-18T12:44:50.121Z</time></trkpt><trkpt lat="44.3220675" lon="7.5161499"><ele>677.4000000000001</ele><time>2026-04-18T12:44:52.121Z</time></trkpt><trkpt lat="44.322077" lon="7.516029"><ele>682.8000000000001</ele><time>2026-04-18T12:44:53.121Z</time></trkpt><trkpt lat="44.3220959" lon="7.5159357"><ele>688.2</ele><time>2026-04-18T12:44:54.122Z</time></trkpt><trkpt lat="44.322048" lon="7.5158053"><ele>693.6</ele><time>2026-04-18T12:44:56.122Z</time></trkpt><trkpt lat="44.3219387" lon="7.5158169"><ele>699.0</ele><time>2026-04-18T12:44:58.121Z</time></trkpt><trkpt lat="44.3218147" lon="7.5158315"><ele>699.0</ele><time>2026-04-18T12:45:00.122Z</time></trkpt><trkpt lat="44.3216811" lon="7.5158449"><ele>699.0</ele><time>2026-04-18T12:45:02.121Z</time></trkpt><trkpt lat="44.3216063" lon="7.5158392"><ele>699.0</ele><time>2026-04-18T12:45:03.121Z</time></trkpt><trkpt lat="44.3215244" lon="7.5158069"><ele>699.0</ele><time>2026-04-18T12:45:04.121Z</time></trkpt><trkpt lat="44.3214376" lon="7.5157595"><ele>699.0</ele><time>2026-04-18T12:45:05.122Z</time></trkpt><trkpt lat="44.3213485" lon="7.5156882"><ele>698.6</ele><time>2026-04-18T12:45:06.122Z</time></trkpt><trkpt lat="44.3212485" lon="7.5156014"><ele>698.2</ele><time>2026-04-18T12:45:07.122Z</time></trkpt><trkpt lat="44.3211593" lon="7.5155203"><ele>697.8000000000001</ele><time>2026-04-18T12:45:08.122Z</time></trkpt><trkpt lat="44.3210767" lon="7.5154455"><ele>697.4000000000001</ele><time>2026-04-18T12:45:09.122Z</time></trkpt><trkpt lat="44.3210234" lon="7.5153161"><ele>697.0</ele><time>2026-04-18T12:45:10.121Z</time></trkpt><trkpt lat="44.3209815" lon="7.5151757"><ele>701.4000000000001</ele><time>2026-04-18T12:45:11.121Z</time></trkpt><trkpt lat="44.3209439" lon="7.5150605"><ele>705.8000000000001</ele><time>2026-04-18T12:45:12.122Z</time></trkpt><trkpt lat="44.3209224" lon="7.5149391"><ele>710.2</ele><time>2026-04-18T12:45:14.121Z</time></trkpt><trkpt lat="44.3208324" lon="7.5148974"><ele>714.6</ele><time>2026-04-18T12:45:16.122Z</time></trkpt><trkpt lat="44.3206808" lon="7.514894"><ele>719.0</ele><time>2026-04-18T12:45:18.122Z</time></trkpt><trkpt lat="44.3205898" lon="7.5148702"><ele>718.8000000000001</ele><time>2026-04-18T12:45:19.121Z</time></trkpt><trkpt lat="44.3205031" lon="7.5148291"><ele>718.6</ele><time>2026-04-18T12:45:20.121Z</time></trkpt><trkpt lat="44.3204399" lon="7.5147527"><ele>718.4</ele><time>2026-04-18T12:45:21.122Z</time></trkpt><trkpt lat="44.3203772" lon="7.5146552"><ele>718.2</ele><time>2026-04-18T12:45:22.122Z</time></trkpt><trkpt lat="44.3203175" lon="7.5145515"><ele>718.0</ele><time>2026-04-18T12:45:23.121Z</time></trkpt><trkpt lat="44.3202538" lon="7.5144343"><ele>722.8</ele><time>2026-04-18T12:45:24.122Z</time></trkpt><trkpt lat="44.3201775" lon="7.5143317"><ele>727.5999999999999</ele><time>2026-04-18T12:45:25.121Z</time></trkpt><trkpt lat="44.3201163" lon="7.514249"><ele>732.4000000000001</ele><time>2026-04-18T12:45:26.122Z</time></trkpt><trkpt lat="44.3200619" lon="7.5141768"><ele>737.2</ele><time>2026-04-18T12:45:27.121Z</time></trkpt><trkpt lat="44.3200041" lon="7.5140758"><ele>742.0</ele><time>2026-04-18T12:45:28.122Z</time></trkpt><trkpt lat="44.3199272" lon="7.5139972"><ele>742.0</ele><time>2026-04-18T12:45:29.121Z</time></trkpt><trkpt lat="44.3198579" lon="7.5139246"><ele>742.0</ele><time>2026-04-18T12:45:30.122Z</time></trkpt><trkpt lat="44.319782" lon="7.5138858"><ele>742.0</ele><time>2026-04-18T12:45:31.121Z</time></trkpt><trkpt lat="44.3197049" lon="7.5138758"><ele>742.0</ele><time>2026-04-18T12:45:32.121Z</time></trkpt><trkpt lat="44.3196257" lon="7.513896"><ele>742.0</ele><time>2026-04-18T12:45:33.121Z</time></trkpt><trkpt lat="44.3195348" lon="7.5139455"><ele>742.0</ele><time>2026-04-18T12:45:34.122Z</time></trkpt><trkpt lat="44.3194295" lon="7.5140438"><ele>744.4000000000001</ele><time>2026-04-18T12:45:35.121Z</time></trkpt><trkpt lat="44.3193493" lon="7.5141475"><ele>746.8000000000001</ele><time>2026-04-18T12:45:36.122Z</time></trkpt><trkpt lat="44.3193029" lon="7.5142242"><ele>749.2</ele><time>2026-04-18T12:45:37.121Z</time></trkpt><trkpt lat="44.3192079" lon="7.5143529"><ele>751.6</ele><time>2026-04-18T12:45:39.121Z</time></trkpt><trkpt lat="44.319149" lon="7.5144138"><ele>754.0</ele><time>2026-04-18T12:45:40.122Z</time></trkpt><trkpt lat="44.3190838" lon="7.5144695"><ele>754.0</ele><time>2026-04-18T12:45:41.121Z</time></trkpt><trkpt lat="44.3190055" lon="7.5145405"><ele>754.0</ele><time>2026-04-18T12:45:42.122Z</time></trkpt><trkpt lat="44.31893" lon="7.5146314"><ele>754.0</ele><time>2026-04-18T12:45:43.121Z</time></trkpt><trkpt lat="44.3188712" lon="7.5147401"><ele>754.0</ele><time>2026-04-18T12:45:44.121Z</time></trkpt><trkpt lat="44.3188216" lon="7.5148261"><ele>754.0</ele><time>2026-04-18T12:45:45.122Z</time></trkpt><trkpt lat="44.3187541" lon="7.5149085"><ele>756.5</ele><time>2026-04-18T12:45:46.122Z</time></trkpt><trkpt lat="44.318699" lon="7.5149574"><ele>759.0</ele><time>2026-04-18T12:45:47.121Z</time></trkpt><trkpt lat="44.3186448" lon="7.5150149"><ele>761.5</ele><time>2026-04-18T12:45:48.121Z</time></trkpt><trkpt lat="44.3185915" lon="7.5150909"><ele>764.0</ele><time>2026-04-18T12:45:50.122Z</time></trkpt><trkpt lat="44.3184923" lon="7.5152162"><ele>766.4999999999999</ele><time>2026-04-18T12:45:59.122Z</time></trkpt><trkpt lat="44.3184405" lon="7.5152748"><ele>769.0</ele><time>2026-04-18T12:46:00.122Z</time></trkpt><trkpt lat="44.3183803" lon="7.5153436"><ele>769.0</ele><time>2026-04-18T12:46:01.122Z</time></trkpt><trkpt lat="44.3182909" lon="7.5153992"><ele>769.0</ele><time>2026-04-18T12:46:02.121Z</time></trkpt><trkpt lat="44.3181807" lon="7.5154444"><ele>769.0</ele><time>2026-04-18T12:46:03.121Z</time></trkpt><trkpt lat="44.3180774" lon="7.5154883"><ele>769.0</ele><time>2026-04-18T12:46:04.122Z</time></trkpt><trkpt lat="44.3179837" lon="7.5155435"><ele>769.0</ele><time>2026-04-18T12:46:05.122Z</time></trkpt><trkpt lat="44.3179036" lon="7.5156067"><ele>773.4000000000001</ele><time>2026-04-18T12:46:06.122Z</time></trkpt><trkpt lat="44.3178235" lon="7.5157007"><ele>777.8</ele><time>2026-04-18T12:46:07.122Z</time></trkpt><trkpt lat="44.3177515" lon="7.5157841"><ele>782.2</ele><time>2026-04-18T12:46:08.121Z</time></trkpt><trkpt lat="44.3176762" lon="7.5158545"><ele>786.5999999999999</ele><time>2026-04-18T12:46:09.122Z</time></trkpt><trkpt lat="44.3176087" lon="7.5159189"><ele>791.0</ele><time>2026-04-18T12:46:10.121Z</time></trkpt><trkpt lat="44.3175616" lon="7.5158255"><ele>791.0</ele><time>2026-04-18T12:46:25.121Z</time></trkpt><trkpt lat="44.3175295" lon="7.515725"><ele>791.0</ele><time>2026-04-18T12:46:27.121Z</time></trkpt><trkpt lat="44.3175097" lon="7.5155349"><ele>791.0</ele><time>2026-04-18T12:46:29.121Z</time></trkpt><trkpt lat="44.3175159" lon="7.5154301"><ele>791.0</ele><time>2026-04-18T12:46:30.121Z</time></trkpt><trkpt lat="44.3175379" lon="7.5153386"><ele>791.0</ele><time>2026-04-18T12:46:31.121Z</time></trkpt><trkpt lat="44.3176006" lon="7.5152303"><ele>793.1428571428571</ele><time>2026-04-18T12:46:32.122Z</time></trkpt><trkpt lat="44.317642" lon="7.51514"><ele>795.2857142857142</ele><time>2026-04-18T12:46:33.122Z</time></trkpt><trkpt lat="44.317683" lon="7.5150651"><ele>797.4285714285714</ele><time>2026-04-18T12:46:34.121Z</time></trkpt><trkpt lat="44.3177341" lon="7.5150132"><ele>799.5714285714286</ele><time>2026-04-18T12:46:35.122Z</time></trkpt><trkpt lat="44.3177913" lon="7.5149565"><ele>801.7142857142857</ele><time>2026-04-18T12:46:36.122Z</time></trkpt><trkpt lat="44.3178199" lon="7.5148618"><ele>803.8571428571429</ele><time>2026-04-18T12:46:38.121Z</time></trkpt><trkpt lat="44.3178543" lon="7.514782"><ele>806.0</ele><time>2026-04-18T12:46:48.121Z</time></trkpt><trkpt lat="44.317879" lon="7.5146563"><ele>803.1666666666667</ele><time>2026-04-18T12:46:50.122Z</time></trkpt><trkpt lat="44.3179333" lon="7.5145593"><ele>800.3333333333334</ele><time>2026-04-18T12:46:51.122Z</time></trkpt><trkpt lat="44.3180033" lon="7.5144554"><ele>797.5</ele><time>2026-04-18T12:46:53.121Z</time></trkpt><trkpt lat="44.3180771" lon="7.5144265"><ele>794.6666666666667</ele><time>2026-04-18T12:47:07.122Z</time></trkpt><trkpt lat="44.318149" lon="7.5144051"><ele>791.8333333333334</ele><time>2026-04-18T12:47:10.121Z</time></trkpt><trkpt lat="44.3182467" lon="7.5144044"><ele>789.0</ele><time>2026-04-18T12:47:12.121Z</time></trkpt><trkpt lat="44.3183061" lon="7.5143704"><ele>789.0</ele><time>2026-04-18T12:47:21.122Z</time></trkpt><trkpt lat="44.3182185" lon="7.5143789"><ele>789.0</ele><time>2026-04-18T12:47:31.121Z</time></trkpt><trkpt lat="44.3181345" lon="7.5143473"><ele>789.0</ele><time>2026-04-18T12:47:33.121Z</time></trkpt><trkpt lat="44.318035" lon="7.5143135"><ele>789.0</ele><time>2026-04-18T12:47:35.121Z</time></trkpt><trkpt lat="44.3179379" lon="7.5142698"><ele>789.0</ele><time>2026-04-18T12:47:37.122Z</time></trkpt><trkpt lat="44.3179848" lon="7.5142006"><ele>789.0</ele><time>2026-04-18T12:47:49.122Z</time></trkpt><trkpt lat="44.3180579" lon="7.5141311"><ele>788.9999999999999</ele><time>2026-04-18T12:47:56.121Z</time></trkpt><trkpt lat="44.3181354" lon="7.5141062"><ele>789.0</ele><time>2026-04-18T12:47:58.122Z</time></trkpt><trkpt lat="44.3181926" lon="7.5140663"><ele>789.0</ele><time>2026-04-18T12:48:00.122Z</time></trkpt><trkpt lat="44.3182553" lon="7.5140142"><ele>789.0</ele><time>2026-04-18T12:48:09.122Z</time></trkpt><trkpt lat="44.3183188" lon="7.5140375"><ele>789.0</ele><time>2026-04-18T12:48:29.122Z</time></trkpt><trkpt lat="44.3182365" lon="7.514062"><ele>788.9999999999999</ele><time>2026-04-18T12:48:36.122Z</time></trkpt><trkpt lat="44.3181757" lon="7.5141073"><ele>789.0</ele><time>2026-04-18T12:48:43.121Z</time></trkpt><trkpt lat="44.3181065" lon="7.5141256"><ele>797.2</ele><time>2026-04-18T12:48:45.122Z</time></trkpt><trkpt lat="44.3180304" lon="7.5141434"><ele>805.4000000000001</ele><time>2026-04-18T12:48:46.122Z</time></trkpt><trkpt lat="44.3179276" lon="7.5142095"><ele>813.6</ele><time>2026-04-18T12:48:48.121Z</time></trkpt><trkpt lat="44.3178609" lon="7.5143131"><ele>821.8</ele><time>2026-04-18T12:48:50.121Z</time></trkpt><trkpt lat="44.3178196" lon="7.5143856"><ele>830.0</ele><time>2026-04-18T12:48:51.121Z</time></trkpt><trkpt lat="44.3179097" lon="7.5143417"><ele>830.0000000000001</ele><time>2026-04-18T12:49:52.121Z</time></trkpt><trkpt lat="44.3180281" lon="7.5143464"><ele>830.0</ele><time>2026-04-18T12:49:54.121Z</time></trkpt><trkpt lat="44.3181015" lon="7.514338"><ele>830.0</ele><time>2026-04-18T12:49:56.122Z</time></trkpt><trkpt lat="44.3181748" lon="7.5143659"><ele>830.0</ele><time>2026-04-18T12:49:58.122Z</time></trkpt><trkpt lat="44.3182305" lon="7.5144088"><ele>830.0000000000001</ele><time>2026-04-18T12:50:03.122Z</time></trkpt><trkpt lat="44.318337" lon="7.5143821"><ele>830.0</ele><time>2026-04-18T12:50:07.122Z</time></trkpt><trkpt lat="44.3182567" lon="7.514348"><ele>830.0000000000001</ele><time>2026-04-18T12:50:17.121Z</time></trkpt><trkpt lat="44.3181424" lon="7.5144027"><ele>830.0</ele><time>2026-04-18T12:50:19.122Z</time></trkpt><trkpt lat="44.3180885" lon="7.5144508"><ele>830.0</ele><time>2026-04-18T12:50:20.121Z</time></trkpt><trkpt lat="44.3180435" lon="7.5145192"><ele>830.0</ele><time>2026-04-18T12:50:21.122Z</time></trkpt><trkpt lat="44.3180183" lon="7.514638"><ele>830.0000000000001</ele><time>2026-04-18T12:50:22.122Z</time></trkpt><trkpt lat="44.3179924" lon="7.5147551"><ele>830.0</ele><time>2026-04-18T12:50:23.122Z</time></trkpt><trkpt lat="44.3179448" lon="7.5148731"><ele>825.2</ele><time>2026-04-18T12:50:25.122Z</time></trkpt><trkpt lat="44.3178654" lon="7.5149593"><ele>820.4</ele><time>2026-04-18T12:50:27.122Z</time></trkpt><trkpt lat="44.3177701" lon="7.5150331"><ele>815.5999999999999</ele><time>2026-04-18T12:50:29.122Z</time></trkpt><trkpt lat="44.3176947" lon="7.5151395"><ele>810.8</ele><time>2026-04-18T12:50:31.121Z</time></trkpt><trkpt lat="44.3176621" lon="7.5152199"><ele>806.0</ele><time>2026-04-18T12:50:32.122Z</time></trkpt><trkpt lat="44.3176282" lon="7.5153396"><ele>803.0</ele><time>2026-04-18T12:50:34.121Z</time></trkpt><trkpt lat="44.3176066" lon="7.5154743"><ele>800.0</ele><time>2026-04-18T12:50:36.122Z</time></trkpt><trkpt lat="44.3176009" lon="7.5156434"><ele>797.0</ele><time>2026-04-18T12:50:38.121Z</time></trkpt><trkpt lat="44.3176142" lon="7.5157305"><ele>794.0</ele><time>2026-04-18T12:50:39.122Z</time></trkpt><trkpt lat="44.3176357" lon="7.515823"><ele>791.0</ele><time>2026-04-18T12:50:41.121Z</time></trkpt><trkpt lat="44.31759" lon="7.5159533"><ele>791.0000000000001</ele><time>2026-04-18T12:50:43.122Z</time></trkpt><trkpt lat="44.3175461" lon="7.5160342"><ele>791.0</ele><time>2026-04-18T12:50:44.122Z</time></trkpt><trkpt lat="44.3174885" lon="7.5161132"><ele>791.0</ele><time>2026-04-18T12:50:46.121Z</time></trkpt><trkpt lat="44.3174298" lon="7.5160266"><ele>791.0</ele><time>2026-04-18T12:51:02.121Z</time></trkpt><trkpt lat="44.3173435" lon="7.5159705"><ele>791.0000000000001</ele><time>2026-04-18T12:51:04.122Z</time></trkpt><trkpt lat="44.317248" lon="7.5159157"><ele>791.0</ele><time>2026-04-18T12:51:06.122Z</time></trkpt><trkpt lat="44.3171912" lon="7.5157801"><ele>799.8</ele><time>2026-04-18T12:51:08.121Z</time></trkpt><trkpt lat="44.3171608" lon="7.5157004"><ele>808.5999999999999</ele><time>2026-04-18T12:51:09.121Z</time></trkpt><trkpt lat="44.3170805" lon="7.5156315"><ele>817.4</ele><time>2026-04-18T12:51:11.122Z</time></trkpt><trkpt lat="44.3170109" lon="7.5156403"><ele>826.2</ele><time>2026-04-18T12:51:12.121Z</time></trkpt><trkpt lat="44.3169276" lon="7.5157965"><ele>835.0</ele><time>2026-04-18T12:51:13.122Z</time></trkpt><trkpt lat="44.3168514" lon="7.5158994"><ele>835.0</ele><time>2026-04-18T12:51:14.122Z</time></trkpt><trkpt lat="44.3168475" lon="7.5160914"><ele>835.0</ele><time>2026-04-18T12:51:16.122Z</time></trkpt><trkpt lat="44.3168924" lon="7.5162349"><ele>835.0</ele><time>2026-04-18T12:51:17.122Z</time></trkpt><trkpt lat="44.3169904" lon="7.5163414"><ele>835.0</ele><time>2026-04-18T12:51:18.122Z</time></trkpt><trkpt lat="44.3170639" lon="7.5164434"><ele>834.9999999999999</ele><time>2026-04-18T12:51:19.122Z</time></trkpt><trkpt lat="44.3171137" lon="7.5165463"><ele>835.0</ele><time>2026-04-18T12:51:20.121Z</time></trkpt><trkpt lat="44.3171611" lon="7.5166359"><ele>835.0</ele><time>2026-04-18T12:51:21.121Z</time></trkpt><trkpt lat="44.3171377" lon="7.5167578"><ele>835.0</ele><time>2026-04-18T12:51:22.122Z</time></trkpt><trkpt lat="44.3171285" lon="7.5168908"><ele>834.9999999999999</ele><time>2026-04-18T12:51:23.122Z</time></trkpt><trkpt lat="44.3171098" lon="7.5170038"><ele>835.0</ele><time>2026-04-18T12:51:24.121Z</time></trkpt><trkpt lat="44.3171071" lon="7.5171143"><ele>834.8333333333333</ele><time>2026-04-18T12:51:25.122Z</time></trkpt><trkpt lat="44.3170669" lon="7.5172191"><ele>834.6666666666666</ele><time>2026-04-18T12:51:26.121Z</time></trkpt><trkpt lat="44.317022" lon="7.5173114"><ele>834.5</ele><time>2026-04-18T12:51:27.122Z</time></trkpt><trkpt lat="44.3169936" lon="7.5174034"><ele>834.3333333333333</ele><time>2026-04-18T12:51:28.122Z</time></trkpt><trkpt lat="44.3169529" lon="7.5175037"><ele>834.1666666666666</ele><time>2026-04-18T12:51:29.121Z</time></trkpt><trkpt lat="44.3169274" lon="7.5175963"><ele>834.0</ele><time>2026-04-18T12:51:30.122Z</time></trkpt><trkpt lat="44.3168864" lon="7.5177116"><ele>834.0</ele><time>2026-04-18T12:51:31.122Z</time></trkpt><trkpt lat="44.3168432" lon="7.5178239"><ele>834.0</ele><time>2026-04-18T12:51:32.122Z</time></trkpt><trkpt lat="44.3167974" lon="7.5179532"><ele>834.0</ele><time>2026-04-18T12:51:33.121Z</time></trkpt><trkpt lat="44.3167795" lon="7.5180764"><ele>834.0</ele><time>2026-04-18T12:51:34.122Z</time></trkpt><trkpt lat="44.3167442" lon="7.5182073"><ele>834.0</ele><time>2026-04-18T12:51:35.121Z</time></trkpt><trkpt lat="44.3167261" lon="7.5183265"><ele>833.6</ele><time>2026-04-18T12:51:36.121Z</time></trkpt><trkpt lat="44.3167169" lon="7.5184842"><ele>833.2</ele><time>2026-04-18T12:51:37.121Z</time></trkpt><trkpt lat="44.3168021" lon="7.5185929"><ele>832.8000000000001</ele><time>2026-04-18T12:51:38.122Z</time></trkpt><trkpt lat="44.3168468" lon="7.5187131"><ele>832.4000000000001</ele><time>2026-04-18T12:51:39.122Z</time></trkpt><trkpt lat="44.3168206" lon="7.5187949"><ele>832.0</ele><time>2026-04-18T12:51:40.121Z</time></trkpt><trkpt lat="44.3167633" lon="7.5188499"><ele>831.1666666666666</ele><time>2026-04-18T12:51:41.122Z</time></trkpt><trkpt lat="44.3166805" lon="7.5188872"><ele>830.3333333333333</ele><time>2026-04-18T12:51:43.121Z</time></trkpt><trkpt lat="44.316628" lon="7.5189559"><ele>829.5</ele><time>2026-04-18T12:51:46.121Z</time></trkpt><trkpt lat="44.3165968" lon="7.519129"><ele>828.6666666666667</ele><time>2026-04-18T12:51:48.122Z</time></trkpt><trkpt lat="44.3165807" lon="7.51923"><ele>827.8333333333334</ele><time>2026-04-18T12:51:49.122Z</time></trkpt><trkpt lat="44.3165679" lon="7.5193444"><ele>827.0</ele><time>2026-04-18T12:51:50.121Z</time></trkpt><trkpt lat="44.3165677" lon="7.5194514"><ele>825.6</ele><time>2026-04-18T12:51:51.122Z</time></trkpt><trkpt lat="44.3166156" lon="7.5195897"><ele>824.2</ele><time>2026-04-18T12:51:52.121Z</time></trkpt><trkpt lat="44.3166699" lon="7.5197226"><ele>822.8</ele><time>2026-04-18T12:51:53.121Z</time></trkpt><trkpt lat="44.3167065" lon="7.5198534"><ele>821.4</ele><time>2026-04-18T12:51:54.122Z</time></trkpt><trkpt lat="44.3167194" lon="7.5199942"><ele>820.0</ele><time>2026-04-18T12:51:55.122Z</time></trkpt><trkpt lat="44.3167361" lon="7.5201457"><ele>820.0</ele><time>2026-04-18T12:51:56.121Z</time></trkpt><trkpt lat="44.3167533" lon="7.5202482"><ele>820.0</ele><time>2026-04-18T12:51:57.122Z</time></trkpt><trkpt lat="44.3167643" lon="7.5204061"><ele>820.0</ele><time>2026-04-18T12:51:58.122Z</time></trkpt><trkpt lat="44.3167914" lon="7.5205444"><ele>820.0</ele><time>2026-04-18T12:51:59.121Z</time></trkpt><trkpt lat="44.3168048" lon="7.5206745"><ele>820.0</ele><time>2026-04-18T12:52:00.122Z</time></trkpt><trkpt lat="44.3168627" lon="7.5208559"><ele>819.6</ele><time>2026-04-18T12:52:02.122Z</time></trkpt><trkpt lat="44.3169096" lon="7.5209439"><ele>819.2</ele><time>2026-04-18T12:52:03.122Z</time></trkpt><trkpt lat="44.316932" lon="7.5210478"><ele>818.8</ele><time>2026-04-18T12:52:04.121Z</time></trkpt><trkpt lat="44.3169383" lon="7.5211471"><ele>818.4</ele><time>2026-04-18T12:52:05.121Z</time></trkpt><trkpt lat="44.3169323" lon="7.5213341"><ele>818.0</ele><time>2026-04-18T12:52:07.122Z</time></trkpt><trkpt lat="44.3169169" lon="7.5214567"><ele>818.0000000000001</ele><time>2026-04-18T12:52:08.122Z</time></trkpt><trkpt lat="44.316886" lon="7.5215966"><ele>818.0</ele><time>2026-04-18T12:52:09.121Z</time></trkpt><trkpt lat="44.316896" lon="7.5216918"><ele>818.0</ele><time>2026-04-18T12:52:10.122Z</time></trkpt><trkpt lat="44.3169014" lon="7.5217898"><ele>818.0</ele><time>2026-04-18T12:52:11.122Z</time></trkpt><trkpt lat="44.3169384" lon="7.5219394"><ele>818.0000000000001</ele><time>2026-04-18T12:52:13.122Z</time></trkpt><trkpt lat="44.3169965" lon="7.5220018"><ele>818.0</ele><time>2026-04-18T12:52:14.122Z</time></trkpt><trkpt lat="44.3170426" lon="7.5220733"><ele>818.2</ele><time>2026-04-18T12:52:15.122Z</time></trkpt><trkpt lat="44.3170777" lon="7.5221728"><ele>818.4</ele><time>2026-04-18T12:52:16.122Z</time></trkpt><trkpt lat="44.3171243" lon="7.5223456"><ele>818.6</ele><time>2026-04-18T12:52:18.122Z</time></trkpt><trkpt lat="44.3171622" lon="7.5224175"><ele>818.8000000000001</ele><time>2026-04-18T12:52:19.121Z</time></trkpt><trkpt lat="44.3171985" lon="7.5225468"><ele>819.0</ele><time>2026-04-18T12:52:21.122Z</time></trkpt><trkpt lat="44.3172641" lon="7.5226087"><ele>813.0</ele><time>2026-04-18T12:52:22.121Z</time></trkpt><trkpt lat="44.3173494" lon="7.5226775"><ele>807.0</ele><time>2026-04-18T12:52:23.122Z</time></trkpt><trkpt lat="44.3174259" lon="7.5227615"><ele>801.0</ele><time>2026-04-18T12:52:25.121Z</time></trkpt><trkpt lat="44.3175126" lon="7.5227686"><ele>795.0</ele><time>2026-04-18T12:52:27.121Z</time></trkpt><trkpt lat="44.3176401" lon="7.5227464"><ele>789.0</ele><time>2026-04-18T12:54:02.121Z</time></trkpt><trkpt lat="44.3177368" lon="7.5227496"><ele>789.0</ele><time>2026-04-18T12:54:03.122Z</time></trkpt><trkpt lat="44.3178354" lon="7.5227485"><ele>789.0</ele><time>2026-04-18T12:54:04.122Z</time></trkpt><trkpt lat="44.3179144" lon="7.5227602"><ele>789.0</ele><time>2026-04-18T12:54:05.122Z</time></trkpt><trkpt lat="44.3179728" lon="7.5227935"><ele>789.0</ele><time>2026-04-18T12:54:06.122Z</time></trkpt><trkpt lat="44.3180026" lon="7.5229094"><ele>789.0</ele><time>2026-04-18T12:54:08.122Z</time></trkpt><trkpt lat="44.317991" lon="7.5229999"><ele>789.0</ele><time>2026-04-18T12:54:09.122Z</time></trkpt><trkpt lat="44.3179784" lon="7.5230881"><ele>789.2</ele><time>2026-04-18T12:54:10.121Z</time></trkpt><trkpt lat="44.3180455" lon="7.5232433"><ele>789.4000000000001</ele><time>2026-04-18T12:54:12.122Z</time></trkpt><trkpt lat="44.3181054" lon="7.5233089"><ele>789.6</ele><time>2026-04-18T12:54:13.122Z</time></trkpt><trkpt lat="44.3181964" lon="7.523362"><ele>789.8</ele><time>2026-04-18T12:54:14.122Z</time></trkpt><trkpt lat="44.318298" lon="7.5233912"><ele>790.0</ele><time>2026-04-18T12:54:15.122Z</time></trkpt><trkpt lat="44.3184324" lon="7.5233466"><ele>790.0</ele><time>2026-04-18T12:54:16.121Z</time></trkpt><trkpt lat="44.3185442" lon="7.5233075"><ele>790.0</ele><time>2026-04-18T12:54:17.121Z</time></trkpt><trkpt lat="44.3186253" lon="7.5233007"><ele>790.0</ele><time>2026-04-18T12:54:18.122Z</time></trkpt><trkpt lat="44.3187178" lon="7.5233982"><ele>790.0</ele><time>2026-04-18T12:54:20.121Z</time></trkpt><trkpt lat="44.3187483" lon="7.5235375"><ele>790.0</ele><time>2026-04-18T12:54:21.122Z</time></trkpt><trkpt lat="44.3187777" lon="7.5236849"><ele>791.8</ele><time>2026-04-18T12:54:22.121Z</time></trkpt><trkpt lat="44.3188075" lon="7.5238442"><ele>793.6</ele><time>2026-04-18T12:54:23.121Z</time></trkpt><trkpt lat="44.3188319" lon="7.5240071"><ele>795.4000000000001</ele><time>2026-04-18T12:54:24.122Z</time></trkpt><trkpt lat="44.3188511" lon="7.5241318"><ele>797.2</ele><time>2026-04-18T12:54:25.122Z</time></trkpt><trkpt lat="44.3188942" lon="7.524222"><ele>799.0</ele><time>2026-04-18T12:54:26.122Z</time></trkpt><trkpt lat="44.3189692" lon="7.5242999"><ele>795.4000000000001</ele><time>2026-04-18T12:54:27.122Z</time></trkpt><trkpt lat="44.3190584" lon="7.5243679"><ele>791.8</ele><time>2026-04-18T12:54:28.121Z</time></trkpt><trkpt lat="44.3191482" lon="7.5244461"><ele>788.2</ele><time>2026-04-18T12:54:29.121Z</time></trkpt><trkpt lat="44.319215" lon="7.5245434"><ele>784.5999999999999</ele><time>2026-04-18T12:54:30.122Z</time></trkpt><trkpt lat="44.3192491" lon="7.5246806"><ele>781.0</ele><time>2026-04-18T12:54:31.121Z</time></trkpt><trkpt lat="44.3192652" lon="7.5248551"><ele>781.0</ele><time>2026-04-18T12:54:32.121Z</time></trkpt><trkpt lat="44.3192989" lon="7.5250402"><ele>781.0</ele><time>2026-04-18T12:54:33.122Z</time></trkpt><trkpt lat="44.3193478" lon="7.5251958"><ele>781.0</ele><time>2026-04-18T12:54:34.122Z</time></trkpt><trkpt lat="44.3193994" lon="7.5253002"><ele>781.0</ele><time>2026-04-18T12:54:35.122Z</time></trkpt><trkpt lat="44.3194402" lon="7.5253689"><ele>781.0</ele><time>2026-04-18T12:54:36.122Z</time></trkpt><trkpt lat="44.3194666" lon="7.5254518"><ele>781.0</ele><time>2026-04-18T12:54:38.122Z</time></trkpt><trkpt lat="44.3194625" lon="7.5253382"><ele>781.0</ele><time>2026-04-18T12:54:52.122Z</time></trkpt><trkpt lat="44.319411" lon="7.525187"><ele>781.0</ele><time>2026-04-18T12:54:53.121Z</time></trkpt><trkpt lat="44.3193622" lon="7.5250193"><ele>781.0</ele><time>2026-04-18T12:54:54.122Z</time></trkpt><trkpt lat="44.3193333" lon="7.5248632"><ele>781.0</ele><time>2026-04-18T12:54:55.122Z</time></trkpt><trkpt lat="44.3193181" lon="7.5247324"><ele>781.0</ele><time>2026-04-18T12:54:56.122Z</time></trkpt><trkpt lat="44.3193039" lon="7.5246414"><ele>781.0</ele><time>2026-04-18T12:54:57.121Z</time></trkpt><trkpt lat="44.319234" lon="7.524637"><ele>781.0</ele><time>2026-04-18T12:54:59.122Z</time></trkpt><trkpt lat="44.3191534" lon="7.5248028"><ele>781.0</ele><time>2026-04-18T12:55:01.122Z</time></trkpt><trkpt lat="44.319119" lon="7.5249281"><ele>781.0</ele><time>2026-04-18T12:55:02.122Z</time></trkpt><trkpt lat="44.3190622" lon="7.5250553"><ele>781.0</ele><time>2026-04-18T12:55:03.121Z</time></trkpt><trkpt lat="44.318988" lon="7.5251834"><ele>781.0</ele><time>2026-04-18T12:55:04.122Z</time></trkpt><trkpt lat="44.3189237" lon="7.525307"><ele>781.0</ele><time>2026-04-18T12:55:05.122Z</time></trkpt><trkpt lat="44.3188671" lon="7.5254118"><ele>781.0</ele><time>2026-04-18T12:55:06.121Z</time></trkpt><trkpt lat="44.3188079" lon="7.525469"><ele>781.0</ele><time>2026-04-18T12:55:07.121Z</time></trkpt><trkpt lat="44.318733" lon="7.5254882"><ele>781.8</ele><time>2026-04-18T12:55:08.122Z</time></trkpt><trkpt lat="44.3186486" lon="7.5254565"><ele>782.5999999999999</ele><time>2026-04-18T12:55:09.122Z</time></trkpt><trkpt lat="44.3185763" lon="7.5254036"><ele>783.4</ele><time>2026-04-18T12:55:10.121Z</time></trkpt><trkpt lat="44.3184904" lon="7.5252826"><ele>784.2</ele><time>2026-04-18T12:55:12.122Z</time></trkpt><trkpt lat="44.3184124" lon="7.5251632"><ele>785.0</ele><time>2026-04-18T12:55:13.121Z</time></trkpt><trkpt lat="44.318335" lon="7.5249977"><ele>787.25</ele><time>2026-04-18T12:55:14.122Z</time></trkpt><trkpt lat="44.3182607" lon="7.5248472"><ele>789.5</ele><time>2026-04-18T12:55:15.122Z</time></trkpt><trkpt lat="44.3181745" lon="7.5247239"><ele>791.75</ele><time>2026-04-18T12:55:16.121Z</time></trkpt><trkpt lat="44.3180661" lon="7.5246267"><ele>794.0</ele><time>2026-04-18T12:55:17.122Z</time></trkpt><trkpt lat="44.3179715" lon="7.5245402"><ele>798.5</ele><time>2026-04-18T12:55:18.122Z</time></trkpt><trkpt lat="44.3178559" lon="7.5244897"><ele>803.0</ele><time>2026-04-18T12:55:19.121Z</time></trkpt><trkpt lat="44.3176955" lon="7.5244872"><ele>807.5</ele><time>2026-04-18T12:55:20.122Z</time></trkpt><trkpt lat="44.317557" lon="7.5244746"><ele>812.0</ele><time>2026-04-18T12:55:21.121Z</time></trkpt><trkpt lat="44.3174319" lon="7.5244527"><ele>812.0</ele><time>2026-04-18T12:55:22.122Z</time></trkpt><trkpt lat="44.317326" lon="7.5244167"><ele>812.0</ele><time>2026-04-18T12:55:23.122Z</time></trkpt><trkpt lat="44.3172334" lon="7.52434"><ele>812.0</ele><time>2026-04-18T12:55:24.121Z</time></trkpt><trkpt lat="44.3171805" lon="7.5241331"><ele>812.0</ele><time>2026-04-18T12:55:25.121Z</time></trkpt><trkpt lat="44.3171191" lon="7.5239176"><ele>812.5</ele><time>2026-04-18T12:55:26.122Z</time></trkpt><trkpt lat="44.3170506" lon="7.5237205"><ele>813.0</ele><time>2026-04-18T12:55:27.122Z</time></trkpt><trkpt lat="44.3169991" lon="7.5235672"><ele>813.5</ele><time>2026-04-18T12:55:28.121Z</time></trkpt><trkpt lat="44.3169589" lon="7.5234139"><ele>814.0</ele><time>2026-04-18T12:55:29.121Z</time></trkpt><trkpt lat="44.3169364" lon="7.5232724"><ele>814.0</ele><time>2026-04-18T12:55:30.122Z</time></trkpt><trkpt lat="44.3169148" lon="7.5231299"><ele>814.0</ele><time>2026-04-18T12:55:31.122Z</time></trkpt><trkpt lat="44.3168866" lon="7.5229753"><ele>814.0</ele><time>2026-04-18T12:55:32.122Z</time></trkpt><trkpt lat="44.3168532" lon="7.522827"><ele>814.0</ele><time>2026-04-18T12:55:33.122Z</time></trkpt><trkpt lat="44.3167723" lon="7.5227277"><ele>814.0</ele><time>2026-04-18T12:55:34.122Z</time></trkpt><trkpt lat="44.3167152" lon="7.5226701"><ele>815.0</ele><time>2026-04-18T12:55:35.122Z</time></trkpt><trkpt lat="44.3166306" lon="7.5226255"><ele>816.0</ele><time>2026-04-18T12:55:37.122Z</time></trkpt><trkpt lat="44.3165159" lon="7.5226141"><ele>817.0</ele><time>2026-04-18T12:55:47.122Z</time></trkpt><trkpt lat="44.3164496" lon="7.5225573"><ele>818.0</ele><time>2026-04-18T12:55:48.121Z</time></trkpt><trkpt lat="44.3163767" lon="7.5224938"><ele>819.0</ele><time>2026-04-18T12:55:49.121Z</time></trkpt><trkpt lat="44.3162926" lon="7.5224178"><ele>820.0</ele><time>2026-04-18T12:55:50.122Z</time></trkpt><trkpt lat="44.316209" lon="7.5223402"><ele>821.0</ele><time>2026-04-18T12:55:51.122Z</time></trkpt><trkpt lat="44.3161249" lon="7.5222509"><ele>822.0</ele><time>2026-04-18T12:55:52.122Z</time></trkpt><trkpt lat="44.3160498" lon="7.5221751"><ele>823.0</ele><time>2026-04-18T12:55:53.122Z</time></trkpt><trkpt lat="44.3159683" lon="7.5221206"><ele>824.0</ele><time>2026-04-18T12:55:54.122Z</time></trkpt><trkpt lat="44.3158571" lon="7.5220605"><ele>828.75</ele><time>2026-04-18T12:55:55.122Z</time></trkpt><trkpt lat="44.3157508" lon="7.5219708"><ele>833.5</ele><time>2026-04-18T12:55:56.121Z</time></trkpt><trkpt lat="44.3156814" lon="7.5218585"><ele>838.25</ele><time>2026-04-18T12:55:57.122Z</time></trkpt><trkpt lat="44.3155717" lon="7.521766"><ele>843.0</ele><time>2026-04-18T12:55:58.121Z</time></trkpt><trkpt lat="44.315472" lon="7.5216672"><ele>844.0</ele><time>2026-04-18T12:55:59.122Z</time></trkpt><trkpt lat="44.3153699" lon="7.5215815"><ele>845.0</ele><time>2026-04-18T12:56:00.122Z</time></trkpt><trkpt lat="44.3152589" lon="7.5215199"><ele>846.0</ele><time>2026-04-18T12:56:01.122Z</time></trkpt><trkpt lat="44.3151146" lon="7.5214723"><ele>847.0</ele><time>2026-04-18T12:56:02.122Z</time></trkpt><trkpt lat="44.3149481" lon="7.5214652"><ele>847.0</ele><time>2026-04-18T12:56:03.121Z</time></trkpt><trkpt lat="44.3147842" lon="7.5214524"><ele>847.0</ele><time>2026-04-18T12:56:04.122Z</time></trkpt><trkpt lat="44.3146458" lon="7.5214815"><ele>847.0</ele><time>2026-04-18T12:56:05.121Z</time></trkpt><trkpt lat="44.3145411" lon="7.5214808"><ele>847.0</ele><time>2026-04-18T12:56:06.122Z</time></trkpt><trkpt lat="44.3144437" lon="7.5214433"><ele>848.2</ele><time>2026-04-18T12:56:07.121Z</time></trkpt><trkpt lat="44.3143505" lon="7.5214187"><ele>849.4000000000001</ele><time>2026-04-18T12:56:08.122Z</time></trkpt><trkpt lat="44.3142451" lon="7.5213943"><ele>850.5999999999999</ele><time>2026-04-18T12:56:09.121Z</time></trkpt><trkpt lat="44.31415" lon="7.5213125"><ele>851.8</ele><time>2026-04-18T12:56:10.122Z</time></trkpt><trkpt lat="44.3140574" lon="7.5212507"><ele>853.0</ele><time>2026-04-18T12:56:11.121Z</time></trkpt><trkpt lat="44.313962" lon="7.5212391"><ele>862.2</ele><time>2026-04-18T12:56:12.122Z</time></trkpt><trkpt lat="44.3138639" lon="7.5212095"><ele>871.4</ele><time>2026-04-18T12:56:13.122Z</time></trkpt><trkpt lat="44.3137474" lon="7.5211672"><ele>880.6000000000001</ele><time>2026-04-18T12:56:14.122Z</time></trkpt><trkpt lat="44.3136532" lon="7.5210964"><ele>889.8000000000001</ele><time>2026-04-18T12:56:15.122Z</time></trkpt><trkpt lat="44.3135468" lon="7.5210537"><ele>899.0</ele><time>2026-04-18T12:56:16.121Z</time></trkpt><trkpt lat="44.3134556" lon="7.5209973"><ele>899.0</ele><time>2026-04-18T12:56:17.122Z</time></trkpt><trkpt lat="44.3134065" lon="7.520926"><ele>899.0000000000001</ele><time>2026-04-18T12:56:18.121Z</time></trkpt><trkpt lat="44.3133427" lon="7.5209017"><ele>899.0000000000001</ele><time>2026-04-18T12:56:19.121Z</time></trkpt><trkpt lat="44.3132574" lon="7.5208814"><ele>899.0</ele><time>2026-04-18T12:56:20.122Z</time></trkpt><trkpt lat="44.3131612" lon="7.5208674"><ele>899.0</ele><time>2026-04-18T12:56:21.122Z</time></trkpt><trkpt lat="44.3130462" lon="7.5210084"><ele>902.8000000000001</ele><time>2026-04-18T12:56:22.121Z</time></trkpt><trkpt lat="44.3129829" lon="7.5211032"><ele>906.6000000000001</ele><time>2026-04-18T12:56:23.122Z</time></trkpt><trkpt lat="44.3129331" lon="7.521211"><ele>910.4</ele><time>2026-04-18T12:56:24.121Z</time></trkpt><trkpt lat="44.3129094" lon="7.5213411"><ele>914.2</ele><time>2026-04-18T12:56:25.121Z</time></trkpt><trkpt lat="44.3129729" lon="7.5214901"><ele>918.0</ele><time>2026-04-18T12:56:26.122Z</time></trkpt><trkpt lat="44.3130118" lon="7.521652"><ele>918.0</ele><time>2026-04-18T12:56:27.122Z</time></trkpt><trkpt lat="44.3130642" lon="7.5217937"><ele>918.0</ele><time>2026-04-18T12:56:28.121Z</time></trkpt><trkpt lat="44.3131453" lon="7.5219622"><ele>918.0</ele><time>2026-04-18T12:56:29.121Z</time></trkpt><trkpt lat="44.3132078" lon="7.5221168"><ele>918.0</ele><time>2026-04-18T12:56:30.121Z</time></trkpt><trkpt lat="44.3132619" lon="7.522236"><ele>917.0</ele><time>2026-04-18T12:56:31.122Z</time></trkpt><trkpt lat="44.3133129" lon="7.5223272"><ele>916.0</ele><time>2026-04-18T12:56:32.121Z</time></trkpt><trkpt lat="44.313235" lon="7.5224138"><ele>915.0</ele><time>2026-04-18T12:56:34.122Z</time></trkpt><trkpt lat="44.3131624" lon="7.5224665"><ele>914.0</ele><time>2026-04-18T12:56:35.122Z</time></trkpt><trkpt lat="44.3130859" lon="7.5225038"><ele>913.0</ele><time>2026-04-18T12:56:36.121Z</time></trkpt><trkpt lat="44.3129857" lon="7.5225504"><ele>913.0</ele><time>2026-04-18T12:56:37.121Z</time></trkpt><trkpt lat="44.3128756" lon="7.5225992"><ele>913.0</ele><time>2026-04-18T12:56:38.121Z</time></trkpt><trkpt lat="44.3127736" lon="7.5226238"><ele>913.0</ele><time>2026-04-18T12:56:39.122Z</time></trkpt><trkpt lat="44.3126982" lon="7.5226198"><ele>913.0</ele><time>2026-04-18T12:56:40.122Z</time></trkpt><trkpt lat="44.3126232" lon="7.5226336"><ele>913.0</ele><time>2026-04-18T12:56:41.121Z</time></trkpt><trkpt lat="44.3125258" lon="7.5226023"><ele>912.9999999999999</ele><time>2026-04-18T12:56:43.122Z</time></trkpt><trkpt lat="44.3125071" lon="7.5225096"><ele>913.0</ele><time>2026-04-18T12:56:45.122Z</time></trkpt><trkpt lat="44.312567" lon="7.5224195"><ele>913.0</ele><time>2026-04-18T12:56:47.121Z</time></trkpt><trkpt lat="44.3126269" lon="7.5223653"><ele>913.0</ele><time>2026-04-18T12:56:48.122Z</time></trkpt><trkpt lat="44.3126865" lon="7.5223159"><ele>912.9999999999999</ele><time>2026-04-18T12:56:49.121Z</time></trkpt><trkpt lat="44.3127192" lon="7.5222342"><ele>913.0</ele><time>2026-04-18T12:56:50.121Z</time></trkpt><trkpt lat="44.3126708" lon="7.5220983"><ele>912.9999999999999</ele><time>2026-04-18T12:56:52.122Z</time></trkpt><trkpt lat="44.3126135" lon="7.5220345"><ele>913.0</ele><time>2026-04-18T12:56:53.121Z</time></trkpt><trkpt lat="44.312557" lon="7.5219519"><ele>913.0</ele><time>2026-04-18T12:56:55.122Z</time></trkpt><trkpt lat="44.3124892" lon="7.5219586"><ele>913.0</ele><time>2026-04-18T12:57:04.121Z</time></trkpt><trkpt lat="44.3125396" lon="7.5220189"><ele>912.9999999999999</ele><time>2026-04-18T12:57:10.122Z</time></trkpt><trkpt lat="44.3124602" lon="7.5220857"><ele>913.0</ele><time>2026-04-18T12:57:15.121Z</time></trkpt><trkpt lat="44.3123911" lon="7.5221054"><ele>912.9999999999999</ele><time>2026-04-18T12:57:16.121Z</time></trkpt><trkpt lat="44.3123055" lon="7.5221238"><ele>913.0</ele><time>2026-04-18T12:57:17.121Z</time></trkpt><trkpt lat="44.3122386" lon="7.5221351"><ele>913.0</ele><time>2026-04-18T12:57:18.122Z</time></trkpt><trkpt lat="44.3121769" lon="7.5222093"><ele>913.0</ele><time>2026-04-18T12:57:19.122Z</time></trkpt><trkpt lat="44.3121161" lon="7.5222985"><ele>912.9999999999999</ele><time>2026-04-18T12:57:20.121Z</time></trkpt><trkpt lat="44.3120629" lon="7.5224511"><ele>913.0</ele><time>2026-04-18T12:57:21.122Z</time></trkpt><trkpt lat="44.3120191" lon="7.5226089"><ele>918.75</ele><time>2026-04-18T12:57:22.122Z</time></trkpt><trkpt lat="44.3119873" lon="7.5227789"><ele>924.5</ele><time>2026-04-18T12:57:23.121Z</time></trkpt><trkpt lat="44.3119446" lon="7.5229646"><ele>930.25</ele><time>2026-04-18T12:57:24.122Z</time></trkpt><trkpt lat="44.311939" lon="7.5231543"><ele>936.0</ele><time>2026-04-18T12:57:25.121Z</time></trkpt><trkpt lat="44.3119373" lon="7.5233643"><ele>936.0</ele><time>2026-04-18T12:57:26.121Z</time></trkpt><trkpt lat="44.3119387" lon="7.5235494"><ele>936.0</ele><time>2026-04-18T12:57:27.121Z</time></trkpt><trkpt lat="44.3119528" lon="7.5237341"><ele>936.0</ele><time>2026-04-18T12:57:28.121Z</time></trkpt><trkpt lat="44.3119367" lon="7.5238731"><ele>936.0</ele><time>2026-04-18T12:57:29.122Z</time></trkpt><trkpt lat="44.31194" lon="7.5239911"><ele>932.0</ele><time>2026-04-18T12:57:30.122Z</time></trkpt><trkpt lat="44.3118879" lon="7.5240563"><ele>928.0</ele><time>2026-04-18T12:57:32.122Z</time></trkpt><trkpt lat="44.311767" lon="7.5240771"><ele>924.0</ele><time>2026-04-18T12:57:34.122Z</time></trkpt><trkpt lat="44.3115841" lon="7.5240385"><ele>920.0</ele><time>2026-04-18T12:57:35.122Z</time></trkpt><trkpt lat="44.3114556" lon="7.5240592"><ele>925.75</ele><time>2026-04-18T12:57:36.121Z</time></trkpt><trkpt lat="44.3113315" lon="7.5240755"><ele>931.5</ele><time>2026-04-18T12:57:37.122Z</time></trkpt><trkpt lat="44.3111701" lon="7.524137"><ele>937.25</ele><time>2026-04-18T12:57:38.121Z</time></trkpt><trkpt lat="44.3110434" lon="7.5241866"><ele>943.0</ele><time>2026-04-18T12:57:39.121Z</time></trkpt><trkpt lat="44.3109277" lon="7.5242392"><ele>943.0</ele><time>2026-04-18T12:57:40.122Z</time></trkpt><trkpt lat="44.310843" lon="7.5242839"><ele>943.0</ele><time>2026-04-18T12:57:41.121Z</time></trkpt><trkpt lat="44.3107499" lon="7.5243192"><ele>943.0</ele><time>2026-04-18T12:57:42.122Z</time></trkpt><trkpt lat="44.310686" lon="7.5243359"><ele>943.0</ele><time>2026-04-18T12:57:43.122Z</time></trkpt><trkpt lat="44.3106267" lon="7.5243677"><ele>943.0</ele><time>2026-04-18T12:57:44.121Z</time></trkpt><trkpt lat="44.3104908" lon="7.5244347"><ele>941.6666666666666</ele><time>2026-04-18T12:57:46.122Z</time></trkpt><trkpt lat="44.3103944" lon="7.5244566"><ele>940.3333333333333</ele><time>2026-04-18T12:57:49.122Z</time></trkpt><trkpt lat="44.3103567" lon="7.5245302"><ele>939.0</ele><time>2026-04-18T12:57:51.122Z</time></trkpt><trkpt lat="44.3102949" lon="7.5246146"><ele>937.6666666666667</ele><time>2026-04-18T12:57:54.121Z</time></trkpt><trkpt lat="44.3102647" lon="7.5246925"><ele>936.3333333333334</ele><time>2026-04-18T12:57:55.122Z</time></trkpt><trkpt lat="44.31023" lon="7.5248143"><ele>935.0</ele><time>2026-04-18T12:57:57.122Z</time></trkpt><trkpt lat="44.3101977" lon="7.5249055"><ele>935.0</ele><time>2026-04-18T12:57:59.121Z</time></trkpt><trkpt lat="44.3101442" lon="7.5250524"><ele>935.0</ele><time>2026-04-18T12:58:01.122Z</time></trkpt><trkpt lat="44.3101161" lon="7.5251412"><ele>935.0</ele><time>2026-04-18T12:58:03.121Z</time></trkpt><trkpt lat="44.3101227" lon="7.5252349"><ele>935.0</ele><time>2026-04-18T12:58:07.122Z</time></trkpt><trkpt lat="44.3100986" lon="7.5253715"><ele>935.0</ele><time>2026-04-18T12:58:09.121Z</time></trkpt><trkpt lat="44.3100934" lon="7.5255283"><ele>936.25</ele><time>2026-04-18T12:58:10.122Z</time></trkpt><trkpt lat="44.3100831" lon="7.5256901"><ele>937.5</ele><time>2026-04-18T12:58:11.122Z</time></trkpt><trkpt lat="44.3100392" lon="7.5258619"><ele>938.75</ele><time>2026-04-18T12:58:12.122Z</time></trkpt><trkpt lat="44.3099677" lon="7.5260246"><ele>940.0</ele><time>2026-04-18T12:58:13.122Z</time></trkpt><trkpt lat="44.3099101" lon="7.5261856"><ele>940.0</ele><time>2026-04-18T12:58:14.122Z</time></trkpt><trkpt lat="44.3098594" lon="7.5263179"><ele>940.0</ele><time>2026-04-18T12:58:15.122Z</time></trkpt><trkpt lat="44.3097864" lon="7.526454"><ele>940.0</ele><time>2026-04-18T12:58:16.121Z</time></trkpt><trkpt lat="44.3097049" lon="7.526577"><ele>940.0</ele><time>2026-04-18T12:58:17.121Z</time></trkpt><trkpt lat="44.3096247" lon="7.5266704"><ele>936.8</ele><time>2026-04-18T12:58:18.122Z</time></trkpt><trkpt lat="44.3095536" lon="7.5267875"><ele>933.6</ele><time>2026-04-18T12:58:19.121Z</time></trkpt><trkpt lat="44.3095332" lon="7.5269404"><ele>930.4000000000001</ele><time>2026-04-18T12:58:20.122Z</time></trkpt><trkpt lat="44.3094936" lon="7.5270867"><ele>927.2</ele><time>2026-04-18T12:58:21.121Z</time></trkpt><trkpt lat="44.3094638" lon="7.5272288"><ele>924.0</ele><time>2026-04-18T12:58:22.122Z</time></trkpt><trkpt lat="44.3094476" lon="7.5273948"><ele>924.0</ele><time>2026-04-18T12:58:23.121Z</time></trkpt><trkpt lat="44.3094237" lon="7.5275645"><ele>924.0000000000001</ele><time>2026-04-18T12:58:24.121Z</time></trkpt><trkpt lat="44.3093694" lon="7.5277094"><ele>924.0000000000001</ele><time>2026-04-18T12:58:25.121Z</time></trkpt><trkpt lat="44.3092973" lon="7.5277702"><ele>924.0</ele><time>2026-04-18T12:58:26.122Z</time></trkpt><trkpt lat="44.3091996" lon="7.5278272"><ele>924.0</ele><time>2026-04-18T12:58:27.122Z</time></trkpt><trkpt lat="44.3090844" lon="7.527811"><ele>924.0</ele><time>2026-04-18T12:58:28.121Z</time></trkpt><trkpt lat="44.3089649" lon="7.5277747"><ele>924.0000000000001</ele><time>2026-04-18T12:58:29.121Z</time></trkpt><trkpt lat="44.3088744" lon="7.5277602"><ele>924.0000000000001</ele><time>2026-04-18T12:58:30.122Z</time></trkpt><trkpt lat="44.3087888" lon="7.5277838"><ele>924.0</ele><time>2026-04-18T12:58:31.121Z</time></trkpt><trkpt lat="44.3087188" lon="7.5278501"><ele>924.0</ele><time>2026-04-18T12:58:32.121Z</time></trkpt><trkpt lat="44.3086318" lon="7.5279608"><ele>923.4000000000001</ele><time>2026-04-18T12:58:33.121Z</time></trkpt><trkpt lat="44.3085621" lon="7.5280707"><ele>922.8000000000001</ele><time>2026-04-18T12:58:34.122Z</time></trkpt><trkpt lat="44.3084986" lon="7.528188"><ele>922.1999999999999</ele><time>2026-04-18T12:58:35.122Z</time></trkpt><trkpt lat="44.3084601" lon="7.5283135"><ele>921.5999999999999</ele><time>2026-04-18T12:58:36.121Z</time></trkpt><trkpt lat="44.3084154" lon="7.5284709"><ele>921.0</ele><time>2026-04-18T12:58:37.122Z</time></trkpt><trkpt lat="44.3083632" lon="7.528635"><ele>921.0</ele><time>2026-04-18T12:58:38.121Z</time></trkpt><trkpt lat="44.3083057" lon="7.5287869"><ele>921.0</ele><time>2026-04-18T12:58:39.122Z</time></trkpt><trkpt lat="44.3082297" lon="7.5289069"><ele>921.0</ele><time>2026-04-18T12:58:40.121Z</time></trkpt><trkpt lat="44.3081327" lon="7.5289931"><ele>921.0</ele><time>2026-04-18T12:58:41.122Z</time></trkpt><trkpt lat="44.3080162" lon="7.5290371"><ele>921.0</ele><time>2026-04-18T12:58:42.122Z</time></trkpt><trkpt lat="44.3079024" lon="7.5290391"><ele>920.9999999999999</ele><time>2026-04-18T12:58:43.122Z</time></trkpt><trkpt lat="44.3077894" lon="7.5289732"><ele>920.9999999999999</ele><time>2026-04-18T12:58:44.121Z</time></trkpt><trkpt lat="44.3076928" lon="7.5288943"><ele>921.0</ele><time>2026-04-18T12:58:45.122Z</time></trkpt><trkpt lat="44.3076205" lon="7.5288556"><ele>921.0</ele><time>2026-04-18T12:58:46.122Z</time></trkpt><trkpt lat="44.3075327" lon="7.5288908"><ele>921.0</ele><time>2026-04-18T12:58:48.121Z</time></trkpt><trkpt lat="44.3074516" lon="7.5289904"><ele>921.0</ele><time>2026-04-18T12:58:50.122Z</time></trkpt><trkpt lat="44.3073792" lon="7.5290944"><ele>921.0</ele><time>2026-04-18T12:58:51.121Z</time></trkpt><trkpt lat="44.3072936" lon="7.5292241"><ele>921.0</ele><time>2026-04-18T12:58:52.122Z</time></trkpt><trkpt lat="44.3071911" lon="7.5293629"><ele>919.0</ele><time>2026-04-18T12:58:53.122Z</time></trkpt><trkpt lat="44.3070704" lon="7.5295082"><ele>917.0</ele><time>2026-04-18T12:58:54.121Z</time></trkpt><trkpt lat="44.3069521" lon="7.5296305"><ele>915.0</ele><time>2026-04-18T12:58:55.122Z</time></trkpt><trkpt lat="44.3068482" lon="7.5297269"><ele>913.0</ele><time>2026-04-18T12:58:56.121Z</time></trkpt><trkpt lat="44.3067051" lon="7.5298025"><ele>914.5</ele><time>2026-04-18T12:58:57.122Z</time></trkpt><trkpt lat="44.3065418" lon="7.5298574"><ele>916.0</ele><time>2026-04-18T12:58:58.122Z</time></trkpt><trkpt lat="44.3063884" lon="7.5299117"><ele>917.5</ele><time>2026-04-18T12:58:59.121Z</time></trkpt><trkpt lat="44.3062713" lon="7.5299542"><ele>919.0</ele><time>2026-04-18T12:59:00.121Z</time></trkpt><trkpt lat="44.3061683" lon="7.5300287"><ele>919.0</ele><time>2026-04-18T12:59:01.122Z</time></trkpt><trkpt lat="44.3061389" lon="7.530115"><ele>919.0000000000001</ele><time>2026-04-18T12:59:02.122Z</time></trkpt><trkpt lat="44.3061214" lon="7.5302314"><ele>919.0000000000001</ele><time>2026-04-18T12:59:03.122Z</time></trkpt><trkpt lat="44.3060982" lon="7.5303867"><ele>919.0</ele><time>2026-04-18T12:59:04.121Z</time></trkpt><trkpt lat="44.3060556" lon="7.5305564"><ele>919.0</ele><time>2026-04-18T12:59:05.121Z</time></trkpt><trkpt lat="44.305997" lon="7.5307481"><ele>921.75</ele><time>2026-04-18T12:59:06.121Z</time></trkpt><trkpt lat="44.3059466" lon="7.5309456"><ele>924.5</ele><time>2026-04-18T12:59:07.121Z</time></trkpt><trkpt lat="44.3058949" lon="7.53113"><ele>927.25</ele><time>2026-04-18T12:59:08.121Z</time></trkpt><trkpt lat="44.3058399" lon="7.5312888"><ele>930.0</ele><time>2026-04-18T12:59:09.122Z</time></trkpt><trkpt lat="44.3057738" lon="7.5314627"><ele>931.25</ele><time>2026-04-18T12:59:10.122Z</time></trkpt><trkpt lat="44.3057244" lon="7.5316409"><ele>932.5</ele><time>2026-04-18T12:59:11.122Z</time></trkpt><trkpt lat="44.3056954" lon="7.5318226"><ele>933.75</ele><time>2026-04-18T12:59:12.122Z</time></trkpt><trkpt lat="44.3057077" lon="7.531976"><ele>935.0</ele><time>2026-04-18T12:59:13.121Z</time></trkpt><trkpt lat="44.3057397" lon="7.5321459"><ele>936.5</ele><time>2026-04-18T12:59:14.121Z</time></trkpt><trkpt lat="44.3057729" lon="7.5323176"><ele>938.0</ele><time>2026-04-18T12:59:15.121Z</time></trkpt><trkpt lat="44.3057639" lon="7.5324656"><ele>939.5</ele><time>2026-04-18T12:59:16.121Z</time></trkpt><trkpt lat="44.3057249" lon="7.532604"><ele>941.0</ele><time>2026-04-18T12:59:17.121Z</time></trkpt><trkpt lat="44.305655" lon="7.5327452"><ele>938.75</ele><time>2026-04-18T12:59:18.121Z</time></trkpt><trkpt lat="44.3055663" lon="7.5328448"><ele>936.5</ele><time>2026-04-18T12:59:19.121Z</time></trkpt><trkpt lat="44.3054648" lon="7.5329327"><ele>934.25</ele><time>2026-04-18T12:59:20.122Z</time></trkpt><trkpt lat="44.3053608" lon="7.533014"><ele>932.0</ele><time>2026-04-18T12:59:21.122Z</time></trkpt><trkpt lat="44.3052493" lon="7.5331241"><ele>939.6666666666667</ele><time>2026-04-18T12:59:22.122Z</time></trkpt><trkpt lat="44.3051188" lon="7.5332447"><ele>947.3333333333333</ele><time>2026-04-18T12:59:23.121Z</time></trkpt><trkpt lat="44.3049832" lon="7.5333877"><ele>955.0</ele><time>2026-04-18T12:59:24.122Z</time></trkpt><trkpt lat="44.3048496" lon="7.5335012"><ele>956.4</ele><time>2026-04-18T12:59:25.121Z</time></trkpt><trkpt lat="44.3047436" lon="7.5335844"><ele>957.8</ele><time>2026-04-18T12:59:26.122Z</time></trkpt><trkpt lat="44.3046717" lon="7.5336433"><ele>959.2</ele><time>2026-04-18T12:59:27.122Z</time></trkpt><trkpt lat="44.3046114" lon="7.5337311"><ele>960.6</ele><time>2026-04-18T12:59:28.122Z</time></trkpt><trkpt lat="44.3045501" lon="7.5338422"><ele>962.0</ele><time>2026-04-18T12:59:29.121Z</time></trkpt><trkpt lat="44.3044452" lon="7.5339547"><ele>962.0</ele><time>2026-04-18T12:59:30.122Z</time></trkpt><trkpt lat="44.3043314" lon="7.5340585"><ele>962.0</ele><time>2026-04-18T12:59:31.121Z</time></trkpt><trkpt lat="44.3041915" lon="7.5340914"><ele>962.0</ele><time>2026-04-18T12:59:32.122Z</time></trkpt><trkpt lat="44.3040511" lon="7.5341226"><ele>962.0</ele><time>2026-04-18T12:59:33.122Z</time></trkpt><trkpt lat="44.3039484" lon="7.5341573"><ele>958.4000000000001</ele><time>2026-04-18T12:59:34.121Z</time></trkpt><trkpt lat="44.3038642" lon="7.5341995"><ele>954.8000000000001</ele><time>2026-04-18T12:59:35.121Z</time></trkpt><trkpt lat="44.3037958" lon="7.5342575"><ele>951.2</ele><time>2026-04-18T12:59:36.121Z</time></trkpt><trkpt lat="44.3037278" lon="7.5343368"><ele>947.6</ele><time>2026-04-18T12:59:37.121Z</time></trkpt><trkpt lat="44.3036352" lon="7.5344179"><ele>944.0</ele><time>2026-04-18T12:59:38.122Z</time></trkpt><trkpt lat="44.3035347" lon="7.5345077"><ele>948.5</ele><time>2026-04-18T12:59:39.121Z</time></trkpt><trkpt lat="44.3034139" lon="7.5346257"><ele>953.0</ele><time>2026-04-18T12:59:40.121Z</time></trkpt><trkpt lat="44.3033007" lon="7.5347"><ele>957.5</ele><time>2026-04-18T12:59:41.121Z</time></trkpt><trkpt lat="44.3032125" lon="7.5347748"><ele>962.0</ele><time>2026-04-18T12:59:42.122Z</time></trkpt><trkpt lat="44.3031233" lon="7.534886"><ele>958.75</ele><time>2026-04-18T12:59:43.121Z</time></trkpt><trkpt lat="44.3030388" lon="7.5350282"><ele>955.5</ele><time>2026-04-18T12:59:44.122Z</time></trkpt><trkpt lat="44.30295" lon="7.5351934"><ele>952.25</ele><time>2026-04-18T12:59:45.121Z</time></trkpt><trkpt lat="44.3028787" lon="7.5353121"><ele>949.0</ele><time>2026-04-18T12:59:46.122Z</time></trkpt><trkpt lat="44.3028277" lon="7.5354106"><ele>949.0</ele><time>2026-04-18T12:59:47.122Z</time></trkpt><trkpt lat="44.3027642" lon="7.5355787"><ele>949.0</ele><time>2026-04-18T12:59:48.122Z</time></trkpt><trkpt lat="44.3027082" lon="7.5357601"><ele>949.0</ele><time>2026-04-18T12:59:49.122Z</time></trkpt><trkpt lat="44.3026731" lon="7.5359278"><ele>949.0</ele><time>2026-04-18T12:59:50.122Z</time></trkpt><trkpt lat="44.3026314" lon="7.536077"><ele>949.0</ele><time>2026-04-18T12:59:51.122Z</time></trkpt><trkpt lat="44.3025954" lon="7.5362111"><ele>949.0</ele><time>2026-04-18T12:59:52.122Z</time></trkpt><trkpt lat="44.3025957" lon="7.5363745"><ele>949.0</ele><time>2026-04-18T12:59:53.121Z</time></trkpt><trkpt lat="44.3026116" lon="7.536567"><ele>949.0</ele><time>2026-04-18T12:59:54.122Z</time></trkpt><trkpt lat="44.3026123" lon="7.5367552"><ele>948.5</ele><time>2026-04-18T12:59:55.122Z</time></trkpt><trkpt lat="44.3026203" lon="7.5369409"><ele>948.0</ele><time>2026-04-18T12:59:56.121Z</time></trkpt><trkpt lat="44.3026441" lon="7.5371461"><ele>947.5</ele><time>2026-04-18T12:59:57.121Z</time></trkpt><trkpt lat="44.3026377" lon="7.5373637"><ele>947.0</ele><time>2026-04-18T12:59:58.122Z</time></trkpt><trkpt lat="44.3025986" lon="7.5375707"><ele>946.5</ele><time>2026-04-18T12:59:59.122Z</time></trkpt><trkpt lat="44.3025748" lon="7.5377309"><ele>946.0</ele><time>2026-04-18T13:00:00.122Z</time></trkpt><trkpt lat="44.302555" lon="7.5379024"><ele>945.5</ele><time>2026-04-18T13:00:01.122Z</time></trkpt><trkpt lat="44.3025238" lon="7.5380588"><ele>945.0</ele><time>2026-04-18T13:00:02.122Z</time></trkpt><trkpt lat="44.302462" lon="7.5382202"><ele>945.0</ele><time>2026-04-18T13:00:03.121Z</time></trkpt><trkpt lat="44.3023797" lon="7.5383694"><ele>945.0</ele><time>2026-04-18T13:00:04.122Z</time></trkpt><trkpt lat="44.302301" lon="7.5384679"><ele>945.0</ele><time>2026-04-18T13:00:05.122Z</time></trkpt><trkpt lat="44.3022296" lon="7.5385535"><ele>945.0</ele><time>2026-04-18T13:00:06.121Z</time></trkpt><trkpt lat="44.3021661" lon="7.5386204"><ele>945.0</ele><time>2026-04-18T13:00:07.122Z</time></trkpt><trkpt lat="44.302109" lon="7.5386728"><ele>946.0</ele><time>2026-04-18T13:00:08.122Z</time></trkpt><trkpt lat="44.3020171" lon="7.5387481"><ele>947.0</ele><time>2026-04-18T13:00:10.122Z</time></trkpt><trkpt lat="44.3019684" lon="7.5388486"><ele>948.0</ele><time>2026-04-18T13:00:12.122Z</time></trkpt><trkpt lat="44.301917" lon="7.538942"><ele>949.0</ele><time>2026-04-18T13:00:14.122Z</time></trkpt><trkpt lat="44.3018507" lon="7.5390241"><ele>950.0</ele><time>2026-04-18T13:00:16.121Z</time></trkpt><trkpt lat="44.3017662" lon="7.5390677"><ele>950.0000000000001</ele><time>2026-04-18T13:00:18.121Z</time></trkpt><trkpt lat="44.3018412" lon="7.5390056"><ele>950.0</ele><time>2026-04-18T13:00:24.122Z</time></trkpt><trkpt lat="44.3018868" lon="7.5389376"><ele>950.0</ele><time>2026-04-18T13:00:25.121Z</time></trkpt><trkpt lat="44.3019481" lon="7.5388043"><ele>950.0</ele><time>2026-04-18T13:00:27.122Z</time></trkpt><trkpt lat="44.3020005" lon="7.5387105"><ele>950.0000000000001</ele><time>2026-04-18T13:00:29.122Z</time></trkpt><trkpt lat="44.3020775" lon="7.5386387"><ele>950.0</ele><time>2026-04-18T13:00:31.121Z</time></trkpt><trkpt lat="44.3021522" lon="7.538576"><ele>949.1666666666667</ele><time>2026-04-18T13:00:33.122Z</time></trkpt><trkpt lat="44.3022108" lon="7.5385219"><ele>948.3333333333334</ele><time>2026-04-18T13:00:35.121Z</time></trkpt><trkpt lat="44.3022762" lon="7.538479"><ele>947.5</ele><time>2026-04-18T13:00:45.121Z</time></trkpt><trkpt lat="44.3023499" lon="7.5384664"><ele>946.6666666666667</ele><time>2026-04-18T13:00:48.121Z</time></trkpt><trkpt lat="44.3023446" lon="7.5385638"><ele>945.8333333333334</ele><time>2026-04-18T13:00:51.122Z</time></trkpt><trkpt lat="44.3022639" lon="7.5386414"><ele>945.0</ele><time>2026-04-18T13:00:54.122Z</time></trkpt><trkpt lat="44.3022011" lon="7.538683"><ele>946.25</ele><time>2026-04-18T13:00:56.121Z</time></trkpt><trkpt lat="44.3021209" lon="7.5387706"><ele>947.5</ele><time>2026-04-18T13:00:58.122Z</time></trkpt><trkpt lat="44.3020472" lon="7.5389647"><ele>948.75</ele><time>2026-04-18T13:01:00.121Z</time></trkpt><trkpt lat="44.3020238" lon="7.5390998"><ele>950.0</ele><time>2026-04-18T13:01:01.122Z</time></trkpt><trkpt lat="44.3020112" lon="7.5392279"><ele>950.0</ele><time>2026-04-18T13:01:02.122Z</time></trkpt><trkpt lat="44.301976" lon="7.5393449"><ele>950.0</ele><time>2026-04-18T13:01:03.121Z</time></trkpt><trkpt lat="44.3019095" lon="7.5394441"><ele>950.0</ele><time>2026-04-18T13:01:04.121Z</time></trkpt><trkpt lat="44.3018252" lon="7.5395238"><ele>950.0</ele><time>2026-04-18T13:01:05.122Z</time></trkpt><trkpt lat="44.301741" lon="7.5396068"><ele>950.0</ele><time>2026-04-18T13:01:06.122Z</time></trkpt><trkpt lat="44.3016755" lon="7.5396821"><ele>953.6666666666667</ele><time>2026-04-18T13:01:07.122Z</time></trkpt><trkpt lat="44.3016518" lon="7.5397741"><ele>957.3333333333334</ele><time>2026-04-18T13:01:08.121Z</time></trkpt><trkpt lat="44.3016502" lon="7.5398815"><ele>961.0</ele><time>2026-04-18T13:01:09.122Z</time></trkpt><trkpt lat="44.3016641" lon="7.5399737"><ele>964.6666666666667</ele><time>2026-04-18T13:01:10.122Z</time></trkpt><trkpt lat="44.301751" lon="7.5400209"><ele>968.3333333333334</ele><time>2026-04-18T13:01:12.122Z</time></trkpt><trkpt lat="44.301845" lon="7.5400111"><ele>972.0</ele><time>2026-04-18T13:01:14.121Z</time></trkpt><trkpt lat="44.3019097" lon="7.5400139"><ele>972.0</ele><time>2026-04-18T13:01:15.122Z</time></trkpt><trkpt lat="44.3019818" lon="7.5401262"><ele>972.0</ele><time>2026-04-18T13:01:17.121Z</time></trkpt><trkpt lat="44.3019622" lon="7.5402197"><ele>972.0</ele><time>2026-04-18T13:01:18.121Z</time></trkpt><trkpt lat="44.301903" lon="7.5403175"><ele>972.0</ele><time>2026-04-18T13:01:19.122Z</time></trkpt><trkpt lat="44.3018373" lon="7.5404239"><ele>972.0</ele><time>2026-04-18T13:01:20.122Z</time></trkpt><trkpt lat="44.3017809" lon="7.5405426"><ele>972.4000000000001</ele><time>2026-04-18T13:01:21.122Z</time></trkpt><trkpt lat="44.3017408" lon="7.5406346"><ele>972.8000000000001</ele><time>2026-04-18T13:01:22.122Z</time></trkpt><trkpt lat="44.301661" lon="7.5406397"><ele>973.2</ele><time>2026-04-18T13:01:24.122Z</time></trkpt><trkpt lat="44.301538" lon="7.5406114"><ele>973.6</ele><time>2026-04-18T13:01:26.122Z</time></trkpt><trkpt lat="44.3014503" lon="7.5406606"><ele>974.0</ele><time>2026-04-18T13:01:27.121Z</time></trkpt><trkpt lat="44.3013613" lon="7.5407208"><ele>974.0</ele><time>2026-04-18T13:01:28.121Z</time></trkpt><trkpt lat="44.3012921" lon="7.5407774"><ele>974.0</ele><time>2026-04-18T13:01:29.122Z</time></trkpt><trkpt lat="44.3012393" lon="7.5408356"><ele>974.0</ele><time>2026-04-18T13:01:30.121Z</time></trkpt><trkpt lat="44.3012306" lon="7.540925"><ele>974.0</ele><time>2026-04-18T13:01:31.122Z</time></trkpt><trkpt lat="44.301234" lon="7.5410272"><ele>974.0</ele><time>2026-04-18T13:01:32.121Z</time></trkpt><trkpt lat="44.3012448" lon="7.541135"><ele>974.0</ele><time>2026-04-18T13:01:33.121Z</time></trkpt><trkpt lat="44.3012731" lon="7.541245"><ele>974.0</ele><time>2026-04-18T13:01:34.122Z</time></trkpt><trkpt lat="44.3013008" lon="7.5413733"><ele>978.0</ele><time>2026-04-18T13:01:35.121Z</time></trkpt><trkpt lat="44.3013172" lon="7.5415173"><ele>982.0000000000001</ele><time>2026-04-18T13:01:36.122Z</time></trkpt><trkpt lat="44.3012882" lon="7.5416794"><ele>986.0000000000001</ele><time>2026-04-18T13:01:37.122Z</time></trkpt><trkpt lat="44.3012587" lon="7.5418382"><ele>990.0</ele><time>2026-04-18T13:01:38.122Z</time></trkpt><trkpt lat="44.3012305" lon="7.5419614"><ele>994.0</ele><time>2026-04-18T13:01:39.122Z</time></trkpt><trkpt lat="44.3011979" lon="7.5420748"><ele>997.0</ele><time>2026-04-18T13:01:40.122Z</time></trkpt><trkpt lat="44.3011576" lon="7.5421838"><ele>1000.0000000000001</ele><time>2026-04-18T13:01:41.122Z</time></trkpt><trkpt lat="44.3011244" lon="7.5423306"><ele>1003.0000000000001</ele><time>2026-04-18T13:01:42.122Z</time></trkpt><trkpt lat="44.3010974" lon="7.5424953"><ele>1006.0</ele><time>2026-04-18T13:01:43.122Z</time></trkpt><trkpt lat="44.3010781" lon="7.5426445"><ele>1009.0</ele><time>2026-04-18T13:01:44.122Z</time></trkpt><trkpt lat="44.3010602" lon="7.5427854"><ele>1011.4000000000001</ele><time>2026-04-18T13:01:45.122Z</time></trkpt><trkpt lat="44.3010328" lon="7.542904"><ele>1013.8000000000001</ele><time>2026-04-18T13:01:46.122Z</time></trkpt><trkpt lat="44.3010502" lon="7.5430603"><ele>1016.1999999999999</ele><time>2026-04-18T13:01:48.122Z</time></trkpt><trkpt lat="44.3011069" lon="7.5431343"><ele>1018.5999999999999</ele><time>2026-04-18T13:01:49.121Z</time></trkpt><trkpt lat="44.3011798" lon="7.5432215"><ele>1021.0</ele><time>2026-04-18T13:01:50.122Z</time></trkpt><trkpt lat="44.30123" lon="7.5433238"><ele>1021.0</ele><time>2026-04-18T13:01:51.122Z</time></trkpt><trkpt lat="44.3012417" lon="7.5434422"><ele>1020.9999999999999</ele><time>2026-04-18T13:01:52.121Z</time></trkpt><trkpt lat="44.3012128" lon="7.5435797"><ele>1020.9999999999999</ele><time>2026-04-18T13:01:53.121Z</time></trkpt><trkpt lat="44.3011803" lon="7.543742"><ele>1021.0</ele><time>2026-04-18T13:01:54.122Z</time></trkpt><trkpt lat="44.3011676" lon="7.5439186"><ele>1021.0</ele><time>2026-04-18T13:01:55.122Z</time></trkpt><trkpt lat="44.3011548" lon="7.5441062"><ele>1024.3999999999999</ele><time>2026-04-18T13:01:56.122Z</time></trkpt><trkpt lat="44.3011399" lon="7.5442918"><ele>1027.8</ele><time>2026-04-18T13:01:57.121Z</time></trkpt><trkpt lat="44.3010916" lon="7.5444527"><ele>1031.1999999999998</ele><time>2026-04-18T13:01:58.121Z</time></trkpt><trkpt lat="44.301049" lon="7.5445777"><ele>1034.6</ele><time>2026-04-18T13:01:59.122Z</time></trkpt><trkpt lat="44.3010265" lon="7.5446692"><ele>1038.0</ele><time>2026-04-18T13:02:00.122Z</time></trkpt><trkpt lat="44.3011871" lon="7.5445717"><ele>1038.0</ele><time>2026-04-18T13:03:07.122Z</time></trkpt><trkpt lat="44.3012915" lon="7.5443233"><ele>1038.0</ele><time>2026-04-18T13:03:09.122Z</time></trkpt><trkpt lat="44.3013516" lon="7.5441969"><ele>1038.0</ele><time>2026-04-18T13:03:10.122Z</time></trkpt><trkpt lat="44.3014297" lon="7.5439866"><ele>1038.0</ele><time>2026-04-18T13:03:12.122Z</time></trkpt><trkpt lat="44.301392" lon="7.5443149"><ele>1038.0</ele><time>2026-04-18T13:03:18.121Z</time></trkpt><trkpt lat="44.3013282" lon="7.5447292"><ele>1044.0</ele><time>2026-04-18T13:03:21.122Z</time></trkpt><trkpt lat="44.3012684" lon="7.545022"><ele>1050.0</ele><time>2026-04-18T13:03:23.122Z</time></trkpt><trkpt lat="44.3012186" lon="7.5451472"><ele>1056.0</ele><time>2026-04-18T13:03:24.122Z</time></trkpt><trkpt lat="44.3010026" lon="7.5453024"><ele>1056.0</ele><time>2026-04-18T13:03:26.121Z</time></trkpt><trkpt lat="44.30088" lon="7.5453611"><ele>1056.0</ele><time>2026-04-18T13:03:27.122Z</time></trkpt><trkpt lat="44.3006876" lon="7.545461"><ele>1056.0</ele><time>2026-04-18T13:03:29.122Z</time></trkpt><trkpt lat="44.3006257" lon="7.545545"><ele>1056.0</ele><time>2026-04-18T13:03:30.122Z</time></trkpt><trkpt lat="44.3005849" lon="7.5456715"><ele>1053.0</ele><time>2026-04-18T13:03:31.121Z</time></trkpt><trkpt lat="44.3004983" lon="7.5461481"><ele>1050.0</ele><time>2026-04-18T13:03:34.122Z</time></trkpt><trkpt lat="44.3005525" lon="7.5465294"><ele>1056.5</ele><time>2026-04-18T13:03:37.122Z</time></trkpt><trkpt lat="44.3004641" lon="7.5467034"><ele>1063.0</ele><time>2026-04-18T13:03:39.122Z</time></trkpt><trkpt lat="44.3002392" lon="7.5470489"><ele>1071.0</ele><time>2026-04-18T13:03:42.122Z</time></trkpt><trkpt lat="44.3000895" lon="7.5472347"><ele>1079.0</ele><time>2026-04-18T13:03:44.122Z</time></trkpt><trkpt lat="44.2999084" lon="7.547343"><ele>1087.0</ele><time>2026-04-18T13:03:47.121Z</time></trkpt><trkpt lat="44.2998316" lon="7.5473564"><ele>1087.75</ele><time>2026-04-18T13:03:59.122Z</time></trkpt><trkpt lat="44.2996563" lon="7.5474237"><ele>1088.5</ele><time>2026-04-18T13:04:02.122Z</time></trkpt><trkpt lat="44.2995708" lon="7.5474504"><ele>1089.25</ele><time>2026-04-18T13:04:03.121Z</time></trkpt><trkpt lat="44.2994819" lon="7.5474554"><ele>1090.0</ele><time>2026-04-18T13:04:04.122Z</time></trkpt><trkpt lat="44.2993915" lon="7.5474373"><ele>1090.0</ele><time>2026-04-18T13:04:05.121Z</time></trkpt><trkpt lat="44.299305" lon="7.547396"><ele>1090.0</ele><time>2026-04-18T13:04:06.122Z</time></trkpt><trkpt lat="44.2992225" lon="7.5473382"><ele>1090.0</ele><time>2026-04-18T13:04:07.122Z</time></trkpt><trkpt lat="44.2991431" lon="7.5472808"><ele>1090.0</ele><time>2026-04-18T13:04:08.121Z</time></trkpt><trkpt lat="44.2990667" lon="7.5472326"><ele>1090.0</ele><time>2026-04-18T13:04:09.122Z</time></trkpt><trkpt lat="44.2989166" lon="7.5471879"><ele>1090.6666666666665</ele><time>2026-04-18T13:04:11.121Z</time></trkpt><trkpt lat="44.2988417" lon="7.547183"><ele>1091.3333333333333</ele><time>2026-04-18T13:04:12.121Z</time></trkpt><trkpt lat="44.2987728" lon="7.5471879"><ele>1092.0</ele><time>2026-04-18T13:04:13.122Z</time></trkpt><trkpt lat="44.2987177" lon="7.5473036"><ele>1092.6666666666667</ele><time>2026-04-18T13:04:15.122Z</time></trkpt><trkpt lat="44.2987103" lon="7.5473993"><ele>1093.3333333333335</ele><time>2026-04-18T13:04:16.121Z</time></trkpt><trkpt lat="44.2987153" lon="7.5474935"><ele>1094.0</ele><time>2026-04-18T13:04:17.121Z</time></trkpt><trkpt lat="44.2987059" lon="7.5476038"><ele>1094.0</ele><time>2026-04-18T13:04:18.122Z</time></trkpt><trkpt lat="44.2987043" lon="7.5476962"><ele>1094.0</ele><time>2026-04-18T13:04:19.121Z</time></trkpt><trkpt lat="44.2986389" lon="7.5477342"><ele>1094.0</ele><time>2026-04-18T13:04:21.122Z</time></trkpt><trkpt lat="44.2987019" lon="7.5476388"><ele>1094.0</ele><time>2026-04-18T13:05:51.121Z</time></trkpt><trkpt lat="44.2987596" lon="7.5475569"><ele>1094.0</ele><time>2026-04-18T13:05:53.122Z</time></trkpt><trkpt lat="44.2988188" lon="7.5474981"><ele>1094.0</ele><time>2026-04-18T13:05:55.122Z</time></trkpt><trkpt lat="44.2988863" lon="7.5475341"><ele>1093.2</ele><time>2026-04-18T13:05:57.121Z</time></trkpt><trkpt lat="44.2989426" lon="7.5476442"><ele>1092.4</ele><time>2026-04-18T13:05:59.122Z</time></trkpt><trkpt lat="44.2989786" lon="7.5477358"><ele>1091.6</ele><time>2026-04-18T13:06:01.122Z</time></trkpt><trkpt lat="44.2990294" lon="7.5478759"><ele>1090.8</ele><time>2026-04-18T13:06:03.122Z</time></trkpt><trkpt lat="44.2990842" lon="7.547965"><ele>1090.0</ele><time>2026-04-18T13:06:04.121Z</time></trkpt><trkpt lat="44.2991492" lon="7.5480703"><ele>1095.4</ele><time>2026-04-18T13:06:05.122Z</time></trkpt><trkpt lat="44.2992286" lon="7.5481798"><ele>1100.8</ele><time>2026-04-18T13:06:06.122Z</time></trkpt><trkpt lat="44.2993172" lon="7.5482676"><ele>1106.2</ele><time>2026-04-18T13:06:07.122Z</time></trkpt><trkpt lat="44.2993939" lon="7.5483325"><ele>1111.6</ele><time>2026-04-18T13:06:08.121Z</time></trkpt><trkpt lat="44.2994741" lon="7.5483923"><ele>1117.0</ele><time>2026-04-18T13:06:09.122Z</time></trkpt><trkpt lat="44.2995571" lon="7.5484562"><ele>1117.0</ele><time>2026-04-18T13:06:10.122Z</time></trkpt><trkpt lat="44.2996549" lon="7.5485288"><ele>1117.0</ele><time>2026-04-18T13:06:11.122Z</time></trkpt><trkpt lat="44.2997495" lon="7.5485965"><ele>1117.0</ele><time>2026-04-18T13:06:12.121Z</time></trkpt><trkpt lat="44.2998395" lon="7.5486069"><ele>1117.0</ele><time>2026-04-18T13:06:13.122Z</time></trkpt><trkpt lat="44.2999343" lon="7.5486044"><ele>1117.0</ele><time>2026-04-18T13:06:14.122Z</time></trkpt><trkpt lat="44.3000239" lon="7.5485821"><ele>1117.6</ele><time>2026-04-18T13:06:15.122Z</time></trkpt><trkpt lat="44.3000865" lon="7.5485161"><ele>1118.2</ele><time>2026-04-18T13:06:16.121Z</time></trkpt><trkpt lat="44.3001488" lon="7.5484692"><ele>1118.8</ele><time>2026-04-18T13:06:17.122Z</time></trkpt><trkpt lat="44.3002324" lon="7.5483362"><ele>1119.4</ele><time>2026-04-18T13:06:19.122Z</time></trkpt><trkpt lat="44.3002947" lon="7.5482551"><ele>1120.0</ele><time>2026-04-18T13:06:20.122Z</time></trkpt><trkpt lat="44.3003749" lon="7.5481683"><ele>1120.0</ele><time>2026-04-18T13:06:21.122Z</time></trkpt><trkpt lat="44.3004626" lon="7.5480995"><ele>1120.0</ele><time>2026-04-18T13:06:22.122Z</time></trkpt><trkpt lat="44.3005494" lon="7.5480251"><ele>1120.0</ele><time>2026-04-18T13:06:23.122Z</time></trkpt><trkpt lat="44.3006209" lon="7.5479642"><ele>1120.0</ele><time>2026-04-18T13:06:24.121Z</time></trkpt><trkpt lat="44.300691" lon="7.5478968"><ele>1120.0</ele><time>2026-04-18T13:06:25.122Z</time></trkpt><trkpt lat="44.3007717" lon="7.5478413"><ele>1119.6</ele><time>2026-04-18T13:06:26.122Z</time></trkpt><trkpt lat="44.3008693" lon="7.5477823"><ele>1119.2</ele><time>2026-04-18T13:06:27.121Z</time></trkpt><trkpt lat="44.3009697" lon="7.5477253"><ele>1118.8</ele><time>2026-04-18T13:06:28.121Z</time></trkpt><trkpt lat="44.3010646" lon="7.5476574"><ele>1118.4</ele><time>2026-04-18T13:06:29.122Z</time></trkpt><trkpt lat="44.3011544" lon="7.5475976"><ele>1118.0</ele><time>2026-04-18T13:06:30.121Z</time></trkpt><trkpt lat="44.3012467" lon="7.5475622"><ele>1118.0</ele><time>2026-04-18T13:06:31.121Z</time></trkpt><trkpt lat="44.3013443" lon="7.5475395"><ele>1118.0</ele><time>2026-04-18T13:06:32.122Z</time></trkpt><trkpt lat="44.3014166" lon="7.5475173"><ele>1118.0</ele><time>2026-04-18T13:06:33.122Z</time></trkpt><trkpt lat="44.3015041" lon="7.5475175"><ele>1118.0</ele><time>2026-04-18T13:06:35.122Z</time></trkpt><trkpt lat="44.3014429" lon="7.5476403"><ele>1118.0</ele><time>2026-04-18T13:06:38.122Z</time></trkpt><trkpt lat="44.3014016" lon="7.5477163"><ele>1118.0</ele><time>2026-04-18T13:06:39.122Z</time></trkpt><trkpt lat="44.3013459" lon="7.5478203"><ele>1122.6</ele><time>2026-04-18T13:06:40.122Z</time></trkpt><trkpt lat="44.3012915" lon="7.5479428"><ele>1127.1999999999998</ele><time>2026-04-18T13:06:41.121Z</time></trkpt><trkpt lat="44.301252" lon="7.5480761"><ele>1131.8</ele><time>2026-04-18T13:06:42.121Z</time></trkpt><trkpt lat="44.3012127" lon="7.5482054"><ele>1136.3999999999999</ele><time>2026-04-18T13:06:43.122Z</time></trkpt><trkpt lat="44.3011424" lon="7.5483256"><ele>1141.0</ele><time>2026-04-18T13:06:44.122Z</time></trkpt><trkpt lat="44.3010784" lon="7.5484559"><ele>1141.0</ele><time>2026-04-18T13:06:45.122Z</time></trkpt><trkpt lat="44.3010209" lon="7.5485436"><ele>1141.0</ele><time>2026-04-18T13:06:46.121Z</time></trkpt><trkpt lat="44.3009607" lon="7.5486431"><ele>1141.0</ele><time>2026-04-18T13:06:47.122Z</time></trkpt><trkpt lat="44.3008945" lon="7.5487348"><ele>1141.0</ele><time>2026-04-18T13:06:48.121Z</time></trkpt><trkpt lat="44.3008186" lon="7.5488383"><ele>1141.0</ele><time>2026-04-18T13:06:49.122Z</time></trkpt><trkpt lat="44.3007242" lon="7.5489653"><ele>1141.0</ele><time>2026-04-18T13:06:50.122Z</time></trkpt><trkpt lat="44.3006356" lon="7.5490941"><ele>1141.0</ele><time>2026-04-18T13:06:51.122Z</time></trkpt><trkpt lat="44.3005489" lon="7.54921"><ele>1141.0</ele><time>2026-04-18T13:06:52.122Z</time></trkpt><trkpt lat="44.30047" lon="7.549287"><ele>1141.0</ele><time>2026-04-18T13:06:53.122Z</time></trkpt><trkpt lat="44.3003873" lon="7.5493291"><ele>1141.0</ele><time>2026-04-18T13:06:54.121Z</time></trkpt><trkpt lat="44.3003092" lon="7.5493671"><ele>1141.0</ele><time>2026-04-18T13:06:55.122Z</time></trkpt><trkpt lat="44.3002257" lon="7.5493692"><ele>1141.0</ele><time>2026-04-18T13:06:56.122Z</time></trkpt><trkpt lat="44.3001478" lon="7.549387"><ele>1141.0</ele><time>2026-04-18T13:06:57.122Z</time></trkpt><trkpt lat="44.3000657" lon="7.5494425"><ele>1141.0</ele><time>2026-04-18T13:06:58.121Z</time></trkpt><trkpt lat="44.299969" lon="7.549517"><ele>1141.0</ele><time>2026-04-18T13:06:59.122Z</time></trkpt><trkpt lat="44.2998744" lon="7.5495717"><ele>1140.8333333333333</ele><time>2026-04-18T13:07:00.121Z</time></trkpt><trkpt lat="44.2997695" lon="7.5495874"><ele>1140.6666666666665</ele><time>2026-04-18T13:07:01.122Z</time></trkpt><trkpt lat="44.2996756" lon="7.5495666"><ele>1140.5</ele><time>2026-04-18T13:07:02.121Z</time></trkpt><trkpt lat="44.2996111" lon="7.5495428"><ele>1140.3333333333333</ele><time>2026-04-18T13:07:03.122Z</time></trkpt><trkpt lat="44.2995481" lon="7.5495167"><ele>1140.1666666666667</ele><time>2026-04-18T13:07:04.121Z</time></trkpt><trkpt lat="44.299447" lon="7.5494622"><ele>1140.0</ele><time>2026-04-18T13:07:06.122Z</time></trkpt><trkpt lat="44.2993229" lon="7.5494117"><ele>1140.0</ele><time>2026-04-18T13:07:08.121Z</time></trkpt><trkpt lat="44.2992545" lon="7.5493948"><ele>1140.0</ele><time>2026-04-18T13:07:09.122Z</time></trkpt><trkpt lat="44.2991247" lon="7.5493329"><ele>1140.0</ele><time>2026-04-18T13:07:11.122Z</time></trkpt><trkpt lat="44.2990424" lon="7.5492804"><ele>1140.0</ele><time>2026-04-18T13:07:12.121Z</time></trkpt><trkpt lat="44.2989475" lon="7.5492591"><ele>1140.0</ele><time>2026-04-18T13:07:13.121Z</time></trkpt><trkpt lat="44.2988149" lon="7.549222"><ele>1137.5</ele><time>2026-04-18T13:07:14.121Z</time></trkpt><trkpt lat="44.2986927" lon="7.5491811"><ele>1135.0</ele><time>2026-04-18T13:07:15.121Z</time></trkpt><trkpt lat="44.2985827" lon="7.5491423"><ele>1132.5</ele><time>2026-04-18T13:07:16.122Z</time></trkpt><trkpt lat="44.2984706" lon="7.549123"><ele>1130.0</ele><time>2026-04-18T13:07:17.122Z</time></trkpt><trkpt lat="44.2983578" lon="7.5491153"><ele>1130.0</ele><time>2026-04-18T13:07:18.121Z</time></trkpt><trkpt lat="44.2982343" lon="7.5491168"><ele>1130.0</ele><time>2026-04-18T13:07:19.122Z</time></trkpt><trkpt lat="44.2981256" lon="7.5491191"><ele>1130.0</ele><time>2026-04-18T13:07:20.121Z</time></trkpt><trkpt lat="44.2980257" lon="7.5491119"><ele>1130.0</ele><time>2026-04-18T13:07:21.122Z</time></trkpt><trkpt lat="44.2979123" lon="7.5490873"><ele>1130.0</ele><time>2026-04-18T13:07:22.121Z</time></trkpt><trkpt lat="44.2977952" lon="7.5490596"><ele>1128.8</ele><time>2026-04-18T13:07:23.121Z</time></trkpt><trkpt lat="44.2976784" lon="7.549031"><ele>1127.6</ele><time>2026-04-18T13:07:24.121Z</time></trkpt><trkpt lat="44.2975619" lon="7.5490067"><ele>1126.4</ele><time>2026-04-18T13:07:25.122Z</time></trkpt><trkpt lat="44.2974509" lon="7.5489896"><ele>1125.2</ele><time>2026-04-18T13:07:26.122Z</time></trkpt><trkpt lat="44.2973554" lon="7.5489759"><ele>1124.0</ele><time>2026-04-18T13:07:27.121Z</time></trkpt><trkpt lat="44.2972768" lon="7.5489624"><ele>1125.2</ele><time>2026-04-18T13:07:28.122Z</time></trkpt><trkpt lat="44.297183" lon="7.5489386"><ele>1126.4</ele><time>2026-04-18T13:07:29.121Z</time></trkpt><trkpt lat="44.2970775" lon="7.5489072"><ele>1127.6</ele><time>2026-04-18T13:07:30.121Z</time></trkpt><trkpt lat="44.2969644" lon="7.5489096"><ele>1128.8</ele><time>2026-04-18T13:07:31.121Z</time></trkpt><trkpt lat="44.296856" lon="7.5489344"><ele>1130.0</ele><time>2026-04-18T13:07:32.122Z</time></trkpt><trkpt lat="44.296754" lon="7.5489745"><ele>1130.0</ele><time>2026-04-18T13:07:33.121Z</time></trkpt><trkpt lat="44.2966427" lon="7.5490272"><ele>1130.0</ele><time>2026-04-18T13:07:34.122Z</time></trkpt><trkpt lat="44.2965337" lon="7.5490713"><ele>1130.0</ele><time>2026-04-18T13:07:35.122Z</time></trkpt><trkpt lat="44.2964623" lon="7.5491033"><ele>1130.0</ele><time>2026-04-18T13:07:36.122Z</time></trkpt><trkpt lat="44.2964011" lon="7.5491275"><ele>1130.0</ele><time>2026-04-18T13:07:37.122Z</time></trkpt><trkpt lat="44.2962877" lon="7.5491652"><ele>1130.0</ele><time>2026-04-18T13:07:39.122Z</time></trkpt><trkpt lat="44.2962151" lon="7.5491654"><ele>1130.0</ele><time>2026-04-18T13:07:40.122Z</time></trkpt><trkpt lat="44.2961448" lon="7.5491625"><ele>1130.0</ele><time>2026-04-18T13:07:41.122Z</time></trkpt><trkpt lat="44.2960811" lon="7.5491605"><ele>1130.0</ele><time>2026-04-18T13:07:42.122Z</time></trkpt><trkpt lat="44.2959801" lon="7.5491453"><ele>1130.0</ele><time>2026-04-18T13:07:44.122Z</time></trkpt><trkpt lat="44.2958585" lon="7.5491229"><ele>1130.0</ele><time>2026-04-18T13:07:46.122Z</time></trkpt><trkpt lat="44.2957486" lon="7.5491501"><ele>1130.0</ele><time>2026-04-18T13:07:48.121Z</time></trkpt><trkpt lat="44.2956541" lon="7.5491804"><ele>1130.0</ele><time>2026-04-18T13:07:50.122Z</time></trkpt><trkpt lat="44.2955858" lon="7.549218"><ele>1130.0</ele><time>2026-04-18T13:07:52.122Z</time></trkpt><trkpt lat="44.2954737" lon="7.5492405"><ele>1130.0</ele><time>2026-04-18T13:07:54.122Z</time></trkpt><trkpt lat="44.2953634" lon="7.5492067"><ele>1130.0</ele><time>2026-04-18T13:07:56.122Z</time></trkpt><trkpt lat="44.2952382" lon="7.5491724"><ele>1130.2</ele><time>2026-04-18T13:07:58.122Z</time></trkpt><trkpt lat="44.2951323" lon="7.5491326"><ele>1130.4</ele><time>2026-04-18T13:08:00.122Z</time></trkpt><trkpt lat="44.2950284" lon="7.5490711"><ele>1130.6</ele><time>2026-04-18T13:08:02.122Z</time></trkpt><trkpt lat="44.2949605" lon="7.5490283"><ele>1130.8</ele><time>2026-04-18T13:08:03.121Z</time></trkpt><trkpt lat="44.2949001" lon="7.5489828"><ele>1131.0</ele><time>2026-04-18T13:08:04.122Z</time></trkpt><trkpt lat="44.2948108" lon="7.548819"><ele>1133.25</ele><time>2026-04-18T13:08:06.121Z</time></trkpt><trkpt lat="44.2947034" lon="7.548695"><ele>1135.5</ele><time>2026-04-18T13:08:08.122Z</time></trkpt><trkpt lat="44.2945816" lon="7.5486346"><ele>1137.75</ele><time>2026-04-18T13:08:10.122Z</time></trkpt><trkpt lat="44.2944678" lon="7.5485731"><ele>1140.0</ele><time>2026-04-18T13:08:12.121Z</time></trkpt><trkpt lat="44.2943725" lon="7.5484757"><ele>1140.0</ele><time>2026-04-18T13:08:14.122Z</time></trkpt><trkpt lat="44.2942854" lon="7.5483957"><ele>1140.0</ele><time>2026-04-18T13:08:16.122Z</time></trkpt><trkpt lat="44.2942146" lon="7.5483712"><ele>1140.0</ele><time>2026-04-18T13:08:18.121Z</time></trkpt><trkpt lat="44.2943445" lon="7.5484883"><ele>1140.0</ele><time>2026-04-18T13:08:55.122Z</time></trkpt><trkpt lat="44.2944555" lon="7.548585"><ele>1140.0</ele><time>2026-04-18T13:08:57.122Z</time></trkpt><trkpt lat="44.2945105" lon="7.5486384"><ele>1140.0</ele><time>2026-04-18T13:08:58.121Z</time></trkpt><trkpt lat="44.2946327" lon="7.5487124"><ele>1140.0</ele><time>2026-04-18T13:09:00.122Z</time></trkpt><trkpt lat="44.2947983" lon="7.5488473"><ele>1140.0</ele><time>2026-04-18T13:09:03.122Z</time></trkpt><trkpt lat="44.2948376" lon="7.5489245"><ele>1138.5</ele><time>2026-04-18T13:09:04.122Z</time></trkpt><trkpt lat="44.2948903" lon="7.5489997"><ele>1137.0</ele><time>2026-04-18T13:09:05.122Z</time></trkpt><trkpt lat="44.2949508" lon="7.5490684"><ele>1135.5</ele><time>2026-04-18T13:09:06.121Z</time></trkpt><trkpt lat="44.2950442" lon="7.5491242"><ele>1134.0</ele><time>2026-04-18T13:09:07.122Z</time></trkpt><trkpt lat="44.2951332" lon="7.549161"><ele>1132.5</ele><time>2026-04-18T13:09:08.121Z</time></trkpt><trkpt lat="44.2952269" lon="7.5491846"><ele>1131.0</ele><time>2026-04-18T13:09:09.121Z</time></trkpt><trkpt lat="44.2953202" lon="7.5492256"><ele>1131.0</ele><time>2026-04-18T13:09:10.122Z</time></trkpt><trkpt lat="44.2954144" lon="7.5492417"><ele>1131.0</ele><time>2026-04-18T13:09:11.121Z</time></trkpt><trkpt lat="44.2955158" lon="7.5492285"><ele>1131.0</ele><time>2026-04-18T13:09:12.122Z</time></trkpt><trkpt lat="44.2956059" lon="7.5492083"><ele>1131.0</ele><time>2026-04-18T13:09:13.122Z</time></trkpt><trkpt lat="44.2956897" lon="7.5491893"><ele>1131.0</ele><time>2026-04-18T13:09:14.122Z</time></trkpt><trkpt lat="44.2957635" lon="7.5491612"><ele>1131.0</ele><time>2026-04-18T13:09:15.122Z</time></trkpt><trkpt lat="44.2958375" lon="7.5491573"><ele>1130.8333333333333</ele><time>2026-04-18T13:09:16.122Z</time></trkpt><trkpt lat="44.2959031" lon="7.5491528"><ele>1130.6666666666667</ele><time>2026-04-18T13:09:17.121Z</time></trkpt><trkpt lat="44.2959663" lon="7.5491614"><ele>1130.5</ele><time>2026-04-18T13:09:18.121Z</time></trkpt><trkpt lat="44.2960908" lon="7.5491772"><ele>1130.3333333333335</ele><time>2026-04-18T13:09:20.122Z</time></trkpt><trkpt lat="44.2961603" lon="7.5491784"><ele>1130.1666666666667</ele><time>2026-04-18T13:09:21.122Z</time></trkpt><trkpt lat="44.296244" lon="7.5491554"><ele>1130.0</ele><time>2026-04-18T13:09:22.122Z</time></trkpt><trkpt lat="44.2963278" lon="7.5491403"><ele>1130.0</ele><time>2026-04-18T13:09:23.122Z</time></trkpt><trkpt lat="44.2964129" lon="7.5491215"><ele>1130.0</ele><time>2026-04-18T13:09:24.122Z</time></trkpt><trkpt lat="44.2964853" lon="7.5491002"><ele>1130.0</ele><time>2026-04-18T13:09:25.122Z</time></trkpt><trkpt lat="44.2965692" lon="7.5490785"><ele>1130.0</ele><time>2026-04-18T13:09:26.121Z</time></trkpt><trkpt lat="44.2966481" lon="7.5490464"><ele>1130.0</ele><time>2026-04-18T13:09:27.121Z</time></trkpt><trkpt lat="44.2967413" lon="7.5490111"><ele>1130.0</ele><time>2026-04-18T13:09:28.122Z</time></trkpt><trkpt lat="44.2968252" lon="7.5489805"><ele>1130.0</ele><time>2026-04-18T13:09:29.122Z</time></trkpt><trkpt lat="44.2969053" lon="7.5489488"><ele>1130.0</ele><time>2026-04-18T13:09:30.122Z</time></trkpt><trkpt lat="44.2969892" lon="7.5489194"><ele>1130.0</ele><time>2026-04-18T13:09:31.121Z</time></trkpt><trkpt lat="44.2970752" lon="7.5489165"><ele>1130.0</ele><time>2026-04-18T13:09:32.122Z</time></trkpt><trkpt lat="44.297155" lon="7.5489087"><ele>1130.0</ele><time>2026-04-18T13:09:33.122Z</time></trkpt><trkpt lat="44.2972267" lon="7.5488926"><ele>1130.0</ele><time>2026-04-18T13:09:34.122Z</time></trkpt><trkpt lat="44.2972925" lon="7.548863"><ele>1128.8</ele><time>2026-04-18T13:09:35.122Z</time></trkpt><trkpt lat="44.2973949" lon="7.5487746"><ele>1127.6</ele><time>2026-04-18T13:09:37.122Z</time></trkpt><trkpt lat="44.2974707" lon="7.5486619"><ele>1126.4</ele><time>2026-04-18T13:09:39.121Z</time></trkpt><trkpt lat="44.297535" lon="7.5486019"><ele>1125.2</ele><time>2026-04-18T13:09:41.122Z</time></trkpt><trkpt lat="44.2975693" lon="7.5485002"><ele>1124.0</ele><time>2026-04-18T13:09:54.122Z</time></trkpt><trkpt lat="44.2976452" lon="7.5484929"><ele>1124.0</ele><time>2026-04-18T13:09:57.122Z</time></trkpt><trkpt lat="44.2977139" lon="7.5485853"><ele>1124.0</ele><time>2026-04-18T13:09:58.122Z</time></trkpt><trkpt lat="44.2977887" lon="7.5486843"><ele>1124.0</ele><time>2026-04-18T13:09:59.121Z</time></trkpt><trkpt lat="44.2978559" lon="7.54876"><ele>1124.0</ele><time>2026-04-18T13:10:00.122Z</time></trkpt><trkpt lat="44.2979327" lon="7.5488315"><ele>1124.0</ele><time>2026-04-18T13:10:01.122Z</time></trkpt><trkpt lat="44.2980119" lon="7.548899"><ele>1125.0</ele><time>2026-04-18T13:10:02.122Z</time></trkpt><trkpt lat="44.2980953" lon="7.548955"><ele>1126.0</ele><time>2026-04-18T13:10:03.122Z</time></trkpt><trkpt lat="44.2981798" lon="7.5489971"><ele>1127.0</ele><time>2026-04-18T13:10:04.121Z</time></trkpt><trkpt lat="44.2982616" lon="7.5490294"><ele>1128.0</ele><time>2026-04-18T13:10:05.121Z</time></trkpt><trkpt lat="44.2983389" lon="7.5490643"><ele>1129.0</ele><time>2026-04-18T13:10:06.122Z</time></trkpt><trkpt lat="44.2984141" lon="7.5490907"><ele>1130.0</ele><time>2026-04-18T13:10:07.122Z</time></trkpt><trkpt lat="44.2984792" lon="7.5491221"><ele>1130.0</ele><time>2026-04-18T13:10:08.122Z</time></trkpt><trkpt lat="44.2985418" lon="7.5491436"><ele>1130.0</ele><time>2026-04-18T13:10:09.121Z</time></trkpt><trkpt lat="44.2986282" lon="7.5491716"><ele>1130.0</ele><time>2026-04-18T13:10:10.121Z</time></trkpt><trkpt lat="44.2987359" lon="7.5491976"><ele>1130.0</ele><time>2026-04-18T13:10:11.122Z</time></trkpt><trkpt lat="44.298848" lon="7.5492181"><ele>1130.0</ele><time>2026-04-18T13:10:12.122Z</time></trkpt><trkpt lat="44.2989361" lon="7.5492406"><ele>1132.0</ele><time>2026-04-18T13:10:13.121Z</time></trkpt><trkpt lat="44.2990262" lon="7.5492721"><ele>1134.0</ele><time>2026-04-18T13:10:14.121Z</time></trkpt><trkpt lat="44.2991135" lon="7.549325"><ele>1136.0</ele><time>2026-04-18T13:10:15.122Z</time></trkpt><trkpt lat="44.2992006" lon="7.5493844"><ele>1138.0</ele><time>2026-04-18T13:10:16.121Z</time></trkpt><trkpt lat="44.2993186" lon="7.5494462"><ele>1140.0</ele><time>2026-04-18T13:10:17.121Z</time></trkpt><trkpt lat="44.2994552" lon="7.5494899"><ele>1140.0</ele><time>2026-04-18T13:10:18.121Z</time></trkpt><trkpt lat="44.2995414" lon="7.549519"><ele>1140.0</ele><time>2026-04-18T13:10:19.121Z</time></trkpt><trkpt lat="44.2996935" lon="7.5495592"><ele>1140.0</ele><time>2026-04-18T13:10:21.122Z</time></trkpt><trkpt lat="44.2997794" lon="7.5495501"><ele>1140.0</ele><time>2026-04-18T13:10:22.121Z</time></trkpt><trkpt lat="44.2998665" lon="7.5495204"><ele>1140.0</ele><time>2026-04-18T13:10:23.122Z</time></trkpt><trkpt lat="44.2999587" lon="7.5494611"><ele>1140.2</ele><time>2026-04-18T13:10:24.122Z</time></trkpt><trkpt lat="44.3000564" lon="7.5493944"><ele>1140.4</ele><time>2026-04-18T13:10:25.122Z</time></trkpt><trkpt lat="44.300147" lon="7.5493673"><ele>1140.6</ele><time>2026-04-18T13:10:26.121Z</time></trkpt><trkpt lat="44.3002463" lon="7.5493661"><ele>1140.8</ele><time>2026-04-18T13:10:27.122Z</time></trkpt><trkpt lat="44.3003262" lon="7.5493451"><ele>1141.0</ele><time>2026-04-18T13:10:28.121Z</time></trkpt><trkpt lat="44.3004223" lon="7.5492734"><ele>1141.0</ele><time>2026-04-18T13:10:30.122Z</time></trkpt><trkpt lat="44.300514" lon="7.5491355"><ele>1141.0</ele><time>2026-04-18T13:10:32.122Z</time></trkpt><trkpt lat="44.3005618" lon="7.5490491"><ele>1141.0</ele><time>2026-04-18T13:10:33.122Z</time></trkpt><trkpt lat="44.3006436" lon="7.5489578"><ele>1141.0</ele><time>2026-04-18T13:10:34.122Z</time></trkpt><trkpt lat="44.3007155" lon="7.5488737"><ele>1141.0</ele><time>2026-04-18T13:10:35.122Z</time></trkpt><trkpt lat="44.3007993" lon="7.548817"><ele>1141.0</ele><time>2026-04-18T13:10:36.121Z</time></trkpt><trkpt lat="44.3008633" lon="7.5487267"><ele>1141.0</ele><time>2026-04-18T13:10:37.121Z</time></trkpt><trkpt lat="44.3009097" lon="7.5486304"><ele>1141.0</ele><time>2026-04-18T13:10:38.122Z</time></trkpt><trkpt lat="44.3009574" lon="7.5485332"><ele>1141.0</ele><time>2026-04-18T13:10:39.122Z</time></trkpt><trkpt lat="44.3010031" lon="7.548446"><ele>1141.0</ele><time>2026-04-18T13:10:40.122Z</time></trkpt><trkpt lat="44.3010833" lon="7.5483497"><ele>1141.0</ele><time>2026-04-18T13:10:42.122Z</time></trkpt><trkpt lat="44.3011152" lon="7.5482708"><ele>1141.0</ele><time>2026-04-18T13:10:52.121Z</time></trkpt><trkpt lat="44.3010474" lon="7.5483354"><ele>1141.0</ele><time>2026-04-18T13:11:06.122Z</time></trkpt><trkpt lat="44.3009709" lon="7.548441"><ele>1141.0</ele><time>2026-04-18T13:11:08.122Z</time></trkpt><trkpt lat="44.3009106" lon="7.5485398"><ele>1141.0</ele><time>2026-04-18T13:11:10.122Z</time></trkpt><trkpt lat="44.3008904" lon="7.5486337"><ele>1141.0</ele><time>2026-04-18T13:11:12.122Z</time></trkpt><trkpt lat="44.3008441" lon="7.5487071"><ele>1141.0</ele><time>2026-04-18T13:11:15.122Z</time></trkpt><trkpt lat="44.3007488" lon="7.5488099"><ele>1141.0</ele><time>2026-04-18T13:11:17.121Z</time></trkpt><trkpt lat="44.3007253" lon="7.5488973"><ele>1141.0</ele><time>2026-04-18T13:11:22.122Z</time></trkpt><trkpt lat="44.3007976" lon="7.5488091"><ele>1141.0</ele><time>2026-04-18T13:11:28.122Z</time></trkpt><trkpt lat="44.3008616" lon="7.5486832"><ele>1141.0</ele><time>2026-04-18T13:11:30.122Z</time></trkpt><trkpt lat="44.3009631" lon="7.5486447"><ele>1141.0</ele><time>2026-04-18T13:11:33.122Z</time></trkpt><trkpt lat="44.3010363" lon="7.5486983"><ele>1142.142857142857</ele><time>2026-04-18T13:11:35.122Z</time></trkpt><trkpt lat="44.301083" lon="7.5487624"><ele>1143.2857142857142</ele><time>2026-04-18T13:11:37.122Z</time></trkpt><trkpt lat="44.3011036" lon="7.5488622"><ele>1144.4285714285716</ele><time>2026-04-18T13:11:40.121Z</time></trkpt><trkpt lat="44.3010915" lon="7.5489498"><ele>1145.5714285714284</ele><time>2026-04-18T13:11:45.122Z</time></trkpt><trkpt lat="44.3010394" lon="7.5490005"><ele>1146.7142857142858</ele><time>2026-04-18T13:11:58.121Z</time></trkpt><trkpt lat="44.3009588" lon="7.5490198"><ele>1147.857142857143</ele><time>2026-04-18T13:12:00.122Z</time></trkpt><trkpt lat="44.3008838" lon="7.5490597"><ele>1149.0</ele><time>2026-04-18T13:12:02.121Z</time></trkpt><trkpt lat="44.30082" lon="7.5490796"><ele>1149.0</ele><time>2026-04-18T13:12:04.121Z</time></trkpt><trkpt lat="44.3007466" lon="7.5491313"><ele>1149.0</ele><time>2026-04-18T13:12:07.121Z</time></trkpt><trkpt lat="44.3006679" lon="7.5491881"><ele>1149.0</ele><time>2026-04-18T13:12:09.121Z</time></trkpt><trkpt lat="44.3005667" lon="7.549194"><ele>1149.0</ele><time>2026-04-18T13:12:11.122Z</time></trkpt><trkpt lat="44.3004681" lon="7.5492319"><ele>1149.0</ele><time>2026-04-18T13:12:13.122Z</time></trkpt><trkpt lat="44.3004944" lon="7.549144"><ele>1149.0</ele><time>2026-04-18T13:12:28.122Z</time></trkpt><trkpt lat="44.3005349" lon="7.5490756"><ele>1149.0</ele><time>2026-04-18T13:12:30.122Z</time></trkpt><trkpt lat="44.3005774" lon="7.5490087"><ele>1149.0</ele><time>2026-04-18T13:12:32.121Z</time></trkpt><trkpt lat="44.300617" lon="7.5489267"><ele>1149.0</ele><time>2026-04-18T13:12:35.121Z</time></trkpt><trkpt lat="44.3006729" lon="7.5488241"><ele>1149.0</ele><time>2026-04-18T13:12:37.122Z</time></trkpt><trkpt lat="44.300737" lon="7.5487537"><ele>1149.0</ele><time>2026-04-18T13:12:39.121Z</time></trkpt><trkpt lat="44.3008066" lon="7.5486472"><ele>1149.0</ele><time>2026-04-18T13:12:42.126Z</time></trkpt><trkpt lat="44.3008565" lon="7.5485777"><ele>1147.6666666666667</ele><time>2026-04-18T13:12:44.126Z</time></trkpt><trkpt lat="44.3009012" lon="7.5485074"><ele>1146.3333333333333</ele><time>2026-04-18T13:12:46.126Z</time></trkpt><trkpt lat="44.3009724" lon="7.5484223"><ele>1145.0</ele><time>2026-04-18T13:12:49.126Z</time></trkpt><trkpt lat="44.3010385" lon="7.5483777"><ele>1143.6666666666665</ele><time>2026-04-18T13:12:52.126Z</time></trkpt><trkpt lat="44.3011117" lon="7.5482984"><ele>1142.3333333333333</ele><time>2026-04-18T13:12:55.126Z</time></trkpt><trkpt lat="44.3011683" lon="7.5482305"><ele>1141.0</ele><time>2026-04-18T13:12:57.033Z</time></trkpt><trkpt lat="44.301238" lon="7.5481018"><ele>1141.0</ele><time>2026-04-18T13:12:59.122Z</time></trkpt><trkpt lat="44.3012691" lon="7.5479868"><ele>1141.0</ele><time>2026-04-18T13:13:01.121Z</time></trkpt><trkpt lat="44.3012977" lon="7.5478812"><ele>1141.0</ele><time>2026-04-18T13:13:04.121Z</time></trkpt><trkpt lat="44.3013383" lon="7.5477615"><ele>1141.0</ele><time>2026-04-18T13:13:06.121Z</time></trkpt><trkpt lat="44.3014242" lon="7.547666"><ele>1141.0</ele><time>2026-04-18T13:13:08.121Z</time></trkpt><trkpt lat="44.3014606" lon="7.5475849"><ele>1141.0</ele><time>2026-04-18T13:13:10.121Z</time></trkpt><trkpt lat="44.3014106" lon="7.5475268"><ele>1137.1666666666665</ele><time>2026-04-18T13:13:17.122Z</time></trkpt><trkpt lat="44.3013266" lon="7.5475176"><ele>1133.3333333333333</ele><time>2026-04-18T13:13:19.121Z</time></trkpt><trkpt lat="44.3012548" lon="7.547535"><ele>1129.5</ele><time>2026-04-18T13:13:20.121Z</time></trkpt><trkpt lat="44.3011776" lon="7.5475682"><ele>1125.6666666666667</ele><time>2026-04-18T13:13:21.121Z</time></trkpt><trkpt lat="44.3010978" lon="7.5476022"><ele>1121.8333333333335</ele><time>2026-04-18T13:13:22.122Z</time></trkpt><trkpt lat="44.301016" lon="7.5476617"><ele>1118.0</ele><time>2026-04-18T13:13:23.122Z</time></trkpt><trkpt lat="44.3009537" lon="7.5477277"><ele>1118.0</ele><time>2026-04-18T13:13:24.121Z</time></trkpt><trkpt lat="44.3008916" lon="7.5477742"><ele>1118.0</ele><time>2026-04-18T13:13:25.122Z</time></trkpt><trkpt lat="44.3008143" lon="7.5478071"><ele>1118.0</ele><time>2026-04-18T13:13:26.121Z</time></trkpt><trkpt lat="44.3007398" lon="7.5478419"><ele>1118.0</ele><time>2026-04-18T13:13:27.122Z</time></trkpt><trkpt lat="44.3006768" lon="7.5478847"><ele>1118.0</ele><time>2026-04-18T13:13:28.122Z</time></trkpt><trkpt lat="44.3006118" lon="7.5479575"><ele>1118.0</ele><time>2026-04-18T13:13:29.121Z</time></trkpt><trkpt lat="44.3005329" lon="7.5480195"><ele>1118.4</ele><time>2026-04-18T13:13:30.122Z</time></trkpt><trkpt lat="44.3004422" lon="7.5480986"><ele>1118.8</ele><time>2026-04-18T13:13:31.122Z</time></trkpt><trkpt lat="44.3003576" lon="7.5481697"><ele>1119.2</ele><time>2026-04-18T13:13:32.121Z</time></trkpt><trkpt lat="44.3002939" lon="7.5482406"><ele>1119.6</ele><time>2026-04-18T13:13:33.121Z</time></trkpt><trkpt lat="44.3002331" lon="7.5483006"><ele>1120.0</ele><time>2026-04-18T13:13:34.121Z</time></trkpt><trkpt lat="44.3001542" lon="7.548389"><ele>1120.0</ele><time>2026-04-18T13:13:36.122Z</time></trkpt><trkpt lat="44.3001001" lon="7.5484732"><ele>1120.0</ele><time>2026-04-18T13:13:40.121Z</time></trkpt><trkpt lat="44.300007" lon="7.5485409"><ele>1120.0</ele><time>2026-04-18T13:13:42.121Z</time></trkpt><trkpt lat="44.2999359" lon="7.5485795"><ele>1120.0</ele><time>2026-04-18T13:13:43.121Z</time></trkpt><trkpt lat="44.2998632" lon="7.5486039"><ele>1120.0</ele><time>2026-04-18T13:13:44.121Z</time></trkpt><trkpt lat="44.2997889" lon="7.5485916"><ele>1120.0</ele><time>2026-04-18T13:13:45.122Z</time></trkpt><trkpt lat="44.2997016" lon="7.5485261"><ele>1119.4</ele><time>2026-04-18T13:13:46.122Z</time></trkpt><trkpt lat="44.2996069" lon="7.5484571"><ele>1118.8</ele><time>2026-04-18T13:13:47.122Z</time></trkpt><trkpt lat="44.299535" lon="7.5483966"><ele>1118.2</ele><time>2026-04-18T13:13:48.121Z</time></trkpt><trkpt lat="44.2994619" lon="7.5483344"><ele>1117.6</ele><time>2026-04-18T13:13:49.121Z</time></trkpt><trkpt lat="44.299376" lon="7.5482496"><ele>1117.0</ele><time>2026-04-18T13:13:50.122Z</time></trkpt><trkpt lat="44.2992965" lon="7.5481596"><ele>1117.0</ele><time>2026-04-18T13:13:51.122Z</time></trkpt><trkpt lat="44.2992302" lon="7.5480757"><ele>1117.0</ele><time>2026-04-18T13:13:52.121Z</time></trkpt><trkpt lat="44.2991799" lon="7.5480135"><ele>1117.0</ele><time>2026-04-18T13:13:53.121Z</time></trkpt><trkpt lat="44.2991245" lon="7.5479296"><ele>1117.0</ele><time>2026-04-18T13:13:54.122Z</time></trkpt><trkpt lat="44.2990639" lon="7.5478225"><ele>1117.0</ele><time>2026-04-18T13:13:55.122Z</time></trkpt><trkpt lat="44.2990186" lon="7.54773"><ele>1117.0</ele><time>2026-04-18T13:13:56.122Z</time></trkpt><trkpt lat="44.2989571" lon="7.5476477"><ele>1113.1666666666665</ele><time>2026-04-18T13:13:57.122Z</time></trkpt><trkpt lat="44.2988893" lon="7.5475055"><ele>1109.3333333333333</ele><time>2026-04-18T13:13:59.121Z</time></trkpt><trkpt lat="44.2988274" lon="7.5474569"><ele>1105.5</ele><time>2026-04-18T13:14:01.122Z</time></trkpt><trkpt lat="44.2987386" lon="7.5475371"><ele>1101.6666666666667</ele><time>2026-04-18T13:14:03.122Z</time></trkpt><trkpt lat="44.2986915" lon="7.5476156"><ele>1097.8333333333335</ele><time>2026-04-18T13:14:04.122Z</time></trkpt><trkpt lat="44.2986308" lon="7.547675"><ele>1094.0</ele><time>2026-04-18T13:14:05.122Z</time></trkpt><trkpt lat="44.2985524" lon="7.5477232"><ele>1094.0</ele><time>2026-04-18T13:14:06.121Z</time></trkpt><trkpt lat="44.2984724" lon="7.5477955"><ele>1094.0</ele><time>2026-04-18T13:14:07.122Z</time></trkpt><trkpt lat="44.2983891" lon="7.547873"><ele>1094.0</ele><time>2026-04-18T13:14:08.122Z</time></trkpt><trkpt lat="44.2983271" lon="7.5479533"><ele>1094.0</ele><time>2026-04-18T13:14:09.122Z</time></trkpt><trkpt lat="44.2982647" lon="7.5480335"><ele>1094.0</ele><time>2026-04-18T13:14:10.121Z</time></trkpt><trkpt lat="44.2981953" lon="7.5481291"><ele>1098.0</ele><time>2026-04-18T13:14:11.121Z</time></trkpt><trkpt lat="44.298124" lon="7.5482017"><ele>1102.0</ele><time>2026-04-18T13:14:12.121Z</time></trkpt><trkpt lat="44.2980482" lon="7.54828"><ele>1106.0</ele><time>2026-04-18T13:14:13.122Z</time></trkpt><trkpt lat="44.2979616" lon="7.5483478"><ele>1110.0</ele><time>2026-04-18T13:14:14.122Z</time></trkpt><trkpt lat="44.2978611" lon="7.5484018"><ele>1114.0</ele><time>2026-04-18T13:14:15.122Z</time></trkpt><trkpt lat="44.2977583" lon="7.5484576"><ele>1114.0</ele><time>2026-04-18T13:14:16.121Z</time></trkpt><trkpt lat="44.297671" lon="7.548513"><ele>1114.0</ele><time>2026-04-18T13:14:17.122Z</time></trkpt><trkpt lat="44.2975892" lon="7.5485798"><ele>1114.0</ele><time>2026-04-18T13:14:18.122Z</time></trkpt><trkpt lat="44.2975025" lon="7.5486675"><ele>1114.0</ele><time>2026-04-18T13:14:19.121Z</time></trkpt><trkpt lat="44.2974166" lon="7.5487631"><ele>1114.0</ele><time>2026-04-18T13:14:20.122Z</time></trkpt><trkpt lat="44.2973513" lon="7.5488466"><ele>1116.0</ele><time>2026-04-18T13:14:21.122Z</time></trkpt><trkpt lat="44.29729" lon="7.5489047"><ele>1118.0</ele><time>2026-04-18T13:14:22.122Z</time></trkpt><trkpt lat="44.2971683" lon="7.5489253"><ele>1120.0</ele><time>2026-04-18T13:14:24.122Z</time></trkpt><trkpt lat="44.2970942" lon="7.5489093"><ele>1122.0</ele><time>2026-04-18T13:14:25.122Z</time></trkpt><trkpt lat="44.2970076" lon="7.5488935"><ele>1124.0</ele><time>2026-04-18T13:14:26.121Z</time></trkpt><trkpt lat="44.2969002" lon="7.5489362"><ele>1125.2</ele><time>2026-04-18T13:14:27.122Z</time></trkpt><trkpt lat="44.2967878" lon="7.5489848"><ele>1126.4</ele><time>2026-04-18T13:14:28.122Z</time></trkpt><trkpt lat="44.2966723" lon="7.5490344"><ele>1127.6</ele><time>2026-04-18T13:14:29.122Z</time></trkpt><trkpt lat="44.2965631" lon="7.549072"><ele>1128.8</ele><time>2026-04-18T13:14:30.122Z</time></trkpt><trkpt lat="44.296472" lon="7.5491009"><ele>1130.0</ele><time>2026-04-18T13:14:31.121Z</time></trkpt><trkpt lat="44.2963864" lon="7.5491265"><ele>1130.0</ele><time>2026-04-18T13:14:32.121Z</time></trkpt><trkpt lat="44.2962809" lon="7.5491465"><ele>1130.0</ele><time>2026-04-18T13:14:33.122Z</time></trkpt><trkpt lat="44.2961717" lon="7.5491524"><ele>1130.0</ele><time>2026-04-18T13:14:34.122Z</time></trkpt><trkpt lat="44.296042" lon="7.5491395"><ele>1130.0</ele><time>2026-04-18T13:14:35.121Z</time></trkpt><trkpt lat="44.2959052" lon="7.5491295"><ele>1130.0</ele><time>2026-04-18T13:14:36.122Z</time></trkpt><trkpt lat="44.2957749" lon="7.5491496"><ele>1130.0</ele><time>2026-04-18T13:14:37.122Z</time></trkpt><trkpt lat="44.2956492" lon="7.5491764"><ele>1130.0</ele><time>2026-04-18T13:14:38.122Z</time></trkpt><trkpt lat="44.295503" lon="7.5492015"><ele>1130.0</ele><time>2026-04-18T13:14:39.122Z</time></trkpt><trkpt lat="44.2953919" lon="7.5492172"><ele>1130.2</ele><time>2026-04-18T13:14:40.122Z</time></trkpt><trkpt lat="44.2952981" lon="7.5492189"><ele>1130.4</ele><time>2026-04-18T13:14:41.121Z</time></trkpt><trkpt lat="44.2952032" lon="7.5491874"><ele>1130.6</ele><time>2026-04-18T13:14:42.121Z</time></trkpt><trkpt lat="44.295111" lon="7.5491519"><ele>1130.8</ele><time>2026-04-18T13:14:43.121Z</time></trkpt><trkpt lat="44.2950157" lon="7.5491084"><ele>1131.0</ele><time>2026-04-18T13:14:44.121Z</time></trkpt><trkpt lat="44.2949237" lon="7.5490258"><ele>1131.0</ele><time>2026-04-18T13:14:45.122Z</time></trkpt><trkpt lat="44.294854" lon="7.5489271"><ele>1131.0</ele><time>2026-04-18T13:14:46.121Z</time></trkpt><trkpt lat="44.29479" lon="7.5488243"><ele>1131.0</ele><time>2026-04-18T13:14:47.122Z</time></trkpt><trkpt lat="44.2947103" lon="7.5487526"><ele>1131.0</ele><time>2026-04-18T13:14:48.122Z</time></trkpt><trkpt lat="44.294637" lon="7.5487083"><ele>1131.0</ele><time>2026-04-18T13:14:49.122Z</time></trkpt><trkpt lat="44.2945662" lon="7.5486622"><ele>1131.3333333333333</ele><time>2026-04-18T13:14:50.121Z</time></trkpt><trkpt lat="44.2945001" lon="7.5486069"><ele>1131.6666666666667</ele><time>2026-04-18T13:14:51.122Z</time></trkpt><trkpt lat="44.2944244" lon="7.5485909"><ele>1132.0</ele><time>2026-04-18T13:14:53.122Z</time></trkpt><trkpt lat="44.2944278" lon="7.5486946"><ele>1132.3333333333335</ele><time>2026-04-18T13:14:55.122Z</time></trkpt><trkpt lat="44.2944814" lon="7.5487995"><ele>1132.6666666666667</ele><time>2026-04-18T13:14:57.122Z</time></trkpt><trkpt lat="44.2945334" lon="7.5489028"><ele>1133.0</ele><time>2026-04-18T13:14:58.122Z</time></trkpt><trkpt lat="44.2945878" lon="7.5490157"><ele>1133.0</ele><time>2026-04-18T13:14:59.122Z</time></trkpt><trkpt lat="44.2946495" lon="7.5491154"><ele>1133.0</ele><time>2026-04-18T13:15:00.122Z</time></trkpt><trkpt lat="44.2947064" lon="7.5491876"><ele>1133.0</ele><time>2026-04-18T13:15:01.122Z</time></trkpt><trkpt lat="44.2947744" lon="7.5492757"><ele>1133.0</ele><time>2026-04-18T13:15:02.121Z</time></trkpt><trkpt lat="44.2948416" lon="7.5493772"><ele>1133.0</ele><time>2026-04-18T13:15:03.122Z</time></trkpt><trkpt lat="44.2948975" lon="7.5494774"><ele>1129.5</ele><time>2026-04-18T13:15:04.122Z</time></trkpt><trkpt lat="44.2949532" lon="7.5495724"><ele>1126.0</ele><time>2026-04-18T13:15:05.121Z</time></trkpt><trkpt lat="44.2950083" lon="7.5496556"><ele>1122.5</ele><time>2026-04-18T13:15:06.122Z</time></trkpt><trkpt lat="44.2950684" lon="7.5497271"><ele>1119.0</ele><time>2026-04-18T13:15:07.122Z</time></trkpt><trkpt lat="44.2951359" lon="7.5497997"><ele>1115.5</ele><time>2026-04-18T13:15:08.122Z</time></trkpt><trkpt lat="44.2952199" lon="7.549863"><ele>1112.0</ele><time>2026-04-18T13:15:09.122Z</time></trkpt><trkpt lat="44.295303" lon="7.5499227"><ele>1112.0</ele><time>2026-04-18T13:15:10.122Z</time></trkpt><trkpt lat="44.2953877" lon="7.5499912"><ele>1112.0</ele><time>2026-04-18T13:15:11.121Z</time></trkpt><trkpt lat="44.2954715" lon="7.5500671"><ele>1112.0</ele><time>2026-04-18T13:15:12.121Z</time></trkpt><trkpt lat="44.2955429" lon="7.5501483"><ele>1112.0</ele><time>2026-04-18T13:15:13.122Z</time></trkpt><trkpt lat="44.2956146" lon="7.5502402"><ele>1112.0</ele><time>2026-04-18T13:15:14.122Z</time></trkpt><trkpt lat="44.2956921" lon="7.5503131"><ele>1108.6666666666667</ele><time>2026-04-18T13:15:15.121Z</time></trkpt><trkpt lat="44.2957622" lon="7.5503876"><ele>1105.3333333333335</ele><time>2026-04-18T13:15:16.122Z</time></trkpt><trkpt lat="44.2958411" lon="7.5504361"><ele>1102.0</ele><time>2026-04-18T13:15:17.121Z</time></trkpt><trkpt lat="44.2959276" lon="7.5504917"><ele>1098.6666666666667</ele><time>2026-04-18T13:15:18.122Z</time></trkpt><trkpt lat="44.2960077" lon="7.5505359"><ele>1095.3333333333333</ele><time>2026-04-18T13:15:19.122Z</time></trkpt><trkpt lat="44.2960734" lon="7.55057"><ele>1092.0</ele><time>2026-04-18T13:15:20.122Z</time></trkpt><trkpt lat="44.2961292" lon="7.5506117"><ele>1092.0</ele><time>2026-04-18T13:15:22.122Z</time></trkpt><trkpt lat="44.2962616" lon="7.5506949"><ele>1092.0</ele><time>2026-04-18T13:15:31.122Z</time></trkpt><trkpt lat="44.2963893" lon="7.5507131"><ele>1092.0</ele><time>2026-04-18T13:15:33.122Z</time></trkpt><trkpt lat="44.296568" lon="7.5507657"><ele>1093.0</ele><time>2026-04-18T13:15:36.121Z</time></trkpt><trkpt lat="44.2966326" lon="7.5508006"><ele>1094.0</ele><time>2026-04-18T13:15:37.121Z</time></trkpt><trkpt lat="44.2966975" lon="7.5508536"><ele>1095.0</ele><time>2026-04-18T13:15:38.121Z</time></trkpt><trkpt lat="44.2967558" lon="7.5509112"><ele>1096.0</ele><time>2026-04-18T13:15:39.122Z</time></trkpt><trkpt lat="44.2968017" lon="7.5509929"><ele>1097.0</ele><time>2026-04-18T13:15:40.122Z</time></trkpt><trkpt lat="44.2968488" lon="7.5510757"><ele>1098.0</ele><time>2026-04-18T13:15:41.121Z</time></trkpt><trkpt lat="44.2969041" lon="7.5511533"><ele>1099.0</ele><time>2026-04-18T13:15:42.122Z</time></trkpt><trkpt lat="44.2969523" lon="7.5512414"><ele>1095.5</ele><time>2026-04-18T13:15:43.121Z</time></trkpt><trkpt lat="44.2970009" lon="7.5513374"><ele>1092.0</ele><time>2026-04-18T13:15:44.122Z</time></trkpt><trkpt lat="44.2970423" lon="7.551439"><ele>1088.5</ele><time>2026-04-18T13:15:45.121Z</time></trkpt><trkpt lat="44.2970816" lon="7.5515419"><ele>1085.0</ele><time>2026-04-18T13:15:46.122Z</time></trkpt><trkpt lat="44.2971196" lon="7.5516451"><ele>1081.5</ele><time>2026-04-18T13:15:47.122Z</time></trkpt><trkpt lat="44.2971621" lon="7.5517491"><ele>1078.0</ele><time>2026-04-18T13:15:48.122Z</time></trkpt><trkpt lat="44.297218" lon="7.5518375"><ele>1081.0</ele><time>2026-04-18T13:15:49.122Z</time></trkpt><trkpt lat="44.2972925" lon="7.5518911"><ele>1084.0</ele><time>2026-04-18T13:15:50.122Z</time></trkpt><trkpt lat="44.2973671" lon="7.5519301"><ele>1087.0</ele><time>2026-04-18T13:15:51.122Z</time></trkpt><trkpt lat="44.2974475" lon="7.5519471"><ele>1090.0</ele><time>2026-04-18T13:15:52.121Z</time></trkpt><trkpt lat="44.2975371" lon="7.5519372"><ele>1093.0</ele><time>2026-04-18T13:15:53.122Z</time></trkpt><trkpt lat="44.2976263" lon="7.5519218"><ele>1096.0</ele><time>2026-04-18T13:15:54.122Z</time></trkpt><trkpt lat="44.2977068" lon="7.5519014"><ele>1096.0</ele><time>2026-04-18T13:15:55.122Z</time></trkpt><trkpt lat="44.2977985" lon="7.5518696"><ele>1096.0</ele><time>2026-04-18T13:15:56.121Z</time></trkpt><trkpt lat="44.2978856" lon="7.5518389"><ele>1096.0</ele><time>2026-04-18T13:15:57.121Z</time></trkpt><trkpt lat="44.2979693" lon="7.5518145"><ele>1096.0</ele><time>2026-04-18T13:15:58.122Z</time></trkpt><trkpt lat="44.29804" lon="7.5518201"><ele>1096.0</ele><time>2026-04-18T13:15:59.122Z</time></trkpt><trkpt lat="44.2981084" lon="7.5518301"><ele>1096.0</ele><time>2026-04-18T13:16:00.121Z</time></trkpt><trkpt lat="44.2981595" lon="7.5520146"><ele>1094.2</ele><time>2026-04-18T13:16:02.122Z</time></trkpt><trkpt lat="44.2981506" lon="7.5521363"><ele>1092.3999999999999</ele><time>2026-04-18T13:16:03.121Z</time></trkpt><trkpt lat="44.2981316" lon="7.5522527"><ele>1090.6</ele><time>2026-04-18T13:16:04.122Z</time></trkpt><trkpt lat="44.2980851" lon="7.5523743"><ele>1088.8</ele><time>2026-04-18T13:16:05.122Z</time></trkpt><trkpt lat="44.2980286" lon="7.5524829"><ele>1087.0</ele><time>2026-04-18T13:16:06.122Z</time></trkpt><trkpt lat="44.2979772" lon="7.5526044"><ele>1083.2</ele><time>2026-04-18T13:16:07.122Z</time></trkpt><trkpt lat="44.2979427" lon="7.5527365"><ele>1079.4</ele><time>2026-04-18T13:16:08.122Z</time></trkpt><trkpt lat="44.2979142" lon="7.5528718"><ele>1075.6</ele><time>2026-04-18T13:16:09.122Z</time></trkpt><trkpt lat="44.2978753" lon="7.5530046"><ele>1071.8</ele><time>2026-04-18T13:16:10.122Z</time></trkpt><trkpt lat="44.2978403" lon="7.5531202"><ele>1068.0</ele><time>2026-04-18T13:16:11.122Z</time></trkpt><trkpt lat="44.2978152" lon="7.5532174"><ele>1065.4</ele><time>2026-04-18T13:16:12.122Z</time></trkpt><trkpt lat="44.2978075" lon="7.5533113"><ele>1062.8</ele><time>2026-04-18T13:16:13.122Z</time></trkpt><trkpt lat="44.2978206" lon="7.5534294"><ele>1060.2</ele><time>2026-04-18T13:16:14.121Z</time></trkpt><trkpt lat="44.2978608" lon="7.5535661"><ele>1057.6</ele><time>2026-04-18T13:16:15.122Z</time></trkpt><trkpt lat="44.2979029" lon="7.5537083"><ele>1055.0</ele><time>2026-04-18T13:16:16.122Z</time></trkpt><trkpt lat="44.2979185" lon="7.5538543"><ele>1052.3333333333335</ele><time>2026-04-18T13:16:17.121Z</time></trkpt><trkpt lat="44.2979048" lon="7.5539851"><ele>1049.6666666666667</ele><time>2026-04-18T13:16:18.122Z</time></trkpt><trkpt lat="44.2978732" lon="7.5540962"><ele>1047.0</ele><time>2026-04-18T13:16:19.121Z</time></trkpt><trkpt lat="44.2978391" lon="7.5541963"><ele>1044.3333333333333</ele><time>2026-04-18T13:16:20.121Z</time></trkpt><trkpt lat="44.2978309" lon="7.5542886"><ele>1041.6666666666665</ele><time>2026-04-18T13:16:21.122Z</time></trkpt><trkpt lat="44.2978452" lon="7.5543814"><ele>1039.0</ele><time>2026-04-18T13:16:22.122Z</time></trkpt><trkpt lat="44.2978755" lon="7.5544634"><ele>1039.0</ele><time>2026-04-18T13:16:23.121Z</time></trkpt><trkpt lat="44.2979376" lon="7.5545153"><ele>1039.0</ele><time>2026-04-18T13:16:24.122Z</time></trkpt><trkpt lat="44.2980712" lon="7.5545145"><ele>1039.0</ele><time>2026-04-18T13:16:25.122Z</time></trkpt><trkpt lat="44.2982024" lon="7.5545262"><ele>1039.0</ele><time>2026-04-18T13:16:26.121Z</time></trkpt><trkpt lat="44.2983177" lon="7.5545518"><ele>1036.4</ele><time>2026-04-18T13:16:27.122Z</time></trkpt><trkpt lat="44.2984231" lon="7.5546027"><ele>1033.8000000000002</ele><time>2026-04-18T13:16:28.121Z</time></trkpt><trkpt lat="44.2985137" lon="7.5546857"><ele>1031.1999999999998</ele><time>2026-04-18T13:16:29.122Z</time></trkpt><trkpt lat="44.2985959" lon="7.5547855"><ele>1028.6</ele><time>2026-04-18T13:16:30.122Z</time></trkpt><trkpt lat="44.2986821" lon="7.5548738"><ele>1026.0</ele><time>2026-04-18T13:16:31.121Z</time></trkpt><trkpt lat="44.2987586" lon="7.5549139"><ele>1026.0</ele><time>2026-04-18T13:16:32.122Z</time></trkpt><trkpt lat="44.2988559" lon="7.5548943"><ele>1026.0</ele><time>2026-04-18T13:16:33.122Z</time></trkpt><trkpt lat="44.298947" lon="7.554885"><ele>1026.0</ele><time>2026-04-18T13:16:34.122Z</time></trkpt><trkpt lat="44.2990319" lon="7.5549268"><ele>1026.0</ele><time>2026-04-18T13:16:35.122Z</time></trkpt><trkpt lat="44.2991107" lon="7.5550078"><ele>1026.0</ele><time>2026-04-18T13:16:36.121Z</time></trkpt><trkpt lat="44.2991804" lon="7.5551116"><ele>1025.3999999999999</ele><time>2026-04-18T13:16:37.122Z</time></trkpt><trkpt lat="44.299227" lon="7.5552529"><ele>1024.8</ele><time>2026-04-18T13:16:38.122Z</time></trkpt><trkpt lat="44.299276" lon="7.5553895"><ele>1024.1999999999998</ele><time>2026-04-18T13:16:39.121Z</time></trkpt><trkpt lat="44.2993155" lon="7.555527"><ele>1023.5999999999999</ele><time>2026-04-18T13:16:40.122Z</time></trkpt><trkpt lat="44.2993662" lon="7.5556493"><ele>1023.0</ele><time>2026-04-18T13:16:41.122Z</time></trkpt><trkpt lat="44.2994156" lon="7.5557703"><ele>1020.4</ele><time>2026-04-18T13:16:42.121Z</time></trkpt><trkpt lat="44.2994578" lon="7.555904"><ele>1017.8</ele><time>2026-04-18T13:16:43.122Z</time></trkpt><trkpt lat="44.2995004" lon="7.5560314"><ele>1015.2</ele><time>2026-04-18T13:16:44.121Z</time></trkpt><trkpt lat="44.2995404" lon="7.5561515"><ele>1012.6</ele><time>2026-04-18T13:16:45.122Z</time></trkpt><trkpt lat="44.299592" lon="7.5562587"><ele>1010.0</ele><time>2026-04-18T13:16:46.121Z</time></trkpt><trkpt lat="44.2996542" lon="7.5563701"><ele>1010.1666666666667</ele><time>2026-04-18T13:16:47.122Z</time></trkpt><trkpt lat="44.2997178" lon="7.5564787"><ele>1010.3333333333334</ele><time>2026-04-18T13:16:48.121Z</time></trkpt><trkpt lat="44.2997846" lon="7.5565655"><ele>1010.5</ele><time>2026-04-18T13:16:49.121Z</time></trkpt><trkpt lat="44.299851" lon="7.5566422"><ele>1010.6666666666667</ele><time>2026-04-18T13:16:50.122Z</time></trkpt><trkpt lat="44.299916" lon="7.556692"><ele>1010.8333333333334</ele><time>2026-04-18T13:16:51.122Z</time></trkpt><trkpt lat="44.2999832" lon="7.5567414"><ele>1011.0</ele><time>2026-04-18T13:16:52.122Z</time></trkpt><trkpt lat="44.300045" lon="7.5567965"><ele>1011.0</ele><time>2026-04-18T13:16:53.121Z</time></trkpt><trkpt lat="44.3001045" lon="7.5568603"><ele>1010.9999999999999</ele><time>2026-04-18T13:16:54.122Z</time></trkpt><trkpt lat="44.3001669" lon="7.5569281"><ele>1010.9999999999999</ele><time>2026-04-18T13:16:55.122Z</time></trkpt><trkpt lat="44.3002292" lon="7.5569976"><ele>1011.0</ele><time>2026-04-18T13:16:56.121Z</time></trkpt><trkpt lat="44.300362" lon="7.5571497"><ele>1011.0</ele><time>2026-04-18T13:16:58.121Z</time></trkpt><trkpt lat="44.30042" lon="7.5572249"><ele>1008.75</ele><time>2026-04-18T13:16:59.121Z</time></trkpt><trkpt lat="44.3004968" lon="7.5573574"><ele>1006.5</ele><time>2026-04-18T13:17:01.122Z</time></trkpt><trkpt lat="44.3005375" lon="7.5575548"><ele>1004.25</ele><time>2026-04-18T13:17:03.122Z</time></trkpt><trkpt lat="44.3006564" lon="7.5577329"><ele>1002.0</ele><time>2026-04-18T13:17:05.122Z</time></trkpt><trkpt lat="44.3008007" lon="7.5578782"><ele>999.5</ele><time>2026-04-18T13:17:07.122Z</time></trkpt><trkpt lat="44.3009009" lon="7.5580214"><ele>997.0</ele><time>2026-04-18T13:17:09.122Z</time></trkpt><trkpt lat="44.3009463" lon="7.5582024"><ele>994.5</ele><time>2026-04-18T13:17:11.121Z</time></trkpt><trkpt lat="44.3009323" lon="7.5583921"><ele>992.0</ele><time>2026-04-18T13:17:13.121Z</time></trkpt><trkpt lat="44.3008957" lon="7.5585925"><ele>992.0</ele><time>2026-04-18T13:17:15.121Z</time></trkpt><trkpt lat="44.3009022" lon="7.5586979"><ele>992.0</ele><time>2026-04-18T13:17:19.121Z</time></trkpt><trkpt lat="44.3009955" lon="7.5588922"><ele>992.0</ele><time>2026-04-18T13:17:29.122Z</time></trkpt><trkpt lat="44.3010522" lon="7.5590161"><ele>992.0</ele><time>2026-04-18T13:17:30.122Z</time></trkpt><trkpt lat="44.3010993" lon="7.5591257"><ele>992.0</ele><time>2026-04-18T13:17:31.121Z</time></trkpt><trkpt lat="44.3011453" lon="7.5592088"><ele>990.25</ele><time>2026-04-18T13:17:32.121Z</time></trkpt><trkpt lat="44.301253" lon="7.5593707"><ele>988.5</ele><time>2026-04-18T13:17:34.122Z</time></trkpt><trkpt lat="44.3013446" lon="7.5594893"><ele>986.75</ele><time>2026-04-18T13:17:36.122Z</time></trkpt><trkpt lat="44.3014177" lon="7.5595332"><ele>985.0</ele><time>2026-04-18T13:17:37.122Z</time></trkpt><trkpt lat="44.3015545" lon="7.5595775"><ele>982.25</ele><time>2026-04-18T13:17:39.121Z</time></trkpt><trkpt lat="44.3016223" lon="7.5595781"><ele>979.5</ele><time>2026-04-18T13:17:42.122Z</time></trkpt><trkpt lat="44.3015771" lon="7.5594872"><ele>976.75</ele><time>2026-04-18T13:17:54.099Z</time></trkpt><trkpt lat="44.301489" lon="7.5592663"><ele>974.0</ele><time>2026-04-18T13:17:58.121Z</time></trkpt><trkpt lat="44.301444" lon="7.5590508"><ele>972.25</ele><time>2026-04-18T13:18:00.122Z</time></trkpt><trkpt lat="44.3014182" lon="7.558892"><ele>970.5</ele><time>2026-04-18T13:18:02.122Z</time></trkpt><trkpt lat="44.3013969" lon="7.558752"><ele>968.75</ele><time>2026-04-18T13:18:05.122Z</time></trkpt><trkpt lat="44.3013958" lon="7.5585159"><ele>967.0</ele><time>2026-04-18T13:18:08.122Z</time></trkpt><trkpt lat="44.3014712" lon="7.5584669"><ele>967.0</ele><time>2026-04-18T13:18:12.122Z</time></trkpt><trkpt lat="44.3014582" lon="7.5586158"><ele>967.0</ele><time>2026-04-18T13:18:17.121Z</time></trkpt><trkpt lat="44.3014755" lon="7.5587312"><ele>967.0</ele><time>2026-04-18T13:18:19.121Z</time></trkpt><trkpt lat="44.3015976" lon="7.5589488"><ele>967.0</ele><time>2026-04-18T13:18:22.121Z</time></trkpt><trkpt lat="44.3017433" lon="7.5590162"><ele>967.0</ele><time>2026-04-18T13:18:24.122Z</time></trkpt><trkpt lat="44.3018442" lon="7.559049"><ele>967.0</ele><time>2026-04-18T13:18:26.121Z</time></trkpt><trkpt lat="44.3019885" lon="7.5590848"><ele>967.0</ele><time>2026-04-18T13:18:29.122Z</time></trkpt><trkpt lat="44.302059" lon="7.5591183"><ele>967.0</ele><time>2026-04-18T13:18:32.122Z</time></trkpt><trkpt lat="44.302116" lon="7.5591742"><ele>967.0</ele><time>2026-04-18T13:18:45.029Z</time></trkpt><trkpt lat="44.3022389" lon="7.5591971"><ele>966.9999999999999</ele><time>2026-04-18T13:18:46.122Z</time></trkpt><trkpt lat="44.3023096" lon="7.5592114"><ele>967.0</ele><time>2026-04-18T13:18:47.122Z</time></trkpt><trkpt lat="44.3023767" lon="7.5592114"><ele>967.0</ele><time>2026-04-18T13:18:49.121Z</time></trkpt><trkpt lat="44.3023814" lon="7.5591047"><ele>967.0</ele><time>2026-04-18T13:18:52.122Z</time></trkpt><trkpt lat="44.302275" lon="7.5589579"><ele>966.9999999999999</ele><time>2026-04-18T13:18:54.122Z</time></trkpt><trkpt lat="44.3022096" lon="7.5589118"><ele>967.0</ele><time>2026-04-18T13:18:55.122Z</time></trkpt><trkpt lat="44.3020698" lon="7.558868"><ele>967.0</ele><time>2026-04-18T13:18:57.122Z</time></trkpt><trkpt lat="44.3019243" lon="7.558769"><ele>967.0</ele><time>2026-04-18T13:18:59.121Z</time></trkpt><trkpt lat="44.3019074" lon="7.5586214"><ele>967.0</ele><time>2026-04-18T13:19:01.122Z</time></trkpt><trkpt lat="44.3019721" lon="7.5585218"><ele>967.0</ele><time>2026-04-18T13:19:04.122Z</time></trkpt><trkpt lat="44.3020227" lon="7.5585793"><ele>967.0</ele><time>2026-04-18T13:19:18.122Z</time></trkpt><trkpt lat="44.302089" lon="7.5586322"><ele>965.3333333333333</ele><time>2026-04-18T13:19:20.122Z</time></trkpt><trkpt lat="44.3021861" lon="7.5586457"><ele>963.6666666666666</ele><time>2026-04-18T13:19:22.121Z</time></trkpt><trkpt lat="44.3022752" lon="7.5586507"><ele>962.0</ele><time>2026-04-18T13:19:24.122Z</time></trkpt><trkpt lat="44.3023513" lon="7.5586408"><ele>960.3333333333333</ele><time>2026-04-18T13:19:25.121Z</time></trkpt><trkpt lat="44.302425" lon="7.558646"><ele>958.6666666666666</ele><time>2026-04-18T13:19:26.122Z</time></trkpt><trkpt lat="44.3024896" lon="7.5586234"><ele>957.0</ele><time>2026-04-18T13:19:27.121Z</time></trkpt><trkpt lat="44.3025566" lon="7.5585791"><ele>950.0</ele><time>2026-04-18T13:19:28.122Z</time></trkpt><trkpt lat="44.3026531" lon="7.5585428"><ele>943.0</ele><time>2026-04-18T13:19:30.122Z</time></trkpt><trkpt lat="44.302715" lon="7.5585256"><ele>936.0</ele><time>2026-04-18T13:19:31.122Z</time></trkpt><trkpt lat="44.3027836" lon="7.5585285"><ele>929.0</ele><time>2026-04-18T13:19:32.121Z</time></trkpt><trkpt lat="44.3028574" lon="7.558534"><ele>922.0</ele><time>2026-04-18T13:19:33.122Z</time></trkpt><trkpt lat="44.3029326" lon="7.5585533"><ele>915.0</ele><time>2026-04-18T13:19:34.122Z</time></trkpt><trkpt lat="44.303003" lon="7.5586298"><ele>912.0</ele><time>2026-04-18T13:19:35.122Z</time></trkpt><trkpt lat="44.3030859" lon="7.5586848"><ele>909.0</ele><time>2026-04-18T13:19:36.122Z</time></trkpt><trkpt lat="44.3031493" lon="7.5587261"><ele>906.0</ele><time>2026-04-18T13:19:37.122Z</time></trkpt><trkpt lat="44.3032263" lon="7.5587614"><ele>903.0</ele><time>2026-04-18T13:19:38.122Z</time></trkpt><trkpt lat="44.3033064" lon="7.5588156"><ele>900.0</ele><time>2026-04-18T13:19:39.121Z</time></trkpt><trkpt lat="44.3033716" lon="7.5588653"><ele>897.0</ele><time>2026-04-18T13:19:40.121Z</time></trkpt><trkpt lat="44.303439" lon="7.558908"><ele>897.0</ele><time>2026-04-18T13:19:41.121Z</time></trkpt><trkpt lat="44.3035165" lon="7.5589605"><ele>897.0</ele><time>2026-04-18T13:19:42.121Z</time></trkpt><trkpt lat="44.303589" lon="7.5590093"><ele>897.0</ele><time>2026-04-18T13:19:43.121Z</time></trkpt><trkpt lat="44.3036583" lon="7.5590625"><ele>897.0</ele><time>2026-04-18T13:19:44.122Z</time></trkpt><trkpt lat="44.3037327" lon="7.55913"><ele>897.0</ele><time>2026-04-18T13:19:45.122Z</time></trkpt><trkpt lat="44.3037952" lon="7.5591956"><ele>897.0</ele><time>2026-04-18T13:19:46.122Z</time></trkpt><trkpt lat="44.3038493" lon="7.5592617"><ele>897.0</ele><time>2026-04-18T13:19:47.122Z</time></trkpt><trkpt lat="44.3039031" lon="7.5593253"><ele>897.0</ele><time>2026-04-18T13:19:48.122Z</time></trkpt><trkpt lat="44.3039451" lon="7.5594001"><ele>897.0</ele><time>2026-04-18T13:19:50.121Z</time></trkpt><trkpt lat="44.3038836" lon="7.5594462"><ele>897.0</ele><time>2026-04-18T13:19:52.122Z</time></trkpt><trkpt lat="44.3037585" lon="7.5595264"><ele>897.0</ele><time>2026-04-18T13:19:54.122Z</time></trkpt><trkpt lat="44.3036963" lon="7.5595774"><ele>897.0</ele><time>2026-04-18T13:19:55.121Z</time></trkpt><trkpt lat="44.3036321" lon="7.5596245"><ele>894.5</ele><time>2026-04-18T13:19:56.121Z</time></trkpt><trkpt lat="44.3035717" lon="7.559685"><ele>892.0</ele><time>2026-04-18T13:19:57.121Z</time></trkpt><trkpt lat="44.3035113" lon="7.5597287"><ele>889.5</ele><time>2026-04-18T13:19:58.122Z</time></trkpt><trkpt lat="44.303454" lon="7.5597977"><ele>887.0</ele><time>2026-04-18T13:19:59.122Z</time></trkpt><trkpt lat="44.3033649" lon="7.5598999"><ele>884.5</ele><time>2026-04-18T13:20:01.122Z</time></trkpt><trkpt lat="44.3032942" lon="7.559966"><ele>882.0</ele><time>2026-04-18T13:20:04.121Z</time></trkpt><trkpt lat="44.3033555" lon="7.5600578"><ele>882.0</ele><time>2026-04-18T13:20:22.122Z</time></trkpt><trkpt lat="44.3034167" lon="7.560173"><ele>882.0</ele><time>2026-04-18T13:20:24.122Z</time></trkpt><trkpt lat="44.3034644" lon="7.5602358"><ele>882.0</ele><time>2026-04-18T13:20:25.121Z</time></trkpt><trkpt lat="44.3035331" lon="7.5603001"><ele>882.0</ele><time>2026-04-18T13:20:26.122Z</time></trkpt><trkpt lat="44.3035792" lon="7.5603854"><ele>882.0</ele><time>2026-04-18T13:20:27.122Z</time></trkpt><trkpt lat="44.30363" lon="7.5604754"><ele>882.0</ele><time>2026-04-18T13:20:28.122Z</time></trkpt><trkpt lat="44.3036767" lon="7.5605679"><ele>882.8333333333334</ele><time>2026-04-18T13:20:29.121Z</time></trkpt><trkpt lat="44.3037266" lon="7.5606543"><ele>883.6666666666667</ele><time>2026-04-18T13:20:30.122Z</time></trkpt><trkpt lat="44.3037661" lon="7.5607289"><ele>884.5</ele><time>2026-04-18T13:20:31.122Z</time></trkpt><trkpt lat="44.3038328" lon="7.5608128"><ele>885.3333333333334</ele><time>2026-04-18T13:20:32.122Z</time></trkpt><trkpt lat="44.3039144" lon="7.5609051"><ele>886.1666666666667</ele><time>2026-04-18T13:20:33.122Z</time></trkpt><trkpt lat="44.3039855" lon="7.5609898"><ele>887.0</ele><time>2026-04-18T13:20:34.121Z</time></trkpt><trkpt lat="44.3040532" lon="7.5610651"><ele>881.1666666666667</ele><time>2026-04-18T13:20:35.121Z</time></trkpt><trkpt lat="44.3041042" lon="7.5611346"><ele>875.3333333333334</ele><time>2026-04-18T13:20:36.121Z</time></trkpt><trkpt lat="44.3041343" lon="7.5612198"><ele>869.5</ele><time>2026-04-18T13:20:37.121Z</time></trkpt><trkpt lat="44.3041405" lon="7.5613165"><ele>863.6666666666667</ele><time>2026-04-18T13:20:38.122Z</time></trkpt><trkpt lat="44.3041518" lon="7.5614403"><ele>857.8333333333334</ele><time>2026-04-18T13:20:40.122Z</time></trkpt><trkpt lat="44.3041436" lon="7.5615332"><ele>852.0</ele><time>2026-04-18T13:20:44.122Z</time></trkpt><trkpt lat="44.3041488" lon="7.561412"><ele>852.0</ele><time>2026-04-18T13:21:14.122Z</time></trkpt><trkpt lat="44.3041474" lon="7.5613134"><ele>852.0</ele><time>2026-04-18T13:21:17.114Z</time></trkpt><trkpt lat="44.3041569" lon="7.5612193"><ele>852.0</ele><time>2026-04-18T13:23:05.122Z</time></trkpt><trkpt lat="44.3041383" lon="7.5611249"><ele>852.0</ele><time>2026-04-18T13:23:09.139Z</time></trkpt><trkpt lat="44.3041034" lon="7.5610048"><ele>852.0</ele><time>2026-04-18T13:23:11.242Z</time></trkpt><trkpt lat="44.3040728" lon="7.5609078"><ele>852.0</ele><time>2026-04-18T13:23:15.636Z</time></trkpt><trkpt lat="44.3040287" lon="7.5608239"><ele>851.6666666666666</ele><time>2026-04-18T13:23:18.122Z</time></trkpt><trkpt lat="44.3040595" lon="7.5606621"><ele>851.3333333333333</ele><time>2026-04-18T13:26:10.127Z</time></trkpt><trkpt lat="44.3040728" lon="7.5605647"><ele>851.0</ele><time>2026-04-18T13:26:13.127Z</time></trkpt><trkpt lat="44.3040646" lon="7.5604769"><ele>850.6666666666666</ele><time>2026-04-18T13:26:15.128Z</time></trkpt><trkpt lat="44.3040649" lon="7.5603687"><ele>850.3333333333333</ele><time>2026-04-18T13:26:17.128Z</time></trkpt><trkpt lat="44.3041303" lon="7.5603152"><ele>850.0</ele><time>2026-04-18T13:26:22.148Z</time></trkpt><trkpt lat="44.3042153" lon="7.560274"><ele>850.0</ele><time>2026-04-18T13:26:25.147Z</time></trkpt><trkpt lat="44.3043541" lon="7.5602557"><ele>850.0</ele><time>2026-04-18T13:26:39.121Z</time></trkpt><trkpt lat="44.3044188" lon="7.5602559"><ele>850.0</ele><time>2026-04-18T13:26:43.133Z</time></trkpt><trkpt lat="44.3045112" lon="7.5602285"><ele>850.0</ele><time>2026-04-18T13:26:52.122Z</time></trkpt><trkpt lat="44.3046117" lon="7.5602768"><ele>850.0</ele><time>2026-04-18T13:26:54.121Z</time></trkpt><trkpt lat="44.3046966" lon="7.5603224"><ele>843.3333333333333</ele><time>2026-04-18T13:26:55.122Z</time></trkpt><trkpt lat="44.304776" lon="7.5603674"><ele>836.6666666666666</ele><time>2026-04-18T13:26:56.122Z</time></trkpt><trkpt lat="44.3048654" lon="7.5604083"><ele>830.0</ele><time>2026-04-18T13:26:57.122Z</time></trkpt><trkpt lat="44.3049449" lon="7.5604455"><ele>823.3333333333333</ele><time>2026-04-18T13:26:58.122Z</time></trkpt><trkpt lat="44.3050227" lon="7.5604785"><ele>816.6666666666666</ele><time>2026-04-18T13:26:59.122Z</time></trkpt><trkpt lat="44.3051195" lon="7.5605171"><ele>810.0</ele><time>2026-04-18T13:27:00.121Z</time></trkpt><trkpt lat="44.3052066" lon="7.5605536"><ele>810.0</ele><time>2026-04-18T13:27:01.121Z</time></trkpt><trkpt lat="44.3053431" lon="7.5605856"><ele>810.0</ele><time>2026-04-18T13:27:03.121Z</time></trkpt><trkpt lat="44.3054113" lon="7.5605349"><ele>810.0</ele><time>2026-04-18T13:27:04.121Z</time></trkpt><trkpt lat="44.3054899" lon="7.5604299"><ele>810.0</ele><time>2026-04-18T13:27:05.121Z</time></trkpt><trkpt lat="44.3055794" lon="7.5603753"><ele>810.0</ele><time>2026-04-18T13:27:06.121Z</time></trkpt><trkpt lat="44.3056675" lon="7.5603347"><ele>807.2</ele><time>2026-04-18T13:27:07.121Z</time></trkpt><trkpt lat="44.3057434" lon="7.5603008"><ele>804.4</ele><time>2026-04-18T13:27:08.121Z</time></trkpt><trkpt lat="44.3058103" lon="7.5602065"><ele>801.5999999999999</ele><time>2026-04-18T13:27:10.122Z</time></trkpt><trkpt lat="44.3058186" lon="7.5600183"><ele>798.8</ele><time>2026-04-18T13:27:12.121Z</time></trkpt><trkpt lat="44.3057792" lon="7.5598997"><ele>796.0</ele><time>2026-04-18T13:27:13.122Z</time></trkpt><trkpt lat="44.3057511" lon="7.5597804"><ele>796.0</ele><time>2026-04-18T13:27:14.122Z</time></trkpt><trkpt lat="44.3057263" lon="7.5596654"><ele>796.0</ele><time>2026-04-18T13:27:15.121Z</time></trkpt><trkpt lat="44.3056877" lon="7.5595463"><ele>796.0</ele><time>2026-04-18T13:27:16.121Z</time></trkpt><trkpt lat="44.3056451" lon="7.5594232"><ele>796.0</ele><time>2026-04-18T13:27:17.121Z</time></trkpt><trkpt lat="44.3055954" lon="7.5593123"><ele>796.0</ele><time>2026-04-18T13:27:18.122Z</time></trkpt><trkpt lat="44.3055562" lon="7.559187"><ele>797.0</ele><time>2026-04-18T13:27:19.121Z</time></trkpt><trkpt lat="44.3055078" lon="7.559078"><ele>798.0</ele><time>2026-04-18T13:27:20.122Z</time></trkpt><trkpt lat="44.3054644" lon="7.5589537"><ele>799.0</ele><time>2026-04-18T13:27:21.122Z</time></trkpt><trkpt lat="44.3054426" lon="7.5588588"><ele>800.0</ele><time>2026-04-18T13:27:22.122Z</time></trkpt><trkpt lat="44.3054073" lon="7.5587436"><ele>801.0</ele><time>2026-04-18T13:27:26.122Z</time></trkpt><trkpt lat="44.3053725" lon="7.5586056"><ele>801.0</ele><time>2026-04-18T13:27:28.121Z</time></trkpt><trkpt lat="44.3054765" lon="7.5586864"><ele>801.0</ele><time>2026-04-18T13:27:32.122Z</time></trkpt><trkpt lat="44.305567" lon="7.5587664"><ele>801.0</ele><time>2026-04-18T13:27:33.121Z</time></trkpt><trkpt lat="44.3056452" lon="7.5588518"><ele>801.0</ele><time>2026-04-18T13:27:34.122Z</time></trkpt><trkpt lat="44.3057114" lon="7.5589256"><ele>801.0</ele><time>2026-04-18T13:27:35.121Z</time></trkpt><trkpt lat="44.305785" lon="7.5589974"><ele>797.5999999999999</ele><time>2026-04-18T13:27:36.122Z</time></trkpt><trkpt lat="44.3058666" lon="7.559081"><ele>794.2</ele><time>2026-04-18T13:27:37.122Z</time></trkpt><trkpt lat="44.3059474" lon="7.5591842"><ele>790.8</ele><time>2026-04-18T13:27:38.121Z</time></trkpt><trkpt lat="44.3060199" lon="7.5592692"><ele>787.4000000000001</ele><time>2026-04-18T13:27:39.121Z</time></trkpt><trkpt lat="44.3060776" lon="7.5593354"><ele>784.0</ele><time>2026-04-18T13:27:40.122Z</time></trkpt><trkpt lat="44.3061492" lon="7.5593715"><ele>783.9999999999999</ele><time>2026-04-18T13:27:41.121Z</time></trkpt><trkpt lat="44.3062253" lon="7.5594055"><ele>784.0</ele><time>2026-04-18T13:27:42.122Z</time></trkpt><trkpt lat="44.3062934" lon="7.5594531"><ele>784.0</ele><time>2026-04-18T13:27:43.122Z</time></trkpt><trkpt lat="44.3063524" lon="7.5594912"><ele>784.0</ele><time>2026-04-18T13:27:44.122Z</time></trkpt><trkpt lat="44.3064212" lon="7.559504"><ele>783.9999999999999</ele><time>2026-04-18T13:27:45.121Z</time></trkpt><trkpt lat="44.3065276" lon="7.5595121"><ele>784.0</ele><time>2026-04-18T13:27:47.122Z</time></trkpt><trkpt lat="44.3065968" lon="7.5595798"><ele>779.8000000000001</ele><time>2026-04-18T13:27:49.122Z</time></trkpt><trkpt lat="44.3066661" lon="7.5596416"><ele>775.6</ele><time>2026-04-18T13:27:50.122Z</time></trkpt><trkpt lat="44.3067495" lon="7.5597645"><ele>771.4</ele><time>2026-04-18T13:27:51.121Z</time></trkpt><trkpt lat="44.3068073" lon="7.5599047"><ele>767.2</ele><time>2026-04-18T13:27:52.122Z</time></trkpt><trkpt lat="44.3068437" lon="7.5600328"><ele>763.0</ele><time>2026-04-18T13:27:53.122Z</time></trkpt><trkpt lat="44.3068849" lon="7.5601604"><ele>763.0</ele><time>2026-04-18T13:27:54.122Z</time></trkpt><trkpt lat="44.3069238" lon="7.5602572"><ele>763.0</ele><time>2026-04-18T13:27:55.122Z</time></trkpt><trkpt lat="44.3069648" lon="7.560402"><ele>763.0</ele><time>2026-04-18T13:27:56.122Z</time></trkpt><trkpt lat="44.3070101" lon="7.5605545"><ele>763.0</ele><time>2026-04-18T13:27:57.12Z</time></trkpt><trkpt lat="44.3070457" lon="7.5607298"><ele>763.0</ele><time>2026-04-18T13:27:58.122Z</time></trkpt><trkpt lat="44.3070754" lon="7.5609023"><ele>761.5999999999999</ele><time>2026-04-18T13:27:59.122Z</time></trkpt><trkpt lat="44.3071162" lon="7.5610488"><ele>760.1999999999999</ele><time>2026-04-18T13:28:00.122Z</time></trkpt><trkpt lat="44.3071479" lon="7.5611833"><ele>758.8</ele><time>2026-04-18T13:28:01.121Z</time></trkpt><trkpt lat="44.3071707" lon="7.5613371"><ele>757.4</ele><time>2026-04-18T13:28:02.121Z</time></trkpt><trkpt lat="44.3072004" lon="7.5614703"><ele>756.0</ele><time>2026-04-18T13:28:03.122Z</time></trkpt><trkpt lat="44.30719" lon="7.5615989"><ele>754.5</ele><time>2026-04-18T13:28:04.122Z</time></trkpt><trkpt lat="44.3072105" lon="7.5617015"><ele>753.0</ele><time>2026-04-18T13:28:05.122Z</time></trkpt><trkpt lat="44.3072803" lon="7.5618076"><ele>751.5</ele><time>2026-04-18T13:28:07.122Z</time></trkpt><trkpt lat="44.3073645" lon="7.561824"><ele>750.0</ele><time>2026-04-18T13:28:08.122Z</time></trkpt><trkpt lat="44.3074622" lon="7.5618478"><ele>748.5</ele><time>2026-04-18T13:28:09.122Z</time></trkpt><trkpt lat="44.3075343" lon="7.5619127"><ele>747.0</ele><time>2026-04-18T13:28:10.122Z</time></trkpt><trkpt lat="44.3075932" lon="7.5620055"><ele>743.1666666666666</ele><time>2026-04-18T13:28:11.122Z</time></trkpt><trkpt lat="44.3076577" lon="7.5620991"><ele>739.3333333333334</ele><time>2026-04-18T13:28:12.122Z</time></trkpt><trkpt lat="44.3077235" lon="7.5621629"><ele>735.5</ele><time>2026-04-18T13:28:13.121Z</time></trkpt><trkpt lat="44.3077903" lon="7.5622397"><ele>731.6666666666667</ele><time>2026-04-18T13:28:14.122Z</time></trkpt><trkpt lat="44.3078476" lon="7.5623356"><ele>727.8333333333334</ele><time>2026-04-18T13:28:15.122Z</time></trkpt><trkpt lat="44.3078949" lon="7.5624542"><ele>724.0</ele><time>2026-04-18T13:28:16.122Z</time></trkpt><trkpt lat="44.3079502" lon="7.56258"><ele>724.0</ele><time>2026-04-18T13:28:17.122Z</time></trkpt><trkpt lat="44.3079969" lon="7.5627094"><ele>724.0</ele><time>2026-04-18T13:28:18.121Z</time></trkpt><trkpt lat="44.3080278" lon="7.5628479"><ele>724.0</ele><time>2026-04-18T13:28:19.122Z</time></trkpt><trkpt lat="44.3080518" lon="7.5629828"><ele>724.0</ele><time>2026-04-18T13:28:20.121Z</time></trkpt><trkpt lat="44.3080795" lon="7.5631013"><ele>724.0</ele><time>2026-04-18T13:28:21.122Z</time></trkpt><trkpt lat="44.3081132" lon="7.5632041"><ele>723.0</ele><time>2026-04-18T13:28:22.122Z</time></trkpt><trkpt lat="44.3081528" lon="7.5633755"><ele>722.0</ele><time>2026-04-18T13:28:24.122Z</time></trkpt><trkpt lat="44.3081664" lon="7.563482"><ele>721.0</ele><time>2026-04-18T13:28:25.122Z</time></trkpt><trkpt lat="44.3081871" lon="7.5635936"><ele>720.0</ele><time>2026-04-18T13:28:26.121Z</time></trkpt><trkpt lat="44.3082273" lon="7.5637089"><ele>719.0</ele><time>2026-04-18T13:28:27.122Z</time></trkpt><trkpt lat="44.3082906" lon="7.5638153"><ele>717.2</ele><time>2026-04-18T13:28:28.122Z</time></trkpt><trkpt lat="44.3083613" lon="7.5639071"><ele>715.4000000000001</ele><time>2026-04-18T13:28:29.121Z</time></trkpt><trkpt lat="44.3084357" lon="7.5640013"><ele>713.6</ele><time>2026-04-18T13:28:30.121Z</time></trkpt><trkpt lat="44.3085087" lon="7.56409"><ele>711.8</ele><time>2026-04-18T13:28:31.121Z</time></trkpt><trkpt lat="44.3085845" lon="7.564161"><ele>710.0</ele><time>2026-04-18T13:28:32.122Z</time></trkpt><trkpt lat="44.3086617" lon="7.5642143"><ele>710.0</ele><time>2026-04-18T13:28:33.122Z</time></trkpt><trkpt lat="44.3087343" lon="7.564243"><ele>710.0</ele><time>2026-04-18T13:28:34.122Z</time></trkpt><trkpt lat="44.3088051" lon="7.5642475"><ele>710.0</ele><time>2026-04-18T13:28:35.122Z</time></trkpt><trkpt lat="44.3088676" lon="7.5642243"><ele>710.0</ele><time>2026-04-18T13:28:36.122Z</time></trkpt><trkpt lat="44.3089457" lon="7.5641736"><ele>710.0</ele><time>2026-04-18T13:28:38.121Z</time></trkpt><trkpt lat="44.3090164" lon="7.5641555"><ele>710.0</ele><time>2026-04-18T13:28:40.121Z</time></trkpt><trkpt lat="44.3090927" lon="7.5641388"><ele>710.0</ele><time>2026-04-18T13:28:42.122Z</time></trkpt><trkpt lat="44.3092057" lon="7.5641484"><ele>710.6</ele><time>2026-04-18T13:28:45.122Z</time></trkpt><trkpt lat="44.3093221" lon="7.5641574"><ele>711.2</ele><time>2026-04-18T13:28:47.122Z</time></trkpt><trkpt lat="44.3094369" lon="7.5642359"><ele>711.8</ele><time>2026-04-18T13:28:49.121Z</time></trkpt><trkpt lat="44.3095525" lon="7.5643074"><ele>712.4</ele><time>2026-04-18T13:28:51.122Z</time></trkpt><trkpt lat="44.3096157" lon="7.5643483"><ele>713.0</ele><time>2026-04-18T13:28:52.121Z</time></trkpt><trkpt lat="44.3096789" lon="7.5643899"><ele>713.0</ele><time>2026-04-18T13:28:53.122Z</time></trkpt><trkpt lat="44.3097416" lon="7.5644278"><ele>713.0</ele><time>2026-04-18T13:28:54.121Z</time></trkpt><trkpt lat="44.3098058" lon="7.5644677"><ele>713.0</ele><time>2026-04-18T13:28:55.122Z</time></trkpt><trkpt lat="44.3098729" lon="7.5644979"><ele>713.0</ele><time>2026-04-18T13:28:56.122Z</time></trkpt><trkpt lat="44.3099398" lon="7.5645281"><ele>713.0</ele><time>2026-04-18T13:28:57.122Z</time></trkpt><trkpt lat="44.3100064" lon="7.5645571"><ele>713.0</ele><time>2026-04-18T13:28:58.122Z</time></trkpt><trkpt lat="44.3100791" lon="7.5645807"><ele>713.0</ele><time>2026-04-18T13:28:59.122Z</time></trkpt><trkpt lat="44.3101505" lon="7.5646026"><ele>711.0</ele><time>2026-04-18T13:29:00.121Z</time></trkpt><trkpt lat="44.3102203" lon="7.5646251"><ele>709.0</ele><time>2026-04-18T13:29:01.122Z</time></trkpt><trkpt lat="44.3102908" lon="7.564648"><ele>707.0</ele><time>2026-04-18T13:29:02.121Z</time></trkpt><trkpt lat="44.3103609" lon="7.5646615"><ele>705.0</ele><time>2026-04-18T13:29:03.121Z</time></trkpt><trkpt lat="44.3104326" lon="7.5646701"><ele>703.0</ele><time>2026-04-18T13:29:04.121Z</time></trkpt><trkpt lat="44.3105043" lon="7.5646771"><ele>701.0</ele><time>2026-04-18T13:29:05.121Z</time></trkpt><trkpt lat="44.3105676" lon="7.5646941"><ele>699.0</ele><time>2026-04-18T13:29:06.122Z</time></trkpt><trkpt lat="44.3106382" lon="7.5647113"><ele>698.0</ele><time>2026-04-18T13:29:07.122Z</time></trkpt><trkpt lat="44.3107091" lon="7.5647492"><ele>697.0</ele><time>2026-04-18T13:29:08.121Z</time></trkpt><trkpt lat="44.3107818" lon="7.5648049"><ele>696.0</ele><time>2026-04-18T13:29:09.122Z</time></trkpt><trkpt lat="44.3108462" lon="7.5648751"><ele>695.0</ele><time>2026-04-18T13:29:10.121Z</time></trkpt><trkpt lat="44.310898" lon="7.5649629"><ele>694.0</ele><time>2026-04-18T13:29:11.121Z</time></trkpt><trkpt lat="44.310949" lon="7.565049"><ele>693.0</ele><time>2026-04-18T13:29:12.121Z</time></trkpt><trkpt lat="44.311006" lon="7.5651334"><ele>693.0</ele><time>2026-04-18T13:29:13.122Z</time></trkpt><trkpt lat="44.3110664" lon="7.5652173"><ele>693.0</ele><time>2026-04-18T13:29:14.122Z</time></trkpt><trkpt lat="44.3111109" lon="7.5653189"><ele>693.0</ele><time>2026-04-18T13:29:15.122Z</time></trkpt><trkpt lat="44.3111788" lon="7.5654148"><ele>693.0</ele><time>2026-04-18T13:29:16.122Z</time></trkpt><trkpt lat="44.3112528" lon="7.5655068"><ele>693.0</ele><time>2026-04-18T13:29:17.121Z</time></trkpt><trkpt lat="44.3113265" lon="7.5655786"><ele>692.3333333333334</ele><time>2026-04-18T13:29:18.121Z</time></trkpt><trkpt lat="44.3113943" lon="7.565651"><ele>691.6666666666666</ele><time>2026-04-18T13:29:19.122Z</time></trkpt><trkpt lat="44.3114569" lon="7.5657334"><ele>691.0</ele><time>2026-04-18T13:29:20.122Z</time></trkpt><trkpt lat="44.3115172" lon="7.5658206"><ele>690.3333333333333</ele><time>2026-04-18T13:29:21.122Z</time></trkpt><trkpt lat="44.3115716" lon="7.5659001"><ele>689.6666666666666</ele><time>2026-04-18T13:29:22.121Z</time></trkpt><trkpt lat="44.3116368" lon="7.5659749"><ele>689.0</ele><time>2026-04-18T13:29:23.122Z</time></trkpt><trkpt lat="44.3116986" lon="7.566048"><ele>688.0</ele><time>2026-04-18T13:29:24.121Z</time></trkpt><trkpt lat="44.3117797" lon="7.5661618"><ele>687.0</ele><time>2026-04-18T13:29:26.122Z</time></trkpt><trkpt lat="44.311865" lon="7.5662589"><ele>686.0</ele><time>2026-04-18T13:29:28.122Z</time></trkpt><trkpt lat="44.3119778" lon="7.5663061"><ele>685.0</ele><time>2026-04-18T13:29:30.122Z</time></trkpt><trkpt lat="44.3120412" lon="7.5663094"><ele>684.0</ele><time>2026-04-18T13:29:31.122Z</time></trkpt><trkpt lat="44.3121097" lon="7.5663081"><ele>682.7142857142857</ele><time>2026-04-18T13:29:32.121Z</time></trkpt><trkpt lat="44.3121906" lon="7.5663015"><ele>681.4285714285714</ele><time>2026-04-18T13:29:33.122Z</time></trkpt><trkpt lat="44.3122668" lon="7.5662944"><ele>680.1428571428571</ele><time>2026-04-18T13:29:34.121Z</time></trkpt><trkpt lat="44.3123367" lon="7.5662768"><ele>678.8571428571429</ele><time>2026-04-18T13:29:35.122Z</time></trkpt><trkpt lat="44.3124062" lon="7.5662502"><ele>677.5714285714286</ele><time>2026-04-18T13:29:36.121Z</time></trkpt><trkpt lat="44.3124746" lon="7.5662212"><ele>676.2857142857142</ele><time>2026-04-18T13:29:37.122Z</time></trkpt><trkpt lat="44.3125446" lon="7.5661851"><ele>675.0</ele><time>2026-04-18T13:29:38.121Z</time></trkpt><trkpt lat="44.3126143" lon="7.5661448"><ele>675.0</ele><time>2026-04-18T13:29:39.122Z</time></trkpt><trkpt lat="44.3126824" lon="7.5660976"><ele>675.0</ele><time>2026-04-18T13:29:40.122Z</time></trkpt><trkpt lat="44.3127493" lon="7.5660328"><ele>675.0</ele><time>2026-04-18T13:29:41.122Z</time></trkpt><trkpt lat="44.3128174" lon="7.5659533"><ele>675.0</ele><time>2026-04-18T13:29:42.122Z</time></trkpt><trkpt lat="44.3128852" lon="7.5658835"><ele>675.0</ele><time>2026-04-18T13:29:43.122Z</time></trkpt><trkpt lat="44.3129566" lon="7.5658202"><ele>675.0</ele><time>2026-04-18T13:29:44.122Z</time></trkpt><trkpt lat="44.3130273" lon="7.5657625"><ele>673.5</ele><time>2026-04-18T13:29:45.122Z</time></trkpt><trkpt lat="44.3130967" lon="7.5656988"><ele>672.0</ele><time>2026-04-18T13:29:46.122Z</time></trkpt><trkpt lat="44.3131676" lon="7.5656288"><ele>670.5</ele><time>2026-04-18T13:29:47.122Z</time></trkpt><trkpt lat="44.3132392" lon="7.5655578"><ele>669.0</ele><time>2026-04-18T13:29:48.122Z</time></trkpt><trkpt lat="44.3133061" lon="7.5654736"><ele>667.5</ele><time>2026-04-18T13:29:49.121Z</time></trkpt><trkpt lat="44.3133703" lon="7.5653726"><ele>666.0</ele><time>2026-04-18T13:29:50.122Z</time></trkpt><trkpt lat="44.3134244" lon="7.5652662"><ele>666.0</ele><time>2026-04-18T13:29:51.121Z</time></trkpt><trkpt lat="44.3134734" lon="7.5651563"><ele>666.0</ele><time>2026-04-18T13:29:52.122Z</time></trkpt><trkpt lat="44.3135277" lon="7.5650517"><ele>666.0</ele><time>2026-04-18T13:29:53.121Z</time></trkpt><trkpt lat="44.3135831" lon="7.5649538"><ele>666.0</ele><time>2026-04-18T13:29:54.122Z</time></trkpt><trkpt lat="44.3136435" lon="7.5648593"><ele>666.0</ele><time>2026-04-18T13:29:55.122Z</time></trkpt><trkpt lat="44.3137031" lon="7.5647743"><ele>666.0</ele><time>2026-04-18T13:29:56.122Z</time></trkpt><trkpt lat="44.3137705" lon="7.5647064"><ele>666.0</ele><time>2026-04-18T13:29:57.121Z</time></trkpt><trkpt lat="44.3138492" lon="7.5646648"><ele>666.0</ele><time>2026-04-18T13:29:58.122Z</time></trkpt><trkpt lat="44.3139325" lon="7.5646479"><ele>666.0</ele><time>2026-04-18T13:29:59.122Z</time></trkpt><trkpt lat="44.3140132" lon="7.5646472"><ele>666.0</ele><time>2026-04-18T13:30:00.122Z</time></trkpt><trkpt lat="44.3140823" lon="7.5646485"><ele>666.0</ele><time>2026-04-18T13:30:01.122Z</time></trkpt><trkpt lat="44.3141505" lon="7.5646594"><ele>660.25</ele><time>2026-04-18T13:30:02.122Z</time></trkpt><trkpt lat="44.3142692" lon="7.5646769"><ele>654.5</ele><time>2026-04-18T13:30:04.121Z</time></trkpt><trkpt lat="44.3143815" lon="7.5646974"><ele>648.75</ele><time>2026-04-18T13:30:06.121Z</time></trkpt><trkpt lat="44.3144903" lon="7.5647177"><ele>643.0</ele><time>2026-04-18T13:30:08.121Z</time></trkpt><trkpt lat="44.3146009" lon="7.5647324"><ele>643.0</ele><time>2026-04-18T13:30:10.121Z</time></trkpt><trkpt lat="44.3147192" lon="7.5647624"><ele>643.0</ele><time>2026-04-18T13:30:12.122Z</time></trkpt><trkpt lat="44.3148193" lon="7.5648094"><ele>643.0</ele><time>2026-04-18T13:30:14.122Z</time></trkpt><trkpt lat="44.3148844" lon="7.5648465"><ele>643.0</ele><time>2026-04-18T13:30:17.121Z</time></trkpt><trkpt lat="44.3149576" lon="7.5648575"><ele>643.0</ele><time>2026-04-18T13:30:23.121Z</time></trkpt><trkpt lat="44.3150172" lon="7.5648057"><ele>643.0</ele><time>2026-04-18T13:30:26.121Z</time></trkpt><trkpt lat="44.3150787" lon="7.5646692"><ele>642.5</ele><time>2026-04-18T13:30:28.122Z</time></trkpt><trkpt lat="44.3151202" lon="7.5646008"><ele>642.0</ele><time>2026-04-18T13:30:29.122Z</time></trkpt><trkpt lat="44.3151654" lon="7.5645328"><ele>641.5</ele><time>2026-04-18T13:30:30.122Z</time></trkpt><trkpt lat="44.3152077" lon="7.564458"><ele>641.0</ele><time>2026-04-18T13:30:31.122Z</time></trkpt><trkpt lat="44.3152541" lon="7.5643809"><ele>640.5</ele><time>2026-04-18T13:30:32.122Z</time></trkpt><trkpt lat="44.3152992" lon="7.5643181"><ele>640.0</ele><time>2026-04-18T13:30:33.122Z</time></trkpt><trkpt lat="44.3153906" lon="7.5641967"><ele>640.0</ele><time>2026-04-18T13:30:35.122Z</time></trkpt><trkpt lat="44.3154709" lon="7.5640692"><ele>640.0</ele><time>2026-04-18T13:30:37.121Z</time></trkpt><trkpt lat="44.3155706" lon="7.5639396"><ele>640.0</ele><time>2026-04-18T13:30:39.122Z</time></trkpt><trkpt lat="44.3156253" lon="7.563865"><ele>640.0</ele><time>2026-04-18T13:30:40.122Z</time></trkpt><trkpt lat="44.3156763" lon="7.5637835"><ele>640.0</ele><time>2026-04-18T13:30:41.122Z</time></trkpt><trkpt lat="44.3157255" lon="7.5637066"><ele>639.2</ele><time>2026-04-18T13:30:42.122Z</time></trkpt><trkpt lat="44.3158204" lon="7.5635695"><ele>638.4</ele><time>2026-04-18T13:30:44.122Z</time></trkpt><trkpt lat="44.315894" lon="7.5634559"><ele>637.6</ele><time>2026-04-18T13:30:46.122Z</time></trkpt><trkpt lat="44.3159415" lon="7.5633789"><ele>636.8</ele><time>2026-04-18T13:30:48.122Z</time></trkpt><trkpt lat="44.3159678" lon="7.5632932"><ele>636.0</ele><time>2026-04-18T13:31:18.122Z</time></trkpt><trkpt lat="44.3160178" lon="7.5631697"><ele>636.0</ele><time>2026-04-18T13:31:20.122Z</time></trkpt><trkpt lat="44.3160541" lon="7.5630757"><ele>636.0</ele><time>2026-04-18T13:31:21.122Z</time></trkpt><trkpt lat="44.316095" lon="7.5629791"><ele>636.0</ele><time>2026-04-18T13:31:22.121Z</time></trkpt><trkpt lat="44.3161383" lon="7.5628858"><ele>636.0</ele><time>2026-04-18T13:31:23.122Z</time></trkpt><trkpt lat="44.3161805" lon="7.5627898"><ele>636.0</ele><time>2026-04-18T13:31:24.122Z</time></trkpt><trkpt lat="44.3162291" lon="7.5626988"><ele>636.0</ele><time>2026-04-18T13:31:25.122Z</time></trkpt><trkpt lat="44.316273" lon="7.5625931"><ele>636.4</ele><time>2026-04-18T13:31:26.122Z</time></trkpt><trkpt lat="44.3163219" lon="7.5624814"><ele>636.8</ele><time>2026-04-18T13:31:27.121Z</time></trkpt><trkpt lat="44.3163709" lon="7.5623731"><ele>637.1999999999999</ele><time>2026-04-18T13:31:28.121Z</time></trkpt><trkpt lat="44.3164248" lon="7.5622578"><ele>637.6</ele><time>2026-04-18T13:31:29.121Z</time></trkpt><trkpt lat="44.3164777" lon="7.5621439"><ele>638.0</ele><time>2026-04-18T13:31:30.122Z</time></trkpt><trkpt lat="44.3165263" lon="7.5620309"><ele>636.6</ele><time>2026-04-18T13:31:31.122Z</time></trkpt><trkpt lat="44.3165733" lon="7.5619153"><ele>635.1999999999999</ele><time>2026-04-18T13:31:32.121Z</time></trkpt><trkpt lat="44.3166244" lon="7.5618003"><ele>633.8</ele><time>2026-04-18T13:31:33.121Z</time></trkpt><trkpt lat="44.316677" lon="7.5616904"><ele>632.4</ele><time>2026-04-18T13:31:34.122Z</time></trkpt><trkpt lat="44.3167298" lon="7.56158"><ele>631.0</ele><time>2026-04-18T13:31:35.122Z</time></trkpt><trkpt lat="44.3167848" lon="7.5614668"><ele>631.0</ele><time>2026-04-18T13:31:36.121Z</time></trkpt><trkpt lat="44.3168361" lon="7.5613615"><ele>631.0</ele><time>2026-04-18T13:31:37.122Z</time></trkpt><trkpt lat="44.3168856" lon="7.5612515"><ele>631.0</ele><time>2026-04-18T13:31:38.122Z</time></trkpt><trkpt lat="44.3169334" lon="7.5611398"><ele>631.0</ele><time>2026-04-18T13:31:39.122Z</time></trkpt><trkpt lat="44.3169789" lon="7.5610305"><ele>631.0</ele><time>2026-04-18T13:31:40.121Z</time></trkpt><trkpt lat="44.3170233" lon="7.5609149"><ele>630.8</ele><time>2026-04-18T13:31:41.122Z</time></trkpt><trkpt lat="44.3170664" lon="7.5608007"><ele>630.6</ele><time>2026-04-18T13:31:42.122Z</time></trkpt><trkpt lat="44.317113" lon="7.5606949"><ele>630.4</ele><time>2026-04-18T13:31:43.122Z</time></trkpt><trkpt lat="44.3171615" lon="7.5605834"><ele>630.2</ele><time>2026-04-18T13:31:44.122Z</time></trkpt><trkpt lat="44.3172045" lon="7.5604759"><ele>630.0</ele><time>2026-04-18T13:31:45.121Z</time></trkpt><trkpt lat="44.3172437" lon="7.5603613"><ele>629.0</ele><time>2026-04-18T13:31:46.122Z</time></trkpt><trkpt lat="44.3172868" lon="7.560241"><ele>628.0</ele><time>2026-04-18T13:31:47.122Z</time></trkpt><trkpt lat="44.3173187" lon="7.5601193"><ele>627.0</ele><time>2026-04-18T13:31:48.122Z</time></trkpt><trkpt lat="44.3173492" lon="7.5599992"><ele>626.0</ele><time>2026-04-18T13:31:49.121Z</time></trkpt><trkpt lat="44.3173846" lon="7.5598828"><ele>625.0</ele><time>2026-04-18T13:31:50.122Z</time></trkpt><trkpt lat="44.3174327" lon="7.5597829"><ele>625.0</ele><time>2026-04-18T13:31:51.122Z</time></trkpt><trkpt lat="44.3175014" lon="7.5597051"><ele>625.0</ele><time>2026-04-18T13:31:52.121Z</time></trkpt><trkpt lat="44.3175842" lon="7.5596478"><ele>625.0</ele><time>2026-04-18T13:31:53.122Z</time></trkpt><trkpt lat="44.3176705" lon="7.5595851"><ele>625.0</ele><time>2026-04-18T13:31:54.122Z</time></trkpt><trkpt lat="44.3177531" lon="7.559516"><ele>625.0</ele><time>2026-04-18T13:31:55.122Z</time></trkpt><trkpt lat="44.3178381" lon="7.5594446"><ele>625.0</ele><time>2026-04-18T13:31:56.122Z</time></trkpt><trkpt lat="44.31792" lon="7.559375"><ele>625.0</ele><time>2026-04-18T13:31:57.122Z</time></trkpt><trkpt lat="44.318" lon="7.5592996"><ele>625.0</ele><time>2026-04-18T13:31:58.122Z</time></trkpt><trkpt lat="44.3180798" lon="7.5592265"><ele>625.0</ele><time>2026-04-18T13:31:59.121Z</time></trkpt><trkpt lat="44.3181544" lon="7.5591601"><ele>625.0</ele><time>2026-04-18T13:32:00.122Z</time></trkpt><trkpt lat="44.3182252" lon="7.5590925"><ele>624.6</ele><time>2026-04-18T13:32:01.122Z</time></trkpt><trkpt lat="44.3182997" lon="7.5590248"><ele>624.2</ele><time>2026-04-18T13:32:02.121Z</time></trkpt><trkpt lat="44.3183845" lon="7.5589526"><ele>623.8</ele><time>2026-04-18T13:32:03.122Z</time></trkpt><trkpt lat="44.3184702" lon="7.5588756"><ele>623.4</ele><time>2026-04-18T13:32:04.122Z</time></trkpt><trkpt lat="44.3185634" lon="7.5588057"><ele>623.0</ele><time>2026-04-18T13:32:05.121Z</time></trkpt><trkpt lat="44.3186628" lon="7.5587543"><ele>622.8</ele><time>2026-04-18T13:32:06.121Z</time></trkpt><trkpt lat="44.3187564" lon="7.558688"><ele>622.5999999999999</ele><time>2026-04-18T13:32:07.122Z</time></trkpt><trkpt lat="44.3188445" lon="7.5586154"><ele>622.4000000000001</ele><time>2026-04-18T13:32:08.122Z</time></trkpt><trkpt lat="44.3189293" lon="7.5585401"><ele>622.2</ele><time>2026-04-18T13:32:09.121Z</time></trkpt><trkpt lat="44.3190188" lon="7.5584636"><ele>622.0</ele><time>2026-04-18T13:32:10.121Z</time></trkpt><trkpt lat="44.3191027" lon="7.5583934"><ele>621.4</ele><time>2026-04-18T13:32:11.122Z</time></trkpt><trkpt lat="44.3191873" lon="7.5583302"><ele>620.8000000000001</ele><time>2026-04-18T13:32:12.122Z</time></trkpt><trkpt lat="44.3192743" lon="7.5582592"><ele>620.2</ele><time>2026-04-18T13:32:13.122Z</time></trkpt><trkpt lat="44.3193541" lon="7.5581948"><ele>619.6</ele><time>2026-04-18T13:32:14.121Z</time></trkpt><trkpt lat="44.3194412" lon="7.5581568"><ele>619.0</ele><time>2026-04-18T13:32:15.121Z</time></trkpt><trkpt lat="44.3195212" lon="7.5581476"><ele>619.0</ele><time>2026-04-18T13:32:16.121Z</time></trkpt><trkpt lat="44.3196012" lon="7.5581791"><ele>619.0</ele><time>2026-04-18T13:32:17.121Z</time></trkpt><trkpt lat="44.3196619" lon="7.5582504"><ele>619.0</ele><time>2026-04-18T13:32:18.122Z</time></trkpt><trkpt lat="44.3197191" lon="7.5583434"><ele>619.0</ele><time>2026-04-18T13:32:19.122Z</time></trkpt><trkpt lat="44.3197687" lon="7.5584535"><ele>619.0</ele><time>2026-04-18T13:32:20.121Z</time></trkpt><trkpt lat="44.3198126" lon="7.558574"><ele>619.0</ele><time>2026-04-18T13:32:21.121Z</time></trkpt><trkpt lat="44.3198522" lon="7.5586733"><ele>618.3333333333334</ele><time>2026-04-18T13:32:22.121Z</time></trkpt><trkpt lat="44.3198953" lon="7.5587728"><ele>617.6666666666667</ele><time>2026-04-18T13:32:23.121Z</time></trkpt><trkpt lat="44.319949" lon="7.5588409"><ele>617.0</ele><time>2026-04-18T13:32:24.122Z</time></trkpt><trkpt lat="44.3200223" lon="7.5588749"><ele>616.3333333333334</ele><time>2026-04-18T13:32:25.122Z</time></trkpt><trkpt lat="44.3201054" lon="7.558867"><ele>615.6666666666666</ele><time>2026-04-18T13:32:26.122Z</time></trkpt><trkpt lat="44.3201911" lon="7.558804"><ele>615.0</ele><time>2026-04-18T13:32:27.121Z</time></trkpt><trkpt lat="44.3202861" lon="7.5587204"><ele>615.2</ele><time>2026-04-18T13:32:28.122Z</time></trkpt><trkpt lat="44.3203721" lon="7.558626"><ele>615.4</ele><time>2026-04-18T13:32:29.122Z</time></trkpt><trkpt lat="44.320458" lon="7.5585321"><ele>615.6</ele><time>2026-04-18T13:32:30.121Z</time></trkpt><trkpt lat="44.3205382" lon="7.5584547"><ele>615.8</ele><time>2026-04-18T13:32:31.121Z</time></trkpt><trkpt lat="44.3206193" lon="7.558368"><ele>616.0</ele><time>2026-04-18T13:32:32.122Z</time></trkpt><trkpt lat="44.3207015" lon="7.5582862"><ele>615.4</ele><time>2026-04-18T13:32:33.122Z</time></trkpt><trkpt lat="44.3207784" lon="7.5581962"><ele>614.8</ele><time>2026-04-18T13:32:34.122Z</time></trkpt><trkpt lat="44.3208532" lon="7.5581049"><ele>614.1999999999999</ele><time>2026-04-18T13:32:35.122Z</time></trkpt><trkpt lat="44.3209308" lon="7.5580134"><ele>613.6</ele><time>2026-04-18T13:32:36.121Z</time></trkpt><trkpt lat="44.3210151" lon="7.5579294"><ele>613.0</ele><time>2026-04-18T13:32:37.122Z</time></trkpt><trkpt lat="44.3210996" lon="7.5578499"><ele>612.8</ele><time>2026-04-18T13:32:38.121Z</time></trkpt><trkpt lat="44.3211767" lon="7.5577553"><ele>612.5999999999999</ele><time>2026-04-18T13:32:39.121Z</time></trkpt><trkpt lat="44.3212542" lon="7.557663"><ele>612.4000000000001</ele><time>2026-04-18T13:32:40.122Z</time></trkpt><trkpt lat="44.3213315" lon="7.5575776"><ele>612.2</ele><time>2026-04-18T13:32:41.122Z</time></trkpt><trkpt lat="44.3214084" lon="7.5574886"><ele>612.0</ele><time>2026-04-18T13:32:42.121Z</time></trkpt><trkpt lat="44.3214882" lon="7.557403"><ele>611.4</ele><time>2026-04-18T13:32:43.121Z</time></trkpt><trkpt lat="44.3215656" lon="7.5573156"><ele>610.8000000000001</ele><time>2026-04-18T13:32:44.122Z</time></trkpt><trkpt lat="44.3216441" lon="7.5572324"><ele>610.2</ele><time>2026-04-18T13:32:45.122Z</time></trkpt><trkpt lat="44.3217225" lon="7.5571462"><ele>609.6</ele><time>2026-04-18T13:32:46.122Z</time></trkpt><trkpt lat="44.3218064" lon="7.5570631"><ele>609.0</ele><time>2026-04-18T13:32:47.121Z</time></trkpt><trkpt lat="44.3218888" lon="7.5569769"><ele>608.8</ele><time>2026-04-18T13:32:48.121Z</time></trkpt><trkpt lat="44.3219645" lon="7.5568841"><ele>608.5999999999999</ele><time>2026-04-18T13:32:49.122Z</time></trkpt><trkpt lat="44.322044" lon="7.5567955"><ele>608.4</ele><time>2026-04-18T13:32:50.121Z</time></trkpt><trkpt lat="44.3221203" lon="7.5567061"><ele>608.1999999999999</ele><time>2026-04-18T13:32:51.121Z</time></trkpt><trkpt lat="44.3221974" lon="7.55662"><ele>608.0</ele><time>2026-04-18T13:32:52.122Z</time></trkpt><trkpt lat="44.3222746" lon="7.5565307"><ele>607.6</ele><time>2026-04-18T13:32:53.122Z</time></trkpt><trkpt lat="44.3223505" lon="7.5564467"><ele>607.1999999999999</ele><time>2026-04-18T13:32:54.122Z</time></trkpt><trkpt lat="44.3224249" lon="7.556358"><ele>606.8</ele><time>2026-04-18T13:32:55.122Z</time></trkpt><trkpt lat="44.3225024" lon="7.5562689"><ele>606.4</ele><time>2026-04-18T13:32:56.122Z</time></trkpt><trkpt lat="44.3225783" lon="7.5561922"><ele>606.0</ele><time>2026-04-18T13:32:57.122Z</time></trkpt><trkpt lat="44.3226513" lon="7.5561103"><ele>605.4</ele><time>2026-04-18T13:32:58.122Z</time></trkpt><trkpt lat="44.3227237" lon="7.5560322"><ele>604.8</ele><time>2026-04-18T13:32:59.122Z</time></trkpt><trkpt lat="44.3227913" lon="7.5559507"><ele>604.1999999999999</ele><time>2026-04-18T13:33:00.121Z</time></trkpt><trkpt lat="44.3228616" lon="7.5558719"><ele>603.6</ele><time>2026-04-18T13:33:01.121Z</time></trkpt><trkpt lat="44.3229299" lon="7.555795"><ele>603.0</ele><time>2026-04-18T13:33:02.122Z</time></trkpt><trkpt lat="44.3230116" lon="7.5557098"><ele>602.8</ele><time>2026-04-18T13:33:03.121Z</time></trkpt><trkpt lat="44.3230855" lon="7.5556234"><ele>602.5999999999999</ele><time>2026-04-18T13:33:04.122Z</time></trkpt><trkpt lat="44.3231604" lon="7.5555422"><ele>602.4000000000001</ele><time>2026-04-18T13:33:05.121Z</time></trkpt><trkpt lat="44.3232386" lon="7.5554615"><ele>602.2</ele><time>2026-04-18T13:33:06.122Z</time></trkpt><trkpt lat="44.3233106" lon="7.5553799"><ele>602.0</ele><time>2026-04-18T13:33:07.121Z</time></trkpt><trkpt lat="44.3233739" lon="7.5552937"><ele>601.8333333333333</ele><time>2026-04-18T13:33:08.122Z</time></trkpt><trkpt lat="44.3234363" lon="7.5551963"><ele>601.6666666666666</ele><time>2026-04-18T13:33:09.122Z</time></trkpt><trkpt lat="44.3235066" lon="7.5551366"><ele>601.5</ele><time>2026-04-18T13:33:10.121Z</time></trkpt><trkpt lat="44.323585" lon="7.5550751"><ele>601.3333333333334</ele><time>2026-04-18T13:33:11.122Z</time></trkpt><trkpt lat="44.3236567" lon="7.5550125"><ele>601.1666666666667</ele><time>2026-04-18T13:33:12.122Z</time></trkpt><trkpt lat="44.3237318" lon="7.5549476"><ele>601.0</ele><time>2026-04-18T13:33:13.121Z</time></trkpt><trkpt lat="44.323806" lon="7.5548899"><ele>601.0</ele><time>2026-04-18T13:33:14.122Z</time></trkpt><trkpt lat="44.3238814" lon="7.5548286"><ele>601.0</ele><time>2026-04-18T13:33:15.122Z</time></trkpt><trkpt lat="44.3239564" lon="7.5547622"><ele>601.0</ele><time>2026-04-18T13:33:16.122Z</time></trkpt><trkpt lat="44.3240268" lon="7.5546958"><ele>601.0</ele><time>2026-04-18T13:33:17.122Z</time></trkpt><trkpt lat="44.3240811" lon="7.5546399"><ele>601.0</ele><time>2026-04-18T13:33:18.122Z</time></trkpt><trkpt lat="44.3241729" lon="7.5545641"><ele>601.0</ele><time>2026-04-18T13:33:20.121Z</time></trkpt><trkpt lat="44.3242379" lon="7.5545716"><ele>601.0</ele><time>2026-04-18T13:33:21.122Z</time></trkpt><trkpt lat="44.3243168" lon="7.5545867"><ele>601.0</ele><time>2026-04-18T13:33:22.122Z</time></trkpt><trkpt lat="44.3243981" lon="7.5546039"><ele>601.0</ele><time>2026-04-18T13:33:23.122Z</time></trkpt><trkpt lat="44.3244835" lon="7.5546317"><ele>601.0</ele><time>2026-04-18T13:33:24.121Z</time></trkpt><trkpt lat="44.3245768" lon="7.5546555"><ele>601.0</ele><time>2026-04-18T13:33:25.122Z</time></trkpt><trkpt lat="44.3246669" lon="7.5546792"><ele>601.0</ele><time>2026-04-18T13:33:26.121Z</time></trkpt><trkpt lat="44.3247525" lon="7.5547013"><ele>600.6</ele><time>2026-04-18T13:33:27.121Z</time></trkpt><trkpt lat="44.3248389" lon="7.5547222"><ele>600.2</ele><time>2026-04-18T13:33:28.122Z</time></trkpt><trkpt lat="44.3249311" lon="7.5547362"><ele>599.8</ele><time>2026-04-18T13:33:29.122Z</time></trkpt><trkpt lat="44.3250219" lon="7.5547517"><ele>599.4</ele><time>2026-04-18T13:33:30.121Z</time></trkpt><trkpt lat="44.3251103" lon="7.5547712"><ele>599.0</ele><time>2026-04-18T13:33:31.121Z</time></trkpt><trkpt lat="44.3252024" lon="7.5547867"><ele>599.0</ele><time>2026-04-18T13:33:32.121Z</time></trkpt><trkpt lat="44.3252935" lon="7.5548097"><ele>599.0</ele><time>2026-04-18T13:33:33.121Z</time></trkpt><trkpt lat="44.3253795" lon="7.5548338"><ele>599.0</ele><time>2026-04-18T13:33:34.121Z</time></trkpt><trkpt lat="44.3254633" lon="7.5548549"><ele>599.0</ele><time>2026-04-18T13:33:35.122Z</time></trkpt><trkpt lat="44.3255502" lon="7.554873"><ele>599.0</ele><time>2026-04-18T13:33:36.122Z</time></trkpt><trkpt lat="44.3256322" lon="7.5548931"><ele>599.0</ele><time>2026-04-18T13:33:37.121Z</time></trkpt><trkpt lat="44.3257201" lon="7.5549103"><ele>598.6666666666666</ele><time>2026-04-18T13:33:38.122Z</time></trkpt><trkpt lat="44.3258046" lon="7.5549217"><ele>598.3333333333333</ele><time>2026-04-18T13:33:39.122Z</time></trkpt><trkpt lat="44.3258898" lon="7.55494"><ele>598.0</ele><time>2026-04-18T13:33:40.122Z</time></trkpt><trkpt lat="44.3259726" lon="7.5549578"><ele>597.6666666666666</ele><time>2026-04-18T13:33:41.122Z</time></trkpt><trkpt lat="44.3260542" lon="7.5549785"><ele>597.3333333333334</ele><time>2026-04-18T13:33:42.122Z</time></trkpt><trkpt lat="44.3261404" lon="7.5549983"><ele>597.0</ele><time>2026-04-18T13:33:43.121Z</time></trkpt><trkpt lat="44.3262193" lon="7.5550142"><ele>597.0000000000001</ele><time>2026-04-18T13:33:44.122Z</time></trkpt><trkpt lat="44.3262956" lon="7.5550325"><ele>597.0</ele><time>2026-04-18T13:33:45.122Z</time></trkpt><trkpt lat="44.326367" lon="7.5550448"><ele>597.0</ele><time>2026-04-18T13:33:46.121Z</time></trkpt><trkpt lat="44.3264398" lon="7.5550576"><ele>597.0</ele><time>2026-04-18T13:33:47.121Z</time></trkpt><trkpt lat="44.3265116" lon="7.555072"><ele>597.0</ele><time>2026-04-18T13:33:48.121Z</time></trkpt><trkpt lat="44.3265883" lon="7.5550934"><ele>597.0000000000001</ele><time>2026-04-18T13:33:49.122Z</time></trkpt><trkpt lat="44.3266623" lon="7.5551093"><ele>597.0</ele><time>2026-04-18T13:33:50.121Z</time></trkpt><trkpt lat="44.3267335" lon="7.5551412"><ele>596.7142857142858</ele><time>2026-04-18T13:33:51.122Z</time></trkpt><trkpt lat="44.3267919" lon="7.5551942"><ele>596.4285714285714</ele><time>2026-04-18T13:33:52.121Z</time></trkpt><trkpt lat="44.3268469" lon="7.5552501"><ele>596.1428571428571</ele><time>2026-04-18T13:33:53.122Z</time></trkpt><trkpt lat="44.3269078" lon="7.5552749"><ele>595.8571428571429</ele><time>2026-04-18T13:33:54.122Z</time></trkpt><trkpt lat="44.3269839" lon="7.555265"><ele>595.5714285714286</ele><time>2026-04-18T13:33:55.122Z</time></trkpt><trkpt lat="44.3270595" lon="7.5552369"><ele>595.2857142857143</ele><time>2026-04-18T13:33:56.122Z</time></trkpt><trkpt lat="44.3271371" lon="7.555214"><ele>595.0</ele><time>2026-04-18T13:33:57.122Z</time></trkpt><trkpt lat="44.3272142" lon="7.555204"><ele>594.6666666666667</ele><time>2026-04-18T13:33:58.121Z</time></trkpt><trkpt lat="44.3272909" lon="7.5552148"><ele>594.3333333333334</ele><time>2026-04-18T13:33:59.122Z</time></trkpt><trkpt lat="44.3273954" lon="7.5552531"><ele>594.0</ele><time>2026-04-18T13:34:01.122Z</time></trkpt><trkpt lat="44.3274853" lon="7.5552549"><ele>593.6666666666666</ele><time>2026-04-18T13:34:03.121Z</time></trkpt><trkpt lat="44.327548" lon="7.5552304"><ele>593.3333333333333</ele><time>2026-04-18T13:34:04.121Z</time></trkpt><trkpt lat="44.3276166" lon="7.5552115"><ele>593.0</ele><time>2026-04-18T13:34:05.121Z</time></trkpt><trkpt lat="44.3276897" lon="7.5552047"><ele>592.9999999999999</ele><time>2026-04-18T13:34:06.122Z</time></trkpt><trkpt lat="44.3277702" lon="7.5551988"><ele>593.0</ele><time>2026-04-18T13:34:07.121Z</time></trkpt><trkpt lat="44.3278449" lon="7.555201"><ele>593.0</ele><time>2026-04-18T13:34:08.122Z</time></trkpt><trkpt lat="44.3279107" lon="7.5551846"><ele>593.0</ele><time>2026-04-18T13:34:09.122Z</time></trkpt><trkpt lat="44.3279553" lon="7.5551192"><ele>593.0</ele><time>2026-04-18T13:34:10.122Z</time></trkpt><trkpt lat="44.3279839" lon="7.5550262"><ele>592.9999999999999</ele><time>2026-04-18T13:34:11.122Z</time></trkpt><trkpt lat="44.3280253" lon="7.5549353"><ele>593.0</ele><time>2026-04-18T13:34:12.122Z</time></trkpt><trkpt lat="44.3280798" lon="7.5548554"><ele>592.6666666666666</ele><time>2026-04-18T13:34:13.122Z</time></trkpt><trkpt lat="44.3281415" lon="7.5547779"><ele>592.3333333333333</ele><time>2026-04-18T13:34:14.121Z</time></trkpt><trkpt lat="44.3282003" lon="7.5547008"><ele>592.0</ele><time>2026-04-18T13:34:15.122Z</time></trkpt><trkpt lat="44.3282582" lon="7.5546121"><ele>591.6666666666666</ele><time>2026-04-18T13:34:16.121Z</time></trkpt><trkpt lat="44.3283233" lon="7.554518"><ele>591.3333333333334</ele><time>2026-04-18T13:34:17.121Z</time></trkpt><trkpt lat="44.3283885" lon="7.5544221"><ele>591.0</ele><time>2026-04-18T13:34:18.122Z</time></trkpt><trkpt lat="44.3284548" lon="7.5543292"><ele>591.0</ele><time>2026-04-18T13:34:19.122Z</time></trkpt><trkpt lat="44.3285238" lon="7.5542406"><ele>591.0</ele><time>2026-04-18T13:34:20.122Z</time></trkpt><trkpt lat="44.3285903" lon="7.5541526"><ele>591.0</ele><time>2026-04-18T13:34:21.121Z</time></trkpt><trkpt lat="44.3286551" lon="7.554067"><ele>591.0</ele><time>2026-04-18T13:34:22.121Z</time></trkpt><trkpt lat="44.328786" lon="7.5539191"><ele>591.0</ele><time>2026-04-18T13:34:24.122Z</time></trkpt><trkpt lat="44.328928" lon="7.5537726"><ele>590.5</ele><time>2026-04-18T13:34:26.122Z</time></trkpt><trkpt lat="44.3289968" lon="7.5536885"><ele>590.0</ele><time>2026-04-18T13:34:27.121Z</time></trkpt><trkpt lat="44.3290703" lon="7.5536061"><ele>589.5</ele><time>2026-04-18T13:34:28.122Z</time></trkpt><trkpt lat="44.3292253" lon="7.5534551"><ele>589.0</ele><time>2026-04-18T13:34:30.122Z</time></trkpt><trkpt lat="44.329293" lon="7.5533744"><ele>589.0</ele><time>2026-04-18T13:34:31.121Z</time></trkpt><trkpt lat="44.3293617" lon="7.5533028"><ele>589.0</ele><time>2026-04-18T13:34:32.122Z</time></trkpt><trkpt lat="44.3294333" lon="7.5532368"><ele>589.0</ele><time>2026-04-18T13:34:33.121Z</time></trkpt><trkpt lat="44.3295009" lon="7.5531681"><ele>589.0</ele><time>2026-04-18T13:34:34.122Z</time></trkpt><trkpt lat="44.329555" lon="7.5530896"><ele>589.0</ele><time>2026-04-18T13:34:35.122Z</time></trkpt><trkpt lat="44.3295958" lon="7.5529851"><ele>589.0</ele><time>2026-04-18T13:34:36.122Z</time></trkpt><trkpt lat="44.3296086" lon="7.5528699"><ele>589.1666666666667</ele><time>2026-04-18T13:34:37.122Z</time></trkpt><trkpt lat="44.3296165" lon="7.5527534"><ele>589.3333333333334</ele><time>2026-04-18T13:34:38.122Z</time></trkpt><trkpt lat="44.3296435" lon="7.5526386"><ele>589.5</ele><time>2026-04-18T13:34:39.122Z</time></trkpt><trkpt lat="44.3296892" lon="7.5525374"><ele>589.6666666666666</ele><time>2026-04-18T13:34:40.121Z</time></trkpt><trkpt lat="44.3297447" lon="7.5524456"><ele>589.8333333333333</ele><time>2026-04-18T13:34:41.121Z</time></trkpt><trkpt lat="44.329807" lon="7.5523642"><ele>590.0</ele><time>2026-04-18T13:34:42.122Z</time></trkpt><trkpt lat="44.3298652" lon="7.5523038"><ele>590.0</ele><time>2026-04-18T13:34:43.122Z</time></trkpt><trkpt lat="44.3299778" lon="7.5522875"><ele>590.0</ele><time>2026-04-18T13:34:45.122Z</time></trkpt><trkpt lat="44.3300515" lon="7.5523198"><ele>590.0</ele><time>2026-04-18T13:34:46.121Z</time></trkpt><trkpt lat="44.3301303" lon="7.552383"><ele>590.0</ele><time>2026-04-18T13:34:47.122Z</time></trkpt><trkpt lat="44.3302075" lon="7.5524526"><ele>590.0</ele><time>2026-04-18T13:34:48.122Z</time></trkpt><trkpt lat="44.3302846" lon="7.5525204"><ele>590.0</ele><time>2026-04-18T13:34:49.122Z</time></trkpt><trkpt lat="44.3303606" lon="7.5525958"><ele>590.0</ele><time>2026-04-18T13:34:50.121Z</time></trkpt><trkpt lat="44.3304382" lon="7.5526683"><ele>590.0</ele><time>2026-04-18T13:34:51.121Z</time></trkpt><trkpt lat="44.3305143" lon="7.5527345"><ele>590.0</ele><time>2026-04-18T13:34:52.122Z</time></trkpt><trkpt lat="44.3305876" lon="7.5527942"><ele>590.0</ele><time>2026-04-18T13:34:53.122Z</time></trkpt><trkpt lat="44.3306582" lon="7.5528453"><ele>590.0</ele><time>2026-04-18T13:34:54.121Z</time></trkpt><trkpt lat="44.3307267" lon="7.5528985"><ele>589.3333333333333</ele><time>2026-04-18T13:34:55.121Z</time></trkpt><trkpt lat="44.3307943" lon="7.5529522"><ele>588.6666666666666</ele><time>2026-04-18T13:34:56.122Z</time></trkpt><trkpt lat="44.3308547" lon="7.5530112"><ele>588.0</ele><time>2026-04-18T13:34:57.122Z</time></trkpt><trkpt lat="44.3309024" lon="7.553088"><ele>587.3333333333334</ele><time>2026-04-18T13:34:58.121Z</time></trkpt><trkpt lat="44.3309432" lon="7.5531633"><ele>586.6666666666667</ele><time>2026-04-18T13:34:59.122Z</time></trkpt><trkpt lat="44.3310598" lon="7.5532248"><ele>586.0</ele><time>2026-04-18T13:35:01.122Z</time></trkpt><trkpt lat="44.331132" lon="7.5532341"><ele>586.0</ele><time>2026-04-18T13:35:02.122Z</time></trkpt><trkpt lat="44.3312162" lon="7.5532754"><ele>586.0</ele><time>2026-04-18T13:35:03.122Z</time></trkpt><trkpt lat="44.3313032" lon="7.5533317"><ele>586.0</ele><time>2026-04-18T13:35:04.121Z</time></trkpt><trkpt lat="44.3313935" lon="7.5533973"><ele>586.0</ele><time>2026-04-18T13:35:05.122Z</time></trkpt><trkpt lat="44.3314825" lon="7.5534634"><ele>586.0</ele><time>2026-04-18T13:35:06.122Z</time></trkpt><trkpt lat="44.3315765" lon="7.5535317"><ele>585.6</ele><time>2026-04-18T13:35:07.122Z</time></trkpt><trkpt lat="44.3316732" lon="7.5536025"><ele>585.2</ele><time>2026-04-18T13:35:08.121Z</time></trkpt><trkpt lat="44.3317685" lon="7.5536786"><ele>584.8</ele><time>2026-04-18T13:35:09.121Z</time></trkpt><trkpt lat="44.331867" lon="7.5537552"><ele>584.4</ele><time>2026-04-18T13:35:10.122Z</time></trkpt><trkpt lat="44.331964" lon="7.553834"><ele>584.0</ele><time>2026-04-18T13:35:11.122Z</time></trkpt><trkpt lat="44.3320534" lon="7.5539019"><ele>584.0</ele><time>2026-04-18T13:35:12.122Z</time></trkpt><trkpt lat="44.3321421" lon="7.5539606"><ele>584.0</ele><time>2026-04-18T13:35:13.122Z</time></trkpt><trkpt lat="44.3322308" lon="7.5540208"><ele>584.0</ele><time>2026-04-18T13:35:14.122Z</time></trkpt><trkpt lat="44.3323175" lon="7.5540851"><ele>584.0</ele><time>2026-04-18T13:35:15.122Z</time></trkpt><trkpt lat="44.3324026" lon="7.5541556"><ele>584.0</ele><time>2026-04-18T13:35:16.122Z</time></trkpt><trkpt lat="44.3324928" lon="7.5542212"><ele>584.0</ele><time>2026-04-18T13:35:17.122Z</time></trkpt><trkpt lat="44.3325803" lon="7.5542944"><ele>584.0</ele><time>2026-04-18T13:35:18.122Z</time></trkpt><trkpt lat="44.3326647" lon="7.5543559"><ele>584.0</ele><time>2026-04-18T13:35:19.122Z</time></trkpt><trkpt lat="44.3327512" lon="7.5544194"><ele>584.0</ele><time>2026-04-18T13:35:20.122Z</time></trkpt><trkpt lat="44.3328352" lon="7.5544806"><ele>584.0</ele><time>2026-04-18T13:35:21.122Z</time></trkpt><trkpt lat="44.332913" lon="7.5545339"><ele>583.8</ele><time>2026-04-18T13:35:22.122Z</time></trkpt><trkpt lat="44.3329781" lon="7.5545891"><ele>583.5999999999999</ele><time>2026-04-18T13:35:23.121Z</time></trkpt><trkpt lat="44.3330696" lon="7.5546543"><ele>583.4</ele><time>2026-04-18T13:35:25.122Z</time></trkpt><trkpt lat="44.3331509" lon="7.5547417"><ele>583.1999999999999</ele><time>2026-04-18T13:35:27.122Z</time></trkpt><trkpt lat="44.3332537" lon="7.5547713"><ele>583.0</ele><time>2026-04-18T13:35:29.121Z</time></trkpt><trkpt lat="44.3333437" lon="7.5546625"><ele>583.1666666666667</ele><time>2026-04-18T13:35:31.122Z</time></trkpt><trkpt lat="44.3333068" lon="7.5545003"><ele>583.3333333333334</ele><time>2026-04-18T13:35:33.121Z</time></trkpt><trkpt lat="44.3332442" lon="7.5544519"><ele>583.5</ele><time>2026-04-18T13:35:34.121Z</time></trkpt><trkpt lat="44.3331761" lon="7.5544586"><ele>583.6666666666666</ele><time>2026-04-18T13:35:35.121Z</time></trkpt><trkpt lat="44.3331144" lon="7.5545036"><ele>583.8333333333333</ele><time>2026-04-18T13:35:36.121Z</time></trkpt><trkpt lat="44.3330525" lon="7.5545289"><ele>584.0</ele><time>2026-04-18T13:35:37.121Z</time></trkpt><trkpt lat="44.3329891" lon="7.5545177"><ele>584.0</ele><time>2026-04-18T13:35:38.121Z</time></trkpt><trkpt lat="44.3329341" lon="7.5544713"><ele>584.0</ele><time>2026-04-18T13:35:39.122Z</time></trkpt><trkpt lat="44.3328797" lon="7.5544207"><ele>584.0</ele><time>2026-04-18T13:35:40.122Z</time></trkpt><trkpt lat="44.3327992" lon="7.5543669"><ele>584.0</ele><time>2026-04-18T13:35:42.122Z</time></trkpt><trkpt lat="44.332733" lon="7.5543108"><ele>584.0</ele><time>2026-04-18T13:35:45.122Z</time></trkpt><trkpt lat="44.3326623" lon="7.5543187"><ele>584.0</ele><time>2026-04-18T13:35:49.121Z</time></trkpt><trkpt lat="44.3327206" lon="7.554381"><ele>584.0</ele><time>2026-04-18T13:35:51.121Z</time></trkpt><trkpt lat="44.3327865" lon="7.5544326"><ele>584.0</ele><time>2026-04-18T13:35:53.121Z</time></trkpt><trkpt lat="44.3328497" lon="7.5544804"><ele>584.0</ele><time>2026-04-18T13:35:55.122Z</time></trkpt><trkpt lat="44.3329378" lon="7.5545338"><ele>584.0</ele><time>2026-04-18T13:35:57.122Z</time></trkpt><trkpt lat="44.333007" lon="7.5545917"><ele>584.0</ele><time>2026-04-18T13:35:59.121Z</time></trkpt><trkpt lat="44.3330941" lon="7.5546952"><ele>584.0</ele><time>2026-04-18T13:36:01.122Z</time></trkpt><trkpt lat="44.3331546" lon="7.5547416"><ele>584.0</ele><time>2026-04-18T13:36:02.122Z</time></trkpt><trkpt lat="44.3332204" lon="7.5547359"><ele>583.3333333333333</ele><time>2026-04-18T13:36:03.122Z</time></trkpt><trkpt lat="44.3332789" lon="7.554692"><ele>582.6666666666666</ele><time>2026-04-18T13:36:04.122Z</time></trkpt><trkpt lat="44.3333239" lon="7.5546222"><ele>582.0</ele><time>2026-04-18T13:36:05.122Z</time></trkpt><trkpt lat="44.3333089" lon="7.5544363"><ele>581.3333333333334</ele><time>2026-04-18T13:36:07.121Z</time></trkpt><trkpt lat="44.3332726" lon="7.5543318"><ele>580.6666666666667</ele><time>2026-04-18T13:36:08.122Z</time></trkpt><trkpt lat="44.3332382" lon="7.5542107"><ele>580.0</ele><time>2026-04-18T13:36:09.122Z</time></trkpt><trkpt lat="44.3332097" lon="7.5540786"><ele>580.0</ele><time>2026-04-18T13:36:10.122Z</time></trkpt><trkpt lat="44.3332" lon="7.5539341"><ele>580.0</ele><time>2026-04-18T13:36:11.121Z</time></trkpt><trkpt lat="44.3332029" lon="7.5537801"><ele>580.0</ele><time>2026-04-18T13:36:12.121Z</time></trkpt><trkpt lat="44.333216" lon="7.5536249"><ele>580.0</ele><time>2026-04-18T13:36:13.121Z</time></trkpt><trkpt lat="44.3332289" lon="7.5534692"><ele>580.0</ele><time>2026-04-18T13:36:14.122Z</time></trkpt><trkpt lat="44.3332385" lon="7.5533059"><ele>580.0</ele><time>2026-04-18T13:36:15.122Z</time></trkpt><trkpt lat="44.3332496" lon="7.5531381"><ele>580.0</ele><time>2026-04-18T13:36:16.122Z</time></trkpt><trkpt lat="44.3332674" lon="7.5529746"><ele>580.0</ele><time>2026-04-18T13:36:17.122Z</time></trkpt><trkpt lat="44.3332879" lon="7.5528107"><ele>580.0</ele><time>2026-04-18T13:36:18.122Z</time></trkpt><trkpt lat="44.3333049" lon="7.5526434"><ele>580.0</ele><time>2026-04-18T13:36:19.122Z</time></trkpt><trkpt lat="44.3333223" lon="7.5524802"><ele>580.0</ele><time>2026-04-18T13:36:20.122Z</time></trkpt><trkpt lat="44.3333408" lon="7.5523131"><ele>580.0</ele><time>2026-04-18T13:36:21.122Z</time></trkpt><trkpt lat="44.3333613" lon="7.552147"><ele>580.0</ele><time>2026-04-18T13:36:22.122Z</time></trkpt><trkpt lat="44.3333777" lon="7.5519836"><ele>580.5</ele><time>2026-04-18T13:36:23.121Z</time></trkpt><trkpt lat="44.3333937" lon="7.5518267"><ele>581.0</ele><time>2026-04-18T13:36:24.121Z</time></trkpt><trkpt lat="44.3334118" lon="7.5516624"><ele>581.5</ele><time>2026-04-18T13:36:25.122Z</time></trkpt><trkpt lat="44.3334334" lon="7.5515024"><ele>582.0</ele><time>2026-04-18T13:36:26.122Z</time></trkpt><trkpt lat="44.3334552" lon="7.5513411"><ele>582.25</ele><time>2026-04-18T13:36:27.121Z</time></trkpt><trkpt lat="44.3334783" lon="7.5511815"><ele>582.5</ele><time>2026-04-18T13:36:28.121Z</time></trkpt><trkpt lat="44.3335052" lon="7.5510281"><ele>582.75</ele><time>2026-04-18T13:36:29.122Z</time></trkpt><trkpt lat="44.3335386" lon="7.5508789"><ele>583.0</ele><time>2026-04-18T13:36:30.122Z</time></trkpt><trkpt lat="44.3335805" lon="7.5507238"><ele>583.0</ele><time>2026-04-18T13:36:31.122Z</time></trkpt><trkpt lat="44.3336289" lon="7.5505754"><ele>583.0</ele><time>2026-04-18T13:36:32.122Z</time></trkpt><trkpt lat="44.3336783" lon="7.5504274"><ele>583.0</ele><time>2026-04-18T13:36:33.122Z</time></trkpt><trkpt lat="44.3337256" lon="7.5502787"><ele>583.0</ele><time>2026-04-18T13:36:34.121Z</time></trkpt><trkpt lat="44.3337778" lon="7.5501303"><ele>583.25</ele><time>2026-04-18T13:36:35.121Z</time></trkpt><trkpt lat="44.3338354" lon="7.5499829"><ele>583.5</ele><time>2026-04-18T13:36:36.122Z</time></trkpt><trkpt lat="44.333887" lon="7.5498388"><ele>583.75</ele><time>2026-04-18T13:36:37.122Z</time></trkpt><trkpt lat="44.3339269" lon="7.5496837"><ele>584.0</ele><time>2026-04-18T13:36:38.122Z</time></trkpt><trkpt lat="44.333956" lon="7.549517"><ele>584.25</ele><time>2026-04-18T13:36:39.122Z</time></trkpt><trkpt lat="44.3339807" lon="7.5493493"><ele>584.5</ele><time>2026-04-18T13:36:40.121Z</time></trkpt><trkpt lat="44.3340052" lon="7.5491818"><ele>584.75</ele><time>2026-04-18T13:36:41.122Z</time></trkpt><trkpt lat="44.3340304" lon="7.5490159"><ele>585.0</ele><time>2026-04-18T13:36:42.121Z</time></trkpt><trkpt lat="44.3340532" lon="7.5488462"><ele>584.25</ele><time>2026-04-18T13:36:43.122Z</time></trkpt><trkpt lat="44.3340775" lon="7.548687"><ele>583.5</ele><time>2026-04-18T13:36:44.122Z</time></trkpt><trkpt lat="44.3340999" lon="7.5485271"><ele>582.75</ele><time>2026-04-18T13:36:45.122Z</time></trkpt><trkpt lat="44.3341199" lon="7.5483728"><ele>582.0</ele><time>2026-04-18T13:36:46.121Z</time></trkpt><trkpt lat="44.3341334" lon="7.5482159"><ele>582.0</ele><time>2026-04-18T13:36:47.121Z</time></trkpt><trkpt lat="44.3341497" lon="7.5480589"><ele>582.0</ele><time>2026-04-18T13:36:48.121Z</time></trkpt><trkpt lat="44.3341668" lon="7.5478979"><ele>582.0</ele><time>2026-04-18T13:36:49.121Z</time></trkpt><trkpt lat="44.3341855" lon="7.5477416"><ele>582.0</ele><time>2026-04-18T13:36:50.122Z</time></trkpt><trkpt lat="44.3342092" lon="7.5475861"><ele>581.75</ele><time>2026-04-18T13:36:51.121Z</time></trkpt><trkpt lat="44.3342323" lon="7.5474322"><ele>581.5</ele><time>2026-04-18T13:36:52.122Z</time></trkpt><trkpt lat="44.3342503" lon="7.5472729"><ele>581.25</ele><time>2026-04-18T13:36:53.122Z</time></trkpt><trkpt lat="44.3342678" lon="7.5471152"><ele>581.0</ele><time>2026-04-18T13:36:54.122Z</time></trkpt><trkpt lat="44.3342893" lon="7.5469554"><ele>581.0</ele><time>2026-04-18T13:36:55.122Z</time></trkpt><trkpt lat="44.3343098" lon="7.5467971"><ele>581.0</ele><time>2026-04-18T13:36:56.121Z</time></trkpt><trkpt lat="44.3343306" lon="7.5466377"><ele>581.0</ele><time>2026-04-18T13:36:57.122Z</time></trkpt><trkpt lat="44.334348" lon="7.546487"><ele>581.0</ele><time>2026-04-18T13:36:58.121Z</time></trkpt><trkpt lat="44.3343569" lon="7.5463294"><ele>581.2</ele><time>2026-04-18T13:36:59.122Z</time></trkpt><trkpt lat="44.3343664" lon="7.546174"><ele>581.4000000000001</ele><time>2026-04-18T13:37:00.122Z</time></trkpt><trkpt lat="44.3343785" lon="7.5460224"><ele>581.6</ele><time>2026-04-18T13:37:01.121Z</time></trkpt><trkpt lat="44.3343913" lon="7.5458711"><ele>581.8000000000001</ele><time>2026-04-18T13:37:02.121Z</time></trkpt><trkpt lat="44.3344015" lon="7.5457186"><ele>582.0</ele><time>2026-04-18T13:37:03.121Z</time></trkpt><trkpt lat="44.3344116" lon="7.5455701"><ele>582.0</ele><time>2026-04-18T13:37:04.122Z</time></trkpt><trkpt lat="44.3344302" lon="7.5454305"><ele>582.0</ele><time>2026-04-18T13:37:05.122Z</time></trkpt><trkpt lat="44.3344628" lon="7.5453017"><ele>582.0</ele><time>2026-04-18T13:37:06.122Z</time></trkpt><trkpt lat="44.3345154" lon="7.5451823"><ele>582.0</ele><time>2026-04-18T13:37:07.122Z</time></trkpt><trkpt lat="44.3345779" lon="7.5450711"><ele>582.0</ele><time>2026-04-18T13:37:08.121Z</time></trkpt><trkpt lat="44.3346467" lon="7.5449606"><ele>582.0</ele><time>2026-04-18T13:37:09.122Z</time></trkpt><trkpt lat="44.3347148" lon="7.5448518"><ele>582.0</ele><time>2026-04-18T13:37:10.121Z</time></trkpt><trkpt lat="44.334782" lon="7.5447489"><ele>582.0</ele><time>2026-04-18T13:37:11.121Z</time></trkpt><trkpt lat="44.3348491" lon="7.5446513"><ele>582.0</ele><time>2026-04-18T13:37:12.122Z</time></trkpt><trkpt lat="44.3349122" lon="7.5445623"><ele>582.0</ele><time>2026-04-18T13:37:13.122Z</time></trkpt><trkpt lat="44.3349864" lon="7.5444953"><ele>581.5</ele><time>2026-04-18T13:37:14.121Z</time></trkpt><trkpt lat="44.3350667" lon="7.5444561"><ele>581.0</ele><time>2026-04-18T13:37:15.122Z</time></trkpt><trkpt lat="44.3351527" lon="7.5444498"><ele>580.5</ele><time>2026-04-18T13:37:16.121Z</time></trkpt><trkpt lat="44.3352343" lon="7.5444488"><ele>580.0</ele><time>2026-04-18T13:37:17.121Z</time></trkpt><trkpt lat="44.3353153" lon="7.5444511"><ele>579.5</ele><time>2026-04-18T13:37:18.122Z</time></trkpt><trkpt lat="44.3353982" lon="7.5444521"><ele>579.0</ele><time>2026-04-18T13:37:19.122Z</time></trkpt><trkpt lat="44.3354801" lon="7.544456"><ele>579.0</ele><time>2026-04-18T13:37:20.121Z</time></trkpt><trkpt lat="44.3355675" lon="7.5444638"><ele>579.0</ele><time>2026-04-18T13:37:21.122Z</time></trkpt><trkpt lat="44.3356607" lon="7.5444754"><ele>579.0</ele><time>2026-04-18T13:37:22.122Z</time></trkpt><trkpt lat="44.3357572" lon="7.5444894"><ele>579.0</ele><time>2026-04-18T13:37:23.122Z</time></trkpt><trkpt lat="44.3358499" lon="7.5445068"><ele>579.0</ele><time>2026-04-18T13:37:24.121Z</time></trkpt><trkpt lat="44.3359429" lon="7.544524"><ele>579.0</ele><time>2026-04-18T13:37:25.122Z</time></trkpt><trkpt lat="44.3360364" lon="7.5445496"><ele>579.0</ele><time>2026-04-18T13:37:26.122Z</time></trkpt><trkpt lat="44.3361311" lon="7.5445701"><ele>579.0</ele><time>2026-04-18T13:37:27.121Z</time></trkpt><trkpt lat="44.3362225" lon="7.5445918"><ele>579.0</ele><time>2026-04-18T13:37:28.121Z</time></trkpt><trkpt lat="44.3363111" lon="7.5446122"><ele>579.0</ele><time>2026-04-18T13:37:29.122Z</time></trkpt><trkpt lat="44.3364011" lon="7.5446348"><ele>578.8</ele><time>2026-04-18T13:37:30.121Z</time></trkpt><trkpt lat="44.3364959" lon="7.5446607"><ele>578.5999999999999</ele><time>2026-04-18T13:37:31.122Z</time></trkpt><trkpt lat="44.3365928" lon="7.5446852"><ele>578.4</ele><time>2026-04-18T13:37:32.122Z</time></trkpt><trkpt lat="44.3366917" lon="7.544705"><ele>578.1999999999999</ele><time>2026-04-18T13:37:33.122Z</time></trkpt><trkpt lat="44.3367957" lon="7.5447169"><ele>578.0</ele><time>2026-04-18T13:37:34.121Z</time></trkpt><trkpt lat="44.3369044" lon="7.5447156"><ele>578.0</ele><time>2026-04-18T13:37:35.122Z</time></trkpt><trkpt lat="44.3370151" lon="7.5447022"><ele>578.0</ele><time>2026-04-18T13:37:36.121Z</time></trkpt><trkpt lat="44.3371207" lon="7.5446781"><ele>578.0</ele><time>2026-04-18T13:37:37.122Z</time></trkpt><trkpt lat="44.3372258" lon="7.5446428"><ele>578.0</ele><time>2026-04-18T13:37:38.122Z</time></trkpt><trkpt lat="44.337331" lon="7.5445961"><ele>578.0</ele><time>2026-04-18T13:37:39.121Z</time></trkpt><trkpt lat="44.3374306" lon="7.5445373"><ele>578.6</ele><time>2026-04-18T13:37:40.122Z</time></trkpt><trkpt lat="44.3375178" lon="7.5444693"><ele>579.1999999999999</ele><time>2026-04-18T13:37:41.121Z</time></trkpt><trkpt lat="44.3375998" lon="7.5443851"><ele>579.8</ele><time>2026-04-18T13:37:42.122Z</time></trkpt><trkpt lat="44.3376777" lon="7.5443039"><ele>580.4</ele><time>2026-04-18T13:37:43.121Z</time></trkpt><trkpt lat="44.3377459" lon="7.5442201"><ele>581.0</ele><time>2026-04-18T13:37:44.122Z</time></trkpt><trkpt lat="44.3378013" lon="7.5441507"><ele>581.0</ele><time>2026-04-18T13:37:45.122Z</time></trkpt><trkpt lat="44.3378617" lon="7.5440924"><ele>581.0</ele><time>2026-04-18T13:37:46.121Z</time></trkpt><trkpt lat="44.3379327" lon="7.5440486"><ele>581.0</ele><time>2026-04-18T13:37:47.122Z</time></trkpt><trkpt lat="44.3379953" lon="7.5440241"><ele>581.0</ele><time>2026-04-18T13:37:48.121Z</time></trkpt><trkpt lat="44.3380988" lon="7.5439196"><ele>581.0</ele><time>2026-04-18T13:37:50.121Z</time></trkpt><trkpt lat="44.3381312" lon="7.5438045"><ele>581.0</ele><time>2026-04-18T13:37:51.121Z</time></trkpt><trkpt lat="44.3381513" lon="7.5436709"><ele>581.4</ele><time>2026-04-18T13:37:52.121Z</time></trkpt><trkpt lat="44.3381961" lon="7.5435451"><ele>581.8</ele><time>2026-04-18T13:37:53.122Z</time></trkpt><trkpt lat="44.3382663" lon="7.5434398"><ele>582.1999999999999</ele><time>2026-04-18T13:37:54.122Z</time></trkpt><trkpt lat="44.3383466" lon="7.5433377"><ele>582.6</ele><time>2026-04-18T13:37:55.122Z</time></trkpt><trkpt lat="44.338427" lon="7.5432273"><ele>583.0</ele><time>2026-04-18T13:37:56.122Z</time></trkpt><trkpt lat="44.3385138" lon="7.5431144"><ele>583.0</ele><time>2026-04-18T13:37:57.121Z</time></trkpt><trkpt lat="44.3386017" lon="7.5430058"><ele>583.0</ele><time>2026-04-18T13:37:58.121Z</time></trkpt><trkpt lat="44.3386897" lon="7.5428955"><ele>583.0</ele><time>2026-04-18T13:37:59.122Z</time></trkpt><trkpt lat="44.338776" lon="7.5427883"><ele>583.0</ele><time>2026-04-18T13:38:00.122Z</time></trkpt><trkpt lat="44.3388675" lon="7.5426842"><ele>582.75</ele><time>2026-04-18T13:38:01.122Z</time></trkpt><trkpt lat="44.3389629" lon="7.5425923"><ele>582.5</ele><time>2026-04-18T13:38:02.122Z</time></trkpt><trkpt lat="44.339054" lon="7.542498"><ele>582.25</ele><time>2026-04-18T13:38:03.122Z</time></trkpt><trkpt lat="44.3391404" lon="7.5423996"><ele>582.0</ele><time>2026-04-18T13:38:04.122Z</time></trkpt><trkpt lat="44.3392288" lon="7.5423085"><ele>582.0</ele><time>2026-04-18T13:38:05.121Z</time></trkpt><trkpt lat="44.3393181" lon="7.5422194"><ele>582.0</ele><time>2026-04-18T13:38:06.121Z</time></trkpt><trkpt lat="44.3394071" lon="7.5421273"><ele>582.0</ele><time>2026-04-18T13:38:07.121Z</time></trkpt><trkpt lat="44.3394961" lon="7.5420319"><ele>582.0</ele><time>2026-04-18T13:38:08.122Z</time></trkpt><trkpt lat="44.3395843" lon="7.5419394"><ele>582.0</ele><time>2026-04-18T13:38:09.122Z</time></trkpt><trkpt lat="44.3396699" lon="7.541845"><ele>581.4</ele><time>2026-04-18T13:38:10.122Z</time></trkpt><trkpt lat="44.3397568" lon="7.5417527"><ele>580.8000000000001</ele><time>2026-04-18T13:38:11.122Z</time></trkpt><trkpt lat="44.3398459" lon="7.5416611"><ele>580.2</ele><time>2026-04-18T13:38:12.122Z</time></trkpt><trkpt lat="44.3399337" lon="7.5415627"><ele>579.6</ele><time>2026-04-18T13:38:13.122Z</time></trkpt><trkpt lat="44.3400241" lon="7.5414716"><ele>579.0</ele><time>2026-04-18T13:38:14.122Z</time></trkpt><trkpt lat="44.3401208" lon="7.5413917"><ele>579.0</ele><time>2026-04-18T13:38:15.122Z</time></trkpt><trkpt lat="44.3402267" lon="7.5413401"><ele>579.0</ele><time>2026-04-18T13:38:16.121Z</time></trkpt><trkpt lat="44.3403399" lon="7.5413094"><ele>579.0</ele><time>2026-04-18T13:38:17.122Z</time></trkpt><trkpt lat="44.3404562" lon="7.5412931"><ele>579.0</ele><time>2026-04-18T13:38:18.122Z</time></trkpt><trkpt lat="44.3405743" lon="7.5412786"><ele>578.75</ele><time>2026-04-18T13:38:19.122Z</time></trkpt><trkpt lat="44.3406932" lon="7.5412672"><ele>578.5</ele><time>2026-04-18T13:38:20.121Z</time></trkpt><trkpt lat="44.3408153" lon="7.5412586"><ele>578.25</ele><time>2026-04-18T13:38:21.122Z</time></trkpt><trkpt lat="44.3409345" lon="7.5412499"><ele>578.0</ele><time>2026-04-18T13:38:22.122Z</time></trkpt><trkpt lat="44.3410529" lon="7.541244"><ele>578.0</ele><time>2026-04-18T13:38:23.122Z</time></trkpt><trkpt lat="44.3411687" lon="7.5412259"><ele>578.0</ele><time>2026-04-18T13:38:24.122Z</time></trkpt><trkpt lat="44.3412843" lon="7.5411949"><ele>578.0</ele><time>2026-04-18T13:38:25.122Z</time></trkpt><trkpt lat="44.3414003" lon="7.5411533"><ele>578.0</ele><time>2026-04-18T13:38:26.122Z</time></trkpt><trkpt lat="44.3415128" lon="7.5411089"><ele>578.0</ele><time>2026-04-18T13:38:27.122Z</time></trkpt><trkpt lat="44.3416246" lon="7.5410656"><ele>578.0</ele><time>2026-04-18T13:38:28.122Z</time></trkpt><trkpt lat="44.3417365" lon="7.5410099"><ele>578.0</ele><time>2026-04-18T13:38:29.122Z</time></trkpt><trkpt lat="44.3418447" lon="7.5409341"><ele>578.0</ele><time>2026-04-18T13:38:30.121Z</time></trkpt><trkpt lat="44.3419493" lon="7.5408526"><ele>578.0</ele><time>2026-04-18T13:38:31.122Z</time></trkpt><trkpt lat="44.3420533" lon="7.5407655"><ele>578.0</ele><time>2026-04-18T13:38:32.121Z</time></trkpt><trkpt lat="44.3421532" lon="7.5406735"><ele>578.0</ele><time>2026-04-18T13:38:33.122Z</time></trkpt><trkpt lat="44.3422505" lon="7.540578"><ele>578.0</ele><time>2026-04-18T13:38:34.122Z</time></trkpt><trkpt lat="44.3423493" lon="7.5404867"><ele>578.5</ele><time>2026-04-18T13:38:35.122Z</time></trkpt><trkpt lat="44.3424474" lon="7.5403924"><ele>579.0</ele><time>2026-04-18T13:38:36.121Z</time></trkpt><trkpt lat="44.3425425" lon="7.5402966"><ele>579.5</ele><time>2026-04-18T13:38:37.122Z</time></trkpt><trkpt lat="44.3426359" lon="7.5402019"><ele>580.0</ele><time>2026-04-18T13:38:38.121Z</time></trkpt><trkpt lat="44.3427242" lon="7.540106"><ele>580.0</ele><time>2026-04-18T13:38:39.122Z</time></trkpt><trkpt lat="44.3428116" lon="7.5400212"><ele>580.0</ele><time>2026-04-18T13:38:40.122Z</time></trkpt><trkpt lat="44.3429032" lon="7.5399476"><ele>580.0</ele><time>2026-04-18T13:38:41.122Z</time></trkpt><trkpt lat="44.3430031" lon="7.5399"><ele>580.0</ele><time>2026-04-18T13:38:42.121Z</time></trkpt><trkpt lat="44.3431112" lon="7.5398789"><ele>580.0</ele><time>2026-04-18T13:38:43.122Z</time></trkpt><trkpt lat="44.3432237" lon="7.5398798"><ele>579.5</ele><time>2026-04-18T13:38:44.122Z</time></trkpt><trkpt lat="44.3433362" lon="7.5398964"><ele>579.0</ele><time>2026-04-18T13:38:45.122Z</time></trkpt><trkpt lat="44.3434492" lon="7.5399186"><ele>578.5</ele><time>2026-04-18T13:38:46.122Z</time></trkpt><trkpt lat="44.3435667" lon="7.5399455"><ele>578.0</ele><time>2026-04-18T13:38:47.122Z</time></trkpt><trkpt lat="44.3436806" lon="7.5399749"><ele>578.0</ele><time>2026-04-18T13:38:48.122Z</time></trkpt><trkpt lat="44.3437962" lon="7.539992"><ele>578.0</ele><time>2026-04-18T13:38:49.122Z</time></trkpt><trkpt lat="44.3439063" lon="7.5399982"><ele>578.0</ele><time>2026-04-18T13:38:50.121Z</time></trkpt><trkpt lat="44.3440127" lon="7.5400069"><ele>578.0</ele><time>2026-04-18T13:38:51.121Z</time></trkpt><trkpt lat="44.3441211" lon="7.5400186"><ele>578.0</ele><time>2026-04-18T13:38:52.122Z</time></trkpt><trkpt lat="44.3442323" lon="7.5400268"><ele>577.4</ele><time>2026-04-18T13:38:53.122Z</time></trkpt><trkpt lat="44.3443411" lon="7.5400349"><ele>576.8</ele><time>2026-04-18T13:38:54.122Z</time></trkpt><trkpt lat="44.3444486" lon="7.540043"><ele>576.2</ele><time>2026-04-18T13:38:55.122Z</time></trkpt><trkpt lat="44.3445532" lon="7.5400452"><ele>575.6</ele><time>2026-04-18T13:38:56.121Z</time></trkpt><trkpt lat="44.344658" lon="7.5400403"><ele>575.0</ele><time>2026-04-18T13:38:57.122Z</time></trkpt><trkpt lat="44.3447598" lon="7.5400424"><ele>575.0</ele><time>2026-04-18T13:38:58.122Z</time></trkpt><trkpt lat="44.3448634" lon="7.5400521"><ele>575.0</ele><time>2026-04-18T13:38:59.122Z</time></trkpt><trkpt lat="44.3449665" lon="7.5400609"><ele>575.0</ele><time>2026-04-18T13:39:00.122Z</time></trkpt><trkpt lat="44.3450741" lon="7.5400703"><ele>575.0</ele><time>2026-04-18T13:39:01.122Z</time></trkpt><trkpt lat="44.3451813" lon="7.5400844"><ele>575.0</ele><time>2026-04-18T13:39:02.122Z</time></trkpt><trkpt lat="44.345288" lon="7.5401009"><ele>575.0</ele><time>2026-04-18T13:39:03.122Z</time></trkpt><trkpt lat="44.3453951" lon="7.5401169"><ele>575.0</ele><time>2026-04-18T13:39:04.122Z</time></trkpt><trkpt lat="44.3455011" lon="7.5401372"><ele>575.0</ele><time>2026-04-18T13:39:05.122Z</time></trkpt><trkpt lat="44.3456094" lon="7.5401585"><ele>575.0</ele><time>2026-04-18T13:39:06.122Z</time></trkpt><trkpt lat="44.3457171" lon="7.5401763"><ele>575.0</ele><time>2026-04-18T13:39:07.122Z</time></trkpt><trkpt lat="44.3458203" lon="7.5401918"><ele>575.2</ele><time>2026-04-18T13:39:08.121Z</time></trkpt><trkpt lat="44.3459226" lon="7.5402001"><ele>575.4</ele><time>2026-04-18T13:39:09.122Z</time></trkpt><trkpt lat="44.3460241" lon="7.540199"><ele>575.6</ele><time>2026-04-18T13:39:10.121Z</time></trkpt><trkpt lat="44.3461214" lon="7.5401964"><ele>575.8</ele><time>2026-04-18T13:39:11.122Z</time></trkpt><trkpt lat="44.3462159" lon="7.5401939"><ele>576.0</ele><time>2026-04-18T13:39:12.122Z</time></trkpt><trkpt lat="44.346317" lon="7.5401928"><ele>576.0</ele><time>2026-04-18T13:39:13.122Z</time></trkpt><trkpt lat="44.3464252" lon="7.5401897"><ele>576.0</ele><time>2026-04-18T13:39:14.122Z</time></trkpt><trkpt lat="44.3465384" lon="7.5401928"><ele>576.0</ele><time>2026-04-18T13:39:15.122Z</time></trkpt><trkpt lat="44.3466512" lon="7.5402089"><ele>576.0</ele><time>2026-04-18T13:39:16.122Z</time></trkpt><trkpt lat="44.3467615" lon="7.5402356"><ele>576.0</ele><time>2026-04-18T13:39:17.121Z</time></trkpt><trkpt lat="44.3468715" lon="7.5402652"><ele>576.0</ele><time>2026-04-18T13:39:18.122Z</time></trkpt><trkpt lat="44.3469828" lon="7.5402949"><ele>576.0</ele><time>2026-04-18T13:39:19.122Z</time></trkpt><trkpt lat="44.3470894" lon="7.5403259"><ele>576.0</ele><time>2026-04-18T13:39:20.122Z</time></trkpt><trkpt lat="44.347193" lon="7.5403606"><ele>576.0</ele><time>2026-04-18T13:39:21.121Z</time></trkpt><trkpt lat="44.3472965" lon="7.5404002"><ele>576.0</ele><time>2026-04-18T13:39:22.122Z</time></trkpt><trkpt lat="44.3473977" lon="7.5404334"><ele>576.2</ele><time>2026-04-18T13:39:23.122Z</time></trkpt><trkpt lat="44.3474956" lon="7.5404607"><ele>576.4000000000001</ele><time>2026-04-18T13:39:24.122Z</time></trkpt><trkpt lat="44.3475943" lon="7.5404915"><ele>576.6</ele><time>2026-04-18T13:39:25.122Z</time></trkpt><trkpt lat="44.347694" lon="7.5405119"><ele>576.8000000000001</ele><time>2026-04-18T13:39:26.122Z</time></trkpt><trkpt lat="44.3477996" lon="7.5405275"><ele>577.0</ele><time>2026-04-18T13:39:27.122Z</time></trkpt><trkpt lat="44.347907" lon="7.5405358"><ele>577.0</ele><time>2026-04-18T13:39:28.122Z</time></trkpt><trkpt lat="44.3480132" lon="7.540544"><ele>577.0</ele><time>2026-04-18T13:39:29.121Z</time></trkpt><trkpt lat="44.3481189" lon="7.5405529"><ele>577.0</ele><time>2026-04-18T13:39:30.122Z</time></trkpt><trkpt lat="44.3482246" lon="7.5405568"><ele>577.0</ele><time>2026-04-18T13:39:31.122Z</time></trkpt><trkpt lat="44.3483295" lon="7.5405668"><ele>577.0</ele><time>2026-04-18T13:39:32.121Z</time></trkpt><trkpt lat="44.3484335" lon="7.5405747"><ele>576.8000000000001</ele><time>2026-04-18T13:39:33.122Z</time></trkpt><trkpt lat="44.3485401" lon="7.5405837"><ele>576.6</ele><time>2026-04-18T13:39:34.122Z</time></trkpt><trkpt lat="44.3486456" lon="7.5405995"><ele>576.4000000000001</ele><time>2026-04-18T13:39:35.122Z</time></trkpt><trkpt lat="44.3487529" lon="7.540613"><ele>576.2</ele><time>2026-04-18T13:39:36.122Z</time></trkpt><trkpt lat="44.3488571" lon="7.5406287"><ele>576.0</ele><time>2026-04-18T13:39:37.121Z</time></trkpt><trkpt lat="44.3489588" lon="7.5406467"><ele>576.0</ele><time>2026-04-18T13:39:38.122Z</time></trkpt><trkpt lat="44.3490611" lon="7.5406682"><ele>576.0</ele><time>2026-04-18T13:39:39.122Z</time></trkpt><trkpt lat="44.3491604" lon="7.5406861"><ele>576.0</ele><time>2026-04-18T13:39:40.121Z</time></trkpt><trkpt lat="44.3492586" lon="7.5407019"><ele>576.0</ele><time>2026-04-18T13:39:41.121Z</time></trkpt><trkpt lat="44.3493524" lon="7.5407266"><ele>576.0</ele><time>2026-04-18T13:39:42.122Z</time></trkpt><trkpt lat="44.3494466" lon="7.5407502"><ele>576.0</ele><time>2026-04-18T13:39:43.121Z</time></trkpt><trkpt lat="44.3495406" lon="7.540766"><ele>576.0</ele><time>2026-04-18T13:39:44.121Z</time></trkpt><trkpt lat="44.3496391" lon="7.5407794"><ele>576.0</ele><time>2026-04-18T13:39:45.121Z</time></trkpt><trkpt lat="44.3497415" lon="7.5407992"><ele>576.0</ele><time>2026-04-18T13:39:46.121Z</time></trkpt><trkpt lat="44.3498442" lon="7.5408258"><ele>576.0</ele><time>2026-04-18T13:39:47.122Z</time></trkpt><trkpt lat="44.3499468" lon="7.5408563"><ele>575.8</ele><time>2026-04-18T13:39:48.122Z</time></trkpt><trkpt lat="44.3500492" lon="7.5408857"><ele>575.6</ele><time>2026-04-18T13:39:49.122Z</time></trkpt><trkpt lat="44.3501537" lon="7.5409143"><ele>575.4</ele><time>2026-04-18T13:39:50.121Z</time></trkpt><trkpt lat="44.3502571" lon="7.5409457"><ele>575.2</ele><time>2026-04-18T13:39:51.122Z</time></trkpt><trkpt lat="44.3503578" lon="7.5409793"><ele>575.0</ele><time>2026-04-18T13:39:52.122Z</time></trkpt><trkpt lat="44.3504564" lon="7.541016"><ele>575.2</ele><time>2026-04-18T13:39:53.122Z</time></trkpt><trkpt lat="44.3505613" lon="7.5410482"><ele>575.4</ele><time>2026-04-18T13:39:54.122Z</time></trkpt><trkpt lat="44.3506648" lon="7.5410806"><ele>575.6</ele><time>2026-04-18T13:39:55.122Z</time></trkpt><trkpt lat="44.3507635" lon="7.541113"><ele>575.8</ele><time>2026-04-18T13:39:56.122Z</time></trkpt><trkpt lat="44.3508615" lon="7.5411413"><ele>576.0</ele><time>2026-04-18T13:39:57.122Z</time></trkpt><trkpt lat="44.3509573" lon="7.5411718"><ele>576.0</ele><time>2026-04-18T13:39:58.122Z</time></trkpt><trkpt lat="44.3510487" lon="7.5412115"><ele>576.0</ele><time>2026-04-18T13:39:59.122Z</time></trkpt><trkpt lat="44.3511376" lon="7.5412609"><ele>576.0</ele><time>2026-04-18T13:40:00.122Z</time></trkpt><trkpt lat="44.3512256" lon="7.5413166"><ele>576.0</ele><time>2026-04-18T13:40:01.122Z</time></trkpt><trkpt lat="44.3513044" lon="7.5413723"><ele>576.0</ele><time>2026-04-18T13:40:02.122Z</time></trkpt><trkpt lat="44.3513853" lon="7.5414306"><ele>575.2</ele><time>2026-04-18T13:40:03.122Z</time></trkpt><trkpt lat="44.3514721" lon="7.5414903"><ele>574.4000000000001</ele><time>2026-04-18T13:40:04.121Z</time></trkpt><trkpt lat="44.3515632" lon="7.541553"><ele>573.6</ele><time>2026-04-18T13:40:05.122Z</time></trkpt><trkpt lat="44.3516563" lon="7.5416138"><ele>572.8000000000001</ele><time>2026-04-18T13:40:06.121Z</time></trkpt><trkpt lat="44.3517477" lon="7.5416734"><ele>572.0</ele><time>2026-04-18T13:40:07.121Z</time></trkpt><trkpt lat="44.3518374" lon="7.5417385"><ele>572.0</ele><time>2026-04-18T13:40:08.121Z</time></trkpt><trkpt lat="44.3519259" lon="7.5418024"><ele>572.0</ele><time>2026-04-18T13:40:09.121Z</time></trkpt><trkpt lat="44.352015" lon="7.5418674"><ele>572.0</ele><time>2026-04-18T13:40:10.122Z</time></trkpt><trkpt lat="44.3521009" lon="7.5419341"><ele>572.0</ele><time>2026-04-18T13:40:11.122Z</time></trkpt><trkpt lat="44.3521769" lon="7.5420142"><ele>572.0</ele><time>2026-04-18T13:40:12.122Z</time></trkpt><trkpt lat="44.3522479" lon="7.542105"><ele>571.8000000000001</ele><time>2026-04-18T13:40:13.121Z</time></trkpt><trkpt lat="44.352317" lon="7.5422096"><ele>571.6</ele><time>2026-04-18T13:40:14.121Z</time></trkpt><trkpt lat="44.3523871" lon="7.5423079"><ele>571.4000000000001</ele><time>2026-04-18T13:40:15.122Z</time></trkpt><trkpt lat="44.3524565" lon="7.5424045"><ele>571.2</ele><time>2026-04-18T13:40:16.121Z</time></trkpt><trkpt lat="44.3525248" lon="7.5425014"><ele>571.0</ele><time>2026-04-18T13:40:17.121Z</time></trkpt><trkpt lat="44.3525891" lon="7.5425978"><ele>571.0</ele><time>2026-04-18T13:40:18.122Z</time></trkpt><trkpt lat="44.3526485" lon="7.5426889"><ele>571.0</ele><time>2026-04-18T13:40:19.122Z</time></trkpt><trkpt lat="44.3527069" lon="7.542781"><ele>571.0</ele><time>2026-04-18T13:40:20.122Z</time></trkpt><trkpt lat="44.3527599" lon="7.5428883"><ele>571.0</ele><time>2026-04-18T13:40:21.121Z</time></trkpt><trkpt lat="44.3528125" lon="7.5430042"><ele>571.0</ele><time>2026-04-18T13:40:22.122Z</time></trkpt><trkpt lat="44.3528731" lon="7.5431164"><ele>570.6666666666667</ele><time>2026-04-18T13:40:23.122Z</time></trkpt><trkpt lat="44.3529426" lon="7.5432134"><ele>570.3333333333334</ele><time>2026-04-18T13:40:24.121Z</time></trkpt><trkpt lat="44.3530226" lon="7.5432913"><ele>570.0</ele><time>2026-04-18T13:40:25.121Z</time></trkpt><trkpt lat="44.3531019" lon="7.5433554"><ele>569.6666666666666</ele><time>2026-04-18T13:40:26.122Z</time></trkpt><trkpt lat="44.3531733" lon="7.5434136"><ele>569.3333333333333</ele><time>2026-04-18T13:40:27.122Z</time></trkpt><trkpt lat="44.3532407" lon="7.5434658"><ele>569.0</ele><time>2026-04-18T13:40:28.122Z</time></trkpt><trkpt lat="44.3533473" lon="7.5435189"><ele>569.0</ele><time>2026-04-18T13:40:30.122Z</time></trkpt><trkpt lat="44.3534211" lon="7.5435648"><ele>569.0</ele><time>2026-04-18T13:40:34.122Z</time></trkpt><trkpt lat="44.3534903" lon="7.5436202"><ele>569.0</ele><time>2026-04-18T13:40:37.127Z</time></trkpt><trkpt lat="44.3535545" lon="7.5436593"><ele>569.0</ele><time>2026-04-18T13:40:39.044Z</time></trkpt><trkpt lat="44.3536286" lon="7.5436535"><ele>569.0</ele><time>2026-04-18T13:40:40.128Z</time></trkpt><trkpt lat="44.3536777" lon="7.5435623"><ele>569.0</ele><time>2026-04-18T13:40:43.127Z</time></trkpt><trkpt lat="44.35362" lon="7.5436476"><ele>569.0</ele><time>2026-04-18T13:40:47.121Z</time></trkpt><trkpt lat="44.3535337" lon="7.5436128"><ele>569.0</ele><time>2026-04-18T13:40:48.122Z</time></trkpt><trkpt lat="44.3534706" lon="7.5435777"><ele>569.0</ele><time>2026-04-18T13:40:49.122Z</time></trkpt><trkpt lat="44.3533737" lon="7.5435293"><ele>569.0</ele><time>2026-04-18T13:40:51.122Z</time></trkpt><trkpt lat="44.3533076" lon="7.5434808"><ele>569.0</ele><time>2026-04-18T13:40:53.121Z</time></trkpt><trkpt lat="44.3532451" lon="7.5434435"><ele>569.0</ele><time>2026-04-18T13:40:56.121Z</time></trkpt></trkseg></trk></gpx>